Date StartTime U_cm/s V_cm/s W_cm/s Ustd_cm/s Vstd_cm/s Wstd_cm/s Uvar_(cm/s)^2 Vvar_(cm/s)^2 Wvar_(cm/s)^2 KE_(m/s)^2 TurbulentKE_(m/s)^2 HorizWindSpeed_cm/s FrictionSpeec_cm/s DragCoef SpeedOfSound_m/s SonicTemperature_C Pressure_mb 
09/29/2014  00:00:00     -127.375      -45.205        0.588       25.382       20.095       13.305      644.233      403.819      177.015        0.975        0.061      135.159       11.360        0.007      336.770        8.295      861.252
09/29/2014  00:01:00      -98.427      -43.584        1.127       31.807       28.987       20.896     1011.688      840.254      436.640        0.694        0.114      107.645       20.375        0.036      336.774        8.300      861.249
09/29/2014  00:02:00      -57.260      -39.900        9.538       39.622       26.427       18.951     1569.896      698.389      359.133        0.379        0.131       69.791       23.111        0.110      336.765        8.286      861.246
09/29/2014  00:03:00      -81.532      -42.963        0.167       36.817       24.993       17.335     1355.462      624.651      300.500        0.539        0.114       92.159       14.468        0.025      336.818        8.376      861.238
09/29/2014  00:04:00     -101.796      -59.235        0.636       28.934       29.140       15.164      837.191      849.144      229.933        0.789        0.096      117.776       12.619        0.011      336.811        8.363      861.239
09/29/2014  00:05:00     -100.441      -53.414       -4.086       35.928       19.337       16.697     1290.792      373.915      278.778        0.745        0.097      113.760       14.250        0.016      336.795        8.336      861.241
09/29/2014  00:06:00     -126.577      -45.218       -5.435       26.989       25.802       15.467      728.423      665.742      239.235        0.986        0.082      134.411        7.462        0.003      336.774        8.304      861.245
09/29/2014  00:07:00     -119.188      -36.749       -2.213       31.913       24.028       18.404     1018.440      577.359      338.723        0.875        0.097      124.725       13.403        0.012      336.729        8.228      861.266
09/29/2014  00:08:00     -100.684      -37.473        3.921       52.804       38.814       23.761     2788.275     1506.525      564.586        0.821        0.243      107.431       27.773        0.067      336.661        8.112      861.289
09/29/2014  00:09:00     -121.685      -27.085       -4.091       43.382       30.738       20.405     1882.020      944.814      416.351        0.940        0.162      124.663       17.803        0.020      336.646        8.089      861.316
09/29/2014  00:10:00      -81.525      -12.916       -1.791       56.060       31.101       24.179     3142.688      967.265      584.632        0.575        0.235       82.542       26.860        0.106      336.559        7.942      861.326
09/29/2014  00:11:00     -119.909      -12.758       -5.348       32.391       23.689       23.294     1049.172      561.167      542.600        0.836        0.108      120.586       19.875        0.027      336.582        7.981      861.326
09/29/2014  00:12:00     -106.245      -35.213       -7.217       30.857       24.865       15.481      952.126      618.271      239.660        0.719        0.091      111.928       17.574        0.025      336.575        7.969      861.316
09/29/2014  00:13:00     -124.184      -37.746       -6.894       35.438       25.984       20.294     1255.860      675.156      411.849        0.962        0.117      129.794       20.590        0.025      336.568        7.957      861.304
09/29/2014  00:14:00      -92.949      -35.392       -4.557       26.424       23.762       14.503      698.216      564.619      210.346        0.569        0.074       99.459       12.826        0.017      336.548        7.924      861.288
09/29/2014  00:15:00      -79.834      -29.237        2.258       31.182       30.577       17.046      972.341      934.932      290.567        0.472        0.110       85.019       17.061        0.040      336.537        7.906      861.275
09/29/2014  00:16:00      -84.015      -18.798       -6.036       38.328       21.048       18.096     1469.017      443.030      327.476        0.484        0.112       86.092       19.657        0.052      336.522        7.883      861.271
09/29/2014  00:17:00      -48.947      -10.709       -0.979       32.417       19.559       12.332     1050.879      382.545      152.086        0.205        0.079       50.104       13.317        0.071      336.497        7.839      861.269
09/29/2014  00:18:00      -90.750      -20.180       -8.015       28.722       22.133       14.174      824.943      489.867      200.900        0.511        0.076       92.966       15.023        0.026      336.532        7.896      861.266
09/29/2014  00:19:00     -112.779      -29.351      -12.339       25.252       15.692       11.645      637.669      246.234      135.598        0.738        0.051      116.535       11.563        0.010      336.519        7.876      861.279
09/29/2014  00:20:00      -78.475      -27.621       -6.938       19.874       16.543       12.528      394.990      273.659      156.950        0.390        0.041       83.194       11.549        0.019      336.503        7.849      861.281
09/29/2014  00:21:00     -100.393      -35.135      -11.001       17.493       13.613       12.304      305.993      185.306      151.383        0.604        0.032      106.364        7.431        0.005      336.554        7.934      861.291
09/29/2014  00:22:00     -105.488      -43.282       -2.781       29.027       27.066       16.565      842.545      732.546      274.387        0.743        0.092      114.022       13.750        0.015      336.655        8.102      861.302
09/29/2014  00:23:00      -89.203      -50.998        1.597       35.235       31.038       20.032     1241.532      963.381      401.267        0.658        0.130      102.753       14.844        0.021      336.705        8.186      861.313
09/29/2014  00:24:00      -98.934      -53.246        4.614       47.014       36.128       22.436     2210.274     1305.259      503.385        0.833        0.201      112.352       22.296        0.039      336.696        8.173      861.324
09/29/2014  00:25:00      -88.417      -57.826        5.216       54.076       32.147       21.707     2924.169     1033.418      471.186        0.781        0.221      105.648       25.443        0.058      336.701        8.180      861.343
09/29/2014  00:26:00     -110.079      -73.547       -1.228       34.854       26.733       20.354     1214.776      714.632      414.294        0.994        0.117      132.388       19.942        0.023      336.728        8.225      861.351
09/29/2014  00:27:00     -123.143      -47.181       -1.384       37.937       26.902       21.623     1439.191      723.702      467.568        1.001        0.132      131.872       20.832        0.025      336.703        8.185      861.363
09/29/2014  00:28:00     -120.633      -35.748       -2.470       33.499       24.924       16.964     1122.215      621.214      287.781        0.893        0.102      125.818       13.698        0.012      336.703        8.185      861.366
09/29/2014  00:29:00     -105.507      -24.806        3.623       43.329       36.735       21.736     1877.442     1349.426      472.463        0.773        0.185      108.384       24.665        0.052      336.647        8.091      861.373
09/29/2014  00:30:00     -133.216      -39.096       -4.733       33.160       39.850       20.570     1099.596     1588.001      423.107        1.120        0.156      138.834       12.811        0.009      336.687        8.156      861.364
09/29/2014  00:31:00      -96.582      -38.847       -0.364       51.137       36.545       24.873     2615.035     1335.573      618.683        0.770        0.228      104.101       25.598        0.060      336.636        8.073      861.355
09/29/2014  00:32:00      -90.574      -19.602        2.136       50.822       32.985       26.003     2582.907     1087.991      676.153        0.647        0.217       92.671       26.425        0.081      336.582        7.981      861.362
09/29/2014  00:33:00     -130.252      -38.736       -0.286       38.490       32.666       24.117     1481.466     1067.090      581.607        1.080        0.157      135.890       23.552        0.030      336.597        8.005      861.380
09/29/2014  00:34:00     -127.191      -17.783       -1.077       61.088       26.656       24.594     3731.729      710.543      604.847        1.077        0.252      128.428       32.395        0.064      336.543        7.915      861.409
09/29/2014  00:35:00     -118.742       -6.766       -6.263       45.251       33.035       18.811     2047.634     1091.325      353.853        0.884        0.175      118.935        9.242        0.006      336.478        7.806      861.432
09/29/2014  00:36:00     -103.491      -13.648       -3.952       37.941       34.886       20.754     1439.490     1217.032      430.720        0.700        0.154      104.387       19.653        0.035      336.453        7.766      861.442
09/29/2014  00:37:00      -98.931      -18.826       -2.410       29.865       23.188       15.437      891.932      537.667      238.290        0.591        0.083      100.706       10.912        0.012      336.461        7.778      861.439
09/29/2014  00:38:00     -105.170      -30.034        5.938       36.305       25.506       18.679     1318.024      650.554      348.907        0.716        0.116      109.374       19.859        0.033      336.488        7.825      861.429
09/29/2014  00:39:00     -108.849      -54.522        0.510       47.148       22.246       25.033     2222.950      494.887      626.630        0.908        0.167      121.741       26.587        0.048      336.576        7.970      861.431
09/29/2014  00:40:00      -91.981      -66.460        6.378       46.386       34.082       24.339     2151.663     1161.586      592.387        0.841        0.195      113.479       28.055        0.061      336.620        8.046      861.429
09/29/2014  00:41:00      -89.216      -58.152       -4.373       40.144       25.107       16.259     1611.540      630.353      264.371        0.693        0.125      106.495       16.052        0.023      336.648        8.092      861.423
09/29/2014  00:42:00      -94.247      -61.138        2.714       40.811       26.207       19.134     1665.547      686.807      366.125        0.767        0.136      112.340       19.703        0.031      336.646        8.089      861.416
09/29/2014  00:43:00      -59.389      -64.004        7.188       47.912       40.173       29.355     2295.535     1613.899      861.704        0.622        0.239       87.313       27.488        0.099      336.602        8.014      861.416
09/29/2014  00:44:00     -100.654      -77.003       -4.479       36.556       46.239       24.071     1336.333     2138.067      579.409        1.007        0.203      126.731       26.687        0.044      336.593        8.001      861.436
09/29/2014  00:45:00      -22.746      -47.945       22.681       48.221       39.395       35.461     2325.291     1551.986     1257.517        0.423        0.257       53.066       32.306        0.371      336.560        7.945      861.448
09/29/2014  00:46:00      -36.342      -47.903        9.047       41.113       56.147       19.543     1690.301     3152.530      381.937        0.446        0.261       60.129       22.365        0.138      336.510        7.861      861.447
09/29/2014  00:47:00      -74.781      -14.072        7.223       39.696       28.866       22.537     1575.810      833.261      507.899        0.438        0.146       76.093       24.048        0.100      336.498        7.841      861.439
09/29/2014  00:48:00      -72.441      -14.203       10.141       38.720       28.616       20.230     1499.229      818.880      409.271        0.414        0.136       73.821       21.073        0.081      336.418        7.707      861.420
09/29/2014  00:49:00     -123.019      -26.167       -5.773       37.462       29.388       24.320     1403.386      863.674      591.473        0.935        0.143      125.771       21.564        0.029      336.428        7.723      861.407
09/29/2014  00:50:00     -141.851      -36.018        0.563       53.767       25.335       23.104     2890.901      641.857      533.803        1.274        0.203      146.353       22.675        0.024      336.418        7.706      861.406
09/29/2014  00:51:00     -138.218      -70.550       -8.750       41.653       32.228       24.894     1734.976     1038.656      619.713        1.378        0.170      155.183       26.079        0.028      336.317        7.538      861.390
09/29/2014  00:52:00     -118.664      -76.820        0.284       33.788       26.226       23.177     1141.600      687.778      537.176        1.117        0.118      141.359       17.802        0.016      336.306        7.518      861.380
09/29/2014  00:53:00     -122.969      -64.444       -2.565       30.531       28.359       21.085      932.138      804.236      444.596        1.073        0.109      138.832       14.628        0.011      336.295        7.500      861.384
09/29/2014  00:54:00      -67.953      -48.960        2.729       45.271       18.752       15.883     2049.438      351.656      252.275        0.484        0.133       83.754       19.099        0.052      336.325        7.551      861.385
09/29/2014  00:55:00       -6.796      -35.067        8.023       27.664       19.768       18.024      765.324      390.779      324.849        0.141        0.074       35.720       14.010        0.154      336.342        7.580      861.385
09/29/2014  00:56:00      -78.658      -27.875       -3.050       18.220       19.614       12.519      331.951      384.716      156.723        0.392        0.044       83.451        9.770        0.014      336.311        7.527      861.380
09/29/2014  00:57:00      -81.843      -34.796       -3.385       27.779       19.735       13.218      771.653      389.455      174.724        0.463        0.067       88.933       13.379        0.023      336.344        7.584      861.371
09/29/2014  00:58:00      -95.960      -49.419       -6.362       27.009       20.869       13.500      729.470      435.520      182.263        0.652        0.067      107.938        7.940        0.005      336.400        7.676      861.362
09/29/2014  00:59:00     -112.438      -43.366      -11.589       17.783       22.498       12.485      316.235      506.173      155.870        0.782        0.049      120.511        4.093        0.001      336.387        7.653      861.359
09/29/2014  01:00:00     -123.345      -37.292       -2.832       28.977       25.597       14.751      839.691      655.212      217.597        0.916        0.086      128.859        8.662        0.005      336.343        7.581      861.372
09/29/2014  01:01:00     -109.244      -29.122       -1.717       41.896       41.394       20.227     1755.278     1713.434      409.112        0.833        0.194      113.059       15.432        0.019      336.212        7.362      861.396
09/29/2014  01:02:00     -112.221      -10.426       -2.651       46.075       31.471       23.469     2122.903      990.407      550.809        0.819        0.183      112.704       24.072        0.046      336.116        7.201      861.416
09/29/2014  01:03:00     -176.970       22.902      -11.235       24.163       26.113       19.313      583.834      681.878      372.981        1.680        0.082      178.446       12.914        0.005      336.141        7.243      861.426
09/29/2014  01:04:00     -176.555       18.397      -13.762       25.718       28.045       21.227      661.414      786.548      450.574        1.680        0.095      177.511       12.942        0.005      336.199        7.341      861.433
09/29/2014  01:05:00     -163.780       17.517      -10.122       29.376       27.150       15.819      862.971      737.121      250.228        1.454        0.093      164.714       11.237        0.005      336.353        7.597      861.436
09/29/2014  01:06:00     -124.816      -15.112       -7.368       23.245       26.413       14.489      540.329      697.627      209.939        0.865        0.072      125.727        8.913        0.005      336.351        7.594      861.418
09/29/2014  01:07:00      -93.211      -11.760       -9.960       47.700       40.007       24.209     2275.331     1600.545      586.066        0.669        0.223       93.950       22.761        0.059      336.278        7.473      861.399
09/29/2014  01:08:00     -132.395      -24.249      -20.974       21.184       30.494       15.465      448.750      929.873      239.165        1.009        0.081      134.597       14.194        0.011      336.165        7.284      861.379
09/29/2014  01:09:00     -122.453      -25.707       -8.807       25.183       28.123       18.465      634.179      790.917      340.938        0.875        0.088      125.122       18.256        0.021      336.110        7.190      861.363
09/29/2014  01:10:00     -135.204       -6.239      -16.805       19.473       22.240       10.585      379.183      494.632      112.033        0.979        0.049      135.347       10.587        0.006      336.125        7.216      861.351
09/29/2014  01:11:00     -118.066      -10.481       -8.887       59.597       30.246       23.600     3551.827      914.818      556.941        0.958        0.251      118.530       28.720        0.059      336.149        7.259      861.345
09/29/2014  01:12:00     -162.349       24.732      -18.893       41.588       31.054       20.847     1729.588      964.350      434.597        1.523        0.156      164.222       18.736        0.013      336.138        7.238      861.352
09/29/2014  01:13:00     -141.417        7.444      -20.944       50.831       48.129       21.606     2583.810     2316.369      466.829        1.293        0.268      141.612       17.699        0.016      336.111        7.192      861.338
09/29/2014  01:14:00     -143.786      -21.770      -13.537       45.726       42.340       32.499     2090.888     1792.677     1056.204        1.313        0.247      145.424       24.437        0.028      336.155        7.266      861.324
09/29/2014  01:15:00      -78.562      -11.671       -7.622       32.420       45.357       21.512     1051.035     2057.284      462.771        0.497        0.179       79.424       14.987        0.036      336.177        7.303      861.318
09/29/2014  01:16:00     -102.876      -32.136       -9.603       22.761       31.410       15.608      518.042      986.557      243.608        0.673        0.087      107.778        8.362        0.006      336.260        7.442      861.329
09/29/2014  01:17:00      -88.610      -16.116      -16.728       19.866       34.319       13.057      394.670     1177.803      170.495        0.507        0.087       90.063       11.335        0.016      336.317        7.538      861.327
09/29/2014  01:18:00      -81.781      -22.222      -19.376       21.473       27.056       13.483      461.091      732.019      181.794        0.447        0.069       84.746       13.342        0.025      336.427        7.720      861.310
09/29/2014  01:19:00      -78.059      -28.548      -11.543       24.705       23.178       15.004      610.337      537.239      225.125        0.421        0.069       83.115        9.714        0.014      336.457        7.773      861.306
09/29/2014  01:20:00      -94.729      -23.887       -5.954       23.179       22.855       20.514      537.250      522.355      420.829        0.553        0.074       97.694       15.709        0.026      336.499        7.843      861.316
09/29/2014  01:21:00      -69.981      -47.950      -10.033       35.358       27.623       17.100     1250.191      763.026      292.401        0.480        0.115       84.832       15.587        0.034      336.430        7.727      861.312
09/29/2014  01:22:00      -67.693      -44.163       -7.618       29.014       26.945       15.311      841.833      726.030      234.426        0.420        0.090       80.826       10.258        0.016      336.411        7.695      861.307
09/29/2014  01:23:00      -50.965      -13.129        0.094       27.054       21.192       17.575      731.935      449.099      308.885        0.213        0.074       52.629       16.943        0.104      336.372        7.630      861.298
09/29/2014  01:24:00      -55.226      -23.138      -15.961       27.365       19.498       18.705      748.838      380.184      349.865        0.266        0.074       59.877       16.126        0.073      336.467        7.786      861.303
09/29/2014  01:25:00      -21.363       -6.388        5.616       24.710       15.544       15.075      610.565      241.601      227.256        0.080        0.054       22.297       16.645        0.557      336.465        7.784      861.297
09/29/2014  01:26:00      -16.538      -24.911       -2.689       32.679       17.129       10.875     1067.926      293.412      118.273        0.119        0.074       29.901       11.614        0.151      336.470        7.794      861.282
09/29/2014  01:27:00      -16.993      -12.473       -6.533       12.046       17.297       12.402      145.109      299.192      153.801        0.054        0.030       21.079       12.153        0.332      336.448        7.758      861.267
09/29/2014  01:28:00      -32.172      -23.009       -1.572       20.259       15.171       13.086      410.424      230.145      171.255        0.119        0.041       39.554        5.341        0.018      336.438        7.740      861.258
09/29/2014  01:29:00      -45.578      -31.421       -1.207       13.722       17.593        8.122      188.306      309.506       65.971        0.181        0.028       55.359        8.131        0.022      336.383        7.649      861.253
09/29/2014  01:30:00      -21.179      -27.152       -1.515       12.650       10.165       10.073      160.032      103.335      101.474        0.078        0.018       34.436        3.249        0.009      336.499        7.843      861.260
09/29/2014  01:31:00      -17.445      -18.397        0.025       12.659        8.072        9.274      160.246       65.162       86.003        0.048        0.016       25.353        5.657        0.050      336.497        7.838      861.282
09/29/2014  01:32:00      -41.355      -14.547       -3.714        9.584        8.949        8.586       91.855       80.078       73.725        0.109        0.012       43.839        5.408        0.015      336.462        7.781      861.289
09/29/2014  01:33:00      -53.531      -21.122       -5.113       10.255       12.746        8.737      105.159      162.450       76.330        0.184        0.017       57.547        4.359        0.006      336.435        7.733      861.283
09/29/2014  01:34:00      -85.518      -43.531       -3.510       18.558       18.418       10.423      344.405      339.223      108.634        0.501        0.040       95.960        4.925        0.003      336.465        7.786      861.270
09/29/2014  01:35:00     -108.394      -49.782       -2.584       18.149       20.931       17.999      329.375      438.108      323.972        0.766        0.055      119.279       14.013        0.014      336.462        7.778      861.255
09/29/2014  01:36:00      -85.868      -38.545        4.852       29.149       22.111       17.796      849.686      488.891      316.701        0.527        0.083       94.123       16.041        0.029      336.498        7.840      861.241
09/29/2014  01:37:00      -88.896      -43.023       -0.097       23.138       18.151       11.402      535.365      329.444      130.012        0.537        0.050       98.760        9.137        0.009      336.499        7.843      861.236
09/29/2014  01:38:00      -73.532      -38.266       -1.564       30.650       19.795       13.299      939.414      391.843      176.873        0.419        0.075       82.893       14.362        0.030      336.546        7.921      861.234
09/29/2014  01:39:00      -46.283      -23.245        3.679       33.198       23.880       14.658     1102.091      570.256      214.859        0.229        0.094       51.792       15.348        0.088      336.592        7.997      861.240
09/29/2014  01:40:00      -28.719      -21.844        7.698       33.346       15.425       11.955     1111.945      237.935      142.928        0.143        0.075       36.082       10.750        0.089      336.557        7.940      861.239
09/29/2014  01:41:00      -28.739      -24.432        0.188       29.658       11.281       11.434      879.588      127.256      130.745        0.128        0.057       37.721       10.250        0.074      336.573        7.966      861.243
09/29/2014  01:42:00      -11.592      -12.116        9.037       15.561       15.674        8.310      242.138      245.679       69.051        0.046        0.028       16.768        7.578        0.204      336.623        8.049      861.257
09/29/2014  01:43:00        0.584        3.618        3.804       16.094        8.585        8.882      259.002       73.694       78.897        0.022        0.021        3.665        7.572        4.269      336.608        8.023      861.277
09/29/2014  01:44:00        9.546       10.092       10.316        5.805        6.657        9.106       33.698       44.316       82.921        0.023        0.008       13.891        5.622        0.164      336.583        7.983      861.297
09/29/2014  01:45:00        3.871       18.444        5.259       19.846       16.425       13.612      393.866      269.773      185.286        0.062        0.042       18.846       14.654        0.605      336.542        7.916      861.313
09/29/2014  01:46:00       42.322       27.414       24.063       19.764       21.425       17.770      390.598      459.036      315.773        0.214        0.058       50.425        9.130        0.033      336.478        7.806      861.324
09/29/2014  01:47:00       31.040       20.170       20.194       26.477       18.963       14.084      701.009      359.595      198.351        0.152        0.063       37.018       13.637        0.136      336.438        7.740      861.339
09/29/2014  01:48:00       21.616       21.072       20.068       12.241        8.102        9.955      149.844       65.635       99.106        0.081        0.016       30.187        7.441        0.061      336.438        7.741      861.361
09/29/2014  01:49:00       19.177       26.101        4.836       15.249       13.205        8.803      232.530      174.384       77.487        0.078        0.024       32.388        7.261        0.050      336.416        7.702      861.399
09/29/2014  01:50:00        3.317       28.494       -4.072       13.758       14.633       12.065      189.281      214.124      145.573        0.069        0.027       28.686       10.249        0.128      336.331        7.560      861.425
09/29/2014  01:51:00       -2.508       40.097       -8.603        6.729        9.087        4.261       45.277       82.565       18.160        0.092        0.007       40.175        2.863        0.005      336.421        7.710      861.436
09/29/2014  01:52:00       -4.220       18.736       -3.429        9.638       15.177       11.253       92.900      230.351      126.631        0.042        0.022       19.206       10.169        0.280      336.487        7.823      861.423
09/29/2014  01:53:00      -30.206      -16.332        2.304       13.700        6.736        8.166      187.678       45.368       66.676        0.074        0.015       34.339        5.848        0.029      336.518        7.874      861.390
09/29/2014  01:54:00      -42.215      -13.659       -1.479       14.472        9.898        9.923      209.435       97.978       98.463        0.119        0.020       44.370        9.346        0.044      336.565        7.952      861.356
09/29/2014  01:55:00      -29.491      -17.984        3.124       22.949       11.465        8.587      526.675      131.450       73.732        0.097        0.037       34.542       10.048        0.085      336.604        8.019      861.340
09/29/2014  01:56:00      -51.971      -29.942       -4.405       27.609       14.762       12.766      762.244      217.904      162.968        0.238        0.057       59.979       11.715        0.038      336.568        7.959      861.337
09/29/2014  01:57:00      -41.352      -25.595        7.969       34.158       22.449       15.820     1166.742      503.958      250.268        0.217        0.096       48.632       18.693        0.148      336.607        8.023      861.336
09/29/2014  01:58:00      -12.501      -18.104        6.553       21.867       12.773       13.751      478.164      163.139      189.081        0.068        0.042       22.001       13.791        0.393      336.650        8.095      861.324
09/29/2014  01:59:00        6.560      -11.887       10.136       19.693       14.748       11.488      387.800      217.500      131.984        0.051        0.037       13.577        9.680        0.508      336.664        8.119      861.292
09/29/2014  02:00:00       -5.910       -2.693        2.089        9.927        9.253        8.962       98.539       85.618       80.319        0.016        0.013        6.494        5.727        0.778      336.648        8.091      861.252
09/29/2014  02:01:00       -7.296       -9.103       10.314       15.754       16.560        8.928      248.182      274.250       79.709        0.042        0.030       11.666        6.559        0.316      336.667        8.123      861.229
09/29/2014  02:02:00      -38.277        3.292       -1.108       18.443        9.867        8.145      340.161       97.366       66.345        0.099        0.025       38.418        6.591        0.029      336.650        8.095      861.232
09/29/2014  02:03:00        4.458       16.352       11.834        8.455        9.352        7.954       71.484       87.458       63.262        0.032        0.011       16.949        5.147        0.092      336.604        8.020      861.244
09/29/2014  02:04:00       -0.398       29.247       10.536       10.355        9.110        8.021      107.222       82.993       64.332        0.061        0.013       29.249        5.734        0.038      336.581        7.979      861.258
09/29/2014  02:05:00       -6.364       17.520        4.016       12.894        7.383        5.188      166.258       54.504       26.915        0.031        0.012       18.640        4.128        0.049      336.597        8.008      861.275
09/29/2014  02:06:00      -40.274       12.355       -4.297        5.464        7.485        6.097       29.857       56.018       37.170        0.096        0.006       42.127        3.515        0.007      336.611        8.028      861.293
09/29/2014  02:07:00      -18.655       10.695        1.400       12.677        7.481        5.971      160.715       55.971       35.657        0.036        0.013       21.503        3.735        0.030      336.614        8.033      861.312
09/29/2014  02:08:00      -15.726       14.888        0.280       12.560        8.903        9.321      157.756       79.267       86.881        0.040        0.016       21.656        8.547        0.156      336.589        7.993      861.323
09/29/2014  02:09:00      -24.143       17.416       -0.749       12.606       11.897        8.207      158.904      141.530       67.358        0.063        0.018       29.769        6.248        0.044      336.583        7.983      861.331
09/29/2014  02:10:00      -55.667       31.593       -6.106       17.018       16.105       11.155      289.617      259.383      124.431        0.240        0.034       64.007       13.180        0.042      336.486        7.821      861.345
09/29/2014  02:11:00      -59.166       28.216       -7.523       17.004       12.126       12.368      289.126      147.046      152.975        0.247        0.029       65.550       10.087        0.024      336.503        7.850      861.361
09/29/2014  02:12:00      -70.480       30.229       -9.450       17.259       15.194       11.075      297.863      230.865      122.658        0.331        0.033       76.690        6.442        0.007      336.516        7.870      861.383
09/29/2014  02:13:00      -68.687       14.207       -7.680       15.491       16.790       15.081      239.986      281.895      227.445        0.286        0.037       70.141        9.390        0.018      336.541        7.911      861.411
09/29/2014  02:14:00      -67.946       -9.748       -5.307       21.749       18.486       10.271      473.025      341.717      105.499        0.283        0.046       68.642        3.077        0.002      336.512        7.865      861.441
09/29/2014  02:15:00     -105.345       -9.585       -8.266       31.995       20.939       20.687     1023.705      438.443      427.951        0.657        0.095      105.780       21.476        0.041      336.396        7.670      861.464
09/29/2014  02:16:00     -122.389        5.796      -14.627       21.477       16.305       14.343      461.277      265.837      205.723        0.808        0.047      122.526       12.104        0.010      336.445        7.749      861.485
09/29/2014  02:17:00     -106.279        3.135      -12.834       26.101       19.066       14.369      681.283      363.515      206.470        0.636        0.063      106.325       15.221        0.020      336.452        7.764      861.489
09/29/2014  02:18:00      -55.744      -10.443        1.190       29.691       23.544       15.079      881.541      554.308      227.368        0.244        0.083       56.714       15.165        0.072      336.435        7.734      861.486
09/29/2014  02:19:00      -57.618       -8.692       -2.311       19.928       12.648       13.126      397.143      159.967      172.298        0.206        0.036       58.270       11.674        0.040      336.482        7.813      861.489
09/29/2014  02:20:00      -76.109      -14.236       -9.252       18.377       22.293       10.565      337.705      496.985      111.621        0.351        0.047       77.428        8.653        0.012      336.493        7.832      861.488
09/29/2014  02:21:00      -55.957      -17.153       -5.717       24.499       15.989       12.266      600.189      255.638      150.462        0.223        0.050       58.527        9.622        0.027      336.471        7.795      861.492
09/29/2014  02:22:00      -84.091      -38.373       -7.695       17.278       24.100       11.040      298.523      580.828      121.892        0.480        0.050       92.433        9.155        0.010      336.475        7.800      861.494
09/29/2014  02:23:00      -88.633      -34.110       -6.606       21.483       15.108       11.234      461.519      228.263      126.193        0.494        0.041       94.971        9.887        0.011      336.450        7.760      861.499
09/29/2014  02:24:00      -58.307      -37.525       -0.773       30.836       22.859       16.701      950.861      522.517      278.910        0.328        0.088       69.338       10.193        0.022      336.511        7.863      861.499
09/29/2014  02:25:00      -99.235      -10.456       -8.596       25.512       13.816       12.183      650.878      190.884      148.414        0.551        0.050       99.784       12.483        0.016      336.445        7.750      861.503
09/29/2014  02:26:00      -71.424       -9.825       -7.330       26.386       18.310       11.431      696.243      335.249      130.667        0.321        0.058       72.097       10.698        0.022      336.407        7.687      861.497
09/29/2014  02:27:00      -37.456      -29.874       -2.222       15.510       14.737        9.605      240.548      217.172       92.249        0.143        0.027       47.910        7.381        0.024      336.481        7.811      861.484
09/29/2014  02:28:00      -16.708      -23.445        0.813        9.209       10.347        9.578       84.798      107.059       91.731        0.056        0.014       28.789        7.092        0.061      336.496        7.836      861.466
09/29/2014  02:29:00        0.173      -12.473       -2.929       12.389       11.270        7.328      153.493      127.014       53.701        0.025        0.017       12.475        7.788        0.390      336.528        7.891      861.447
09/29/2014  02:30:00       -4.037      -15.511       -2.988        5.835        8.540        9.462       34.048       72.924       89.524        0.023        0.010       16.028        5.719        0.127      336.562        7.949      861.453
09/29/2014  02:31:00       -5.426       -4.006        2.804        4.128        4.289        4.923       17.043       18.398       24.233        0.006        0.003        6.745        2.925        0.188      336.535        7.904      861.468
09/29/2014  02:32:00      -24.012       -2.720       -3.616        9.445        4.219        4.650       89.211       17.800       21.625        0.036        0.006       24.165        5.112        0.045      336.636        8.072      861.492
09/29/2014  02:33:00      -54.004       -6.351       -5.784        9.079       13.807        7.323       82.420      190.624       53.628        0.166        0.016       54.376        4.416        0.007      336.553        7.934      861.516
09/29/2014  02:34:00      -57.620       -1.234       -6.600       13.346       15.099        9.062      178.122      227.969       82.121        0.193        0.024       57.634        6.574        0.013      336.411        7.694      861.529
09/29/2014  02:35:00      -78.501      -21.074      -14.997       18.782       11.568       10.007      352.765      133.816      100.133        0.371        0.029       81.280        7.528        0.009      336.399        7.673      861.532
09/29/2014  02:36:00      -98.565      -23.172       -7.141       23.434       15.237       11.275      549.169      232.165      127.132        0.561        0.045      101.252       10.573        0.011      336.409        7.691      861.512
09/29/2014  02:37:00      -75.254      -16.265        0.708       25.097       26.995       15.740      629.861      728.713      247.744        0.377        0.080       76.992       16.118        0.044      336.370        7.625      861.494
09/29/2014  02:38:00      -72.151      -31.307       -2.034       20.474       18.446       13.446      419.174      340.238      180.792        0.356        0.047       78.651       11.924        0.023      336.372        7.630      861.463
09/29/2014  02:39:00      -48.529      -41.352       -2.233       27.764       17.758       15.807      770.828      315.348      249.873        0.270        0.067       63.757       15.167        0.057      336.399        7.676      861.421
09/29/2014  02:40:00      -15.621      -15.936       -0.427       26.412       14.407        6.806      697.583      207.556       46.318        0.072        0.048       22.315        6.021        0.073      336.400        7.677      861.382
09/29/2014  02:41:00        8.986      -16.377        2.087       10.245       11.789       10.031      104.970      138.973      100.613        0.035        0.017       18.680        9.343        0.250      336.445        7.752      861.334
09/29/2014  02:42:00        1.218       -3.044        6.325        5.539        6.361        7.282       30.678       40.456       53.033        0.009        0.006        3.279        5.456        2.769      336.405        7.685      861.295
09/29/2014  02:43:00       -4.040      -22.648        0.175       11.336       16.495       10.503      128.500      272.086      110.321        0.052        0.026       23.006        8.863        0.148      336.537        7.908      861.271
09/29/2014  02:44:00      -10.088       -8.965        3.924        6.564        8.964        6.928       43.086       80.353       47.998        0.018        0.009       13.496        5.405        0.160      336.517        7.872      861.263
09/29/2014  02:45:00      -12.390      -17.256        1.718       12.682        8.376        8.904      160.827       70.163       79.274        0.038        0.016       21.244        7.423        0.122      336.580        7.977      861.266
09/29/2014  02:46:00      -20.718       -8.237       -4.047        8.685        5.921        5.738       75.432       35.059       32.921        0.033        0.007       22.296        3.434        0.024      336.589        7.993      861.274
09/29/2014  02:47:00      -11.498       -8.741       -1.019        7.775        7.315        5.687       60.444       53.505       32.338        0.018        0.007       14.443        3.875        0.072      336.497        7.839      861.289
09/29/2014  02:48:00      -36.980      -13.707       -5.887       17.116        9.281        6.906      292.970       86.128       47.691        0.101        0.021       39.438        6.141        0.024      336.553        7.933      861.311
09/29/2014  02:49:00      -12.350      -10.895        5.196       23.662       14.038       11.150      559.885      197.066      124.330        0.059        0.044       16.469        5.808        0.124      336.434        7.735      861.331
09/29/2014  02:50:00      -44.829      -36.782        4.028       38.609       27.311       16.839     1490.686      745.913      283.566        0.295        0.126       57.987       14.452        0.062      336.427        7.721      861.336
09/29/2014  02:51:00      -20.972      -16.315        8.431       35.697       26.180       17.696     1274.266      685.397      313.156        0.152        0.114       26.571        8.821        0.110      336.437        7.737      861.343
09/29/2014  02:52:00      -62.667      -57.746       -1.243       40.873       27.952       22.905     1670.613      781.306      524.636        0.512        0.149       85.216       19.297        0.051      336.389        7.657      861.343
09/29/2014  02:53:00      -77.547      -58.124       -0.615       32.986       44.867       21.224     1088.058     2013.057      450.451        0.647        0.178       96.913       20.850        0.046      336.375        7.634      861.336
09/29/2014  02:54:00      -80.012      -59.604       -0.742       31.298       37.475       21.865      979.548     1404.385      478.067        0.641        0.143       99.772       18.852        0.036      336.327        7.554      861.333
09/29/2014  02:55:00      -52.516      -44.698        2.216       28.692       34.598       19.254      823.246     1197.027      370.731        0.358        0.120       68.962       13.109        0.036      336.378        7.640      861.330
09/29/2014  02:56:00      -21.715      -47.909       -5.178       25.631       35.024       20.071      656.924     1226.690      402.828        0.254        0.114       52.601        7.324        0.019      336.391        7.661      861.326
09/29/2014  02:57:00       16.051        2.427       17.122       14.203       12.231       12.338      201.739      149.606      152.225        0.053        0.025       16.234        9.573        0.348      336.359        7.610      861.325
09/29/2014  02:58:00       14.019        8.533        8.879        9.177        6.505        9.391       84.218       42.313       88.198        0.028        0.011       16.412        3.545        0.047      336.351        7.594      861.323
09/29/2014  02:59:00       -3.042       -0.090       -1.069        6.235        2.888        5.845       38.880        8.339       34.161        0.005        0.004        3.043        5.283        3.013      336.318        7.540      861.321
09/29/2014  03:00:00      -10.964       -3.088       -1.394       10.645        8.477        4.833      113.315       71.854       23.356        0.017        0.010       11.391        3.256        0.082      336.419        7.706      861.331
09/29/2014  03:01:00      -47.026       -0.174       -5.114       16.233       11.654        9.380      263.509      135.806       87.980        0.136        0.024       47.027        7.939        0.029      336.377        7.639      861.331
09/29/2014  03:02:00      -48.667        0.339       -6.374       15.932       11.868       10.837      253.835      140.849      117.440        0.146        0.026       48.668        8.498        0.030      336.286        7.486      861.329
09/29/2014  03:03:00      -66.960      -10.003       -9.334       15.060       16.901       10.849      226.809      285.635      117.692        0.265        0.032       67.703        8.722        0.017      336.228        7.389      861.317
09/29/2014  03:04:00      -86.341      -11.288       -6.342       19.130       14.443       11.670      365.971      208.591      136.190        0.417        0.036       87.076       11.203        0.017      336.171        7.292      861.299
09/29/2014  03:05:00      -54.778       -7.407       -2.058       28.517       21.810       17.418      813.192      475.662      303.381        0.233        0.080       55.276       17.907        0.105      336.151        7.260      861.277
09/29/2014  03:06:00     -108.050       -0.331      -14.063       28.609       20.762       21.866      818.466      431.045      478.106        0.680        0.086      108.051       18.454        0.029      336.112        7.193      861.268
09/29/2014  03:07:00      -71.416        7.802      -11.888       34.641       25.864       15.120     1200.012      668.953      228.614        0.370        0.105       71.841       13.928        0.038      336.099        7.173      861.265
09/29/2014  03:08:00      -82.895       32.140       -8.421       34.409       22.036       17.843     1183.953      485.579      318.361        0.498        0.099       88.907       13.500        0.023      336.131        7.227      861.262
09/29/2014  03:09:00      -85.886       15.862       -5.544       23.128       28.834       14.750      534.897      831.404      217.559        0.462        0.079       87.338        7.527        0.007      336.167        7.287      861.274
09/29/2014  03:10:00      -74.385      -14.429       -9.433       24.005       22.273       18.342      576.263      496.085      336.418        0.362        0.070       75.772       13.582        0.032      336.166        7.286      861.282
09/29/2014  03:11:00      -80.399      -20.878       -3.632       25.471       28.570       16.142      648.772      816.253      260.555        0.432        0.086       83.066       10.178        0.015      336.190        7.325      861.282
09/29/2014  03:12:00      -91.903      -24.266       -6.790       19.361       19.495       17.638      374.864      380.038      311.094        0.507        0.053       95.053       11.176        0.014      336.186        7.318      861.280
09/29/2014  03:13:00     -101.301       -9.141       -7.839       21.592       20.016       17.036      466.226      400.641      290.232        0.578        0.058      101.712       11.165        0.012      336.113        7.196      861.272
09/29/2014  03:14:00     -102.381       -6.948      -11.145       12.418       11.885       10.889      154.218      141.252      118.571        0.553        0.021      102.617        3.856        0.001      336.090        7.157      861.267
09/29/2014  03:15:00      -38.850       -8.874       -6.969       24.904       14.000        9.199      620.184      196.001       84.624        0.127        0.045       39.851       10.676        0.072      336.090        7.158      861.261
09/29/2014  03:16:00      -21.714       -8.389      -13.016       15.071       16.005       10.405      227.128      256.164      108.261        0.065        0.030       23.278        5.983        0.066      336.174        7.296      861.256
09/29/2014  03:17:00      -17.011      -22.860       -6.436       15.909       20.181       13.598      253.086      407.279      184.915        0.085        0.042       28.495       10.049        0.124      336.233        7.398      861.242
09/29/2014  03:18:00       -0.639       -4.141       -1.402        7.464        8.634        8.210       55.714       74.545       67.412        0.011        0.010        4.190        4.699        1.258      336.253        7.432      861.228
09/29/2014  03:19:00       35.037       13.777        1.161       10.828       12.000        9.846      117.245      144.010       96.938        0.089        0.018       37.648        6.710        0.032      336.433        7.731      861.208
09/29/2014  03:20:00       50.918       49.205        6.098       13.217       11.483       13.801      174.689      131.851      190.469        0.277        0.025       70.808        4.087        0.003      336.440        7.745      861.175
09/29/2014  03:21:00       64.096       42.932        4.818       10.242       11.370       10.195      104.896      129.279      103.937        0.316        0.017       77.145        6.570        0.007      336.323        7.548      861.155
09/29/2014  03:22:00       77.331       44.337       -2.207       12.625       11.562        8.698      159.390      133.676       75.648        0.416        0.018       89.140        2.373        0.001      336.229        7.390      861.149
09/29/2014  03:23:00       74.329       24.351        4.210       26.409       19.487       12.561      697.440      379.732      157.780        0.369        0.062       78.216        9.271        0.014      336.266        7.452      861.146
09/29/2014  03:24:00       66.798       23.871        8.868       20.333       14.194       18.803      413.421      201.456      353.539        0.304        0.048       70.935       11.699        0.027      336.247        7.421      861.140
09/29/2014  03:25:00       75.996       25.115        5.394       16.337       11.635       12.438      266.895      135.374      154.705        0.350        0.028       80.039        8.631        0.012      336.308        7.522      861.133
09/29/2014  03:26:00       60.018       26.792        3.077       14.813       15.864       13.151      219.423      251.654      172.960        0.249        0.032       65.726        6.744        0.011      336.355        7.600      861.131
09/29/2014  03:27:00       43.414       13.721       -0.806       12.308       15.131       10.785      151.486      228.934      116.309        0.129        0.025       45.531        6.729        0.022      336.392        7.662      861.135
09/29/2014  03:28:00       10.171      -16.233       -0.180        5.945       10.614        5.938       35.344      112.654       35.259        0.028        0.009       19.156        3.705        0.037      336.397        7.672      861.141
09/29/2014  03:29:00        7.254        6.671        9.775       11.057        9.771        6.027      122.262       95.480       36.326        0.022        0.013        9.855        4.444        0.203      336.452        7.762      861.147
09/29/2014  03:30:00        4.539        6.093       13.754        8.989        7.183        6.270       80.808       51.597       39.310        0.021        0.009        7.598        2.139        0.079      336.429        7.724      861.148
09/29/2014  03:31:00        4.309        5.234        7.972        7.067        5.584        9.012       49.945       31.187       81.217        0.014        0.008        6.780        7.431        1.201      336.396        7.669      861.130
09/29/2014  03:32:00        1.207       -5.974       -1.597        6.797        5.819        4.528       46.201       33.860       20.498        0.007        0.005        6.095        3.326        0.298      336.437        7.737      861.107
09/29/2014  03:33:00       20.003       10.643        7.312       13.564        9.304        8.840      183.994       86.555       78.148        0.046        0.017       22.658        5.743        0.064      336.447        7.756      861.090
09/29/2014  03:34:00       49.470       15.262       19.898       16.374       16.053       12.479      268.105      257.687      155.735        0.188        0.034       51.770        4.109        0.006      336.417        7.705      861.073
09/29/2014  03:35:00       40.277       32.888       29.341       14.289       17.112       14.475      204.177      292.833      209.514        0.214        0.035       51.998        8.537        0.027      336.369        7.623      861.057
09/29/2014  03:36:00       51.632       30.785       22.865       23.530       14.948       17.305      553.659      223.442      299.472        0.261        0.054       60.113        9.376        0.024      336.349        7.590      861.048
09/29/2014  03:37:00        8.988       19.411       22.599       12.227       12.314        6.968      149.489      151.632       48.556        0.066        0.017       21.391        6.457        0.091      336.321        7.543      861.047
09/29/2014  03:38:00       -7.570        2.893       15.046        6.741       10.572        9.242       45.447      111.773       85.412        0.027        0.012        8.104        7.137        0.776      336.321        7.543      861.051
09/29/2014  03:39:00       -9.918      -20.815        0.387       22.537       15.240       12.403      507.926      232.253      153.829        0.071        0.045       23.057        9.511        0.170      336.423        7.711      861.060
09/29/2014  03:40:00      -43.989      -28.915        8.486       30.317       26.247       17.683      919.125      688.920      312.692        0.238        0.096       52.641       10.948        0.043      336.356        7.603      861.074
09/29/2014  03:41:00      -86.885      -66.975        8.476       45.630       36.673       24.190     2082.073     1344.889      585.146        0.806        0.201      109.703       20.165        0.034      336.278        7.471      861.085
09/29/2014  03:42:00      -70.509      -60.375        2.355       52.192       35.739       27.342     2723.980     1277.260      747.608        0.668        0.237       92.827       31.272        0.113      336.264        7.448      861.091
09/29/2014  03:43:00      -79.034      -24.960        6.600       54.446       36.385       26.771     2964.397     1323.872      716.701        0.596        0.250       82.882       26.456        0.102      336.213        7.363      861.104
09/29/2014  03:44:00      -81.257      -57.423        4.116       43.333       33.722       22.056     1877.788     1137.156      486.467        0.671        0.175       99.499       15.221        0.023      336.266        7.451      861.093
09/29/2014  03:45:00     -103.651      -78.432      -13.656       29.149       29.439       16.351      849.645      866.682      267.354        0.953        0.099      129.981       17.563        0.018      336.214        7.364      861.071
09/29/2014  03:46:00      -48.394      -52.249       -3.503       21.547       28.597       11.834      464.280      817.761      140.038        0.325        0.071       71.217       10.169        0.020      336.194        7.332      861.047
09/29/2014  03:47:00      -59.029      -31.132        6.496       31.242       25.200       17.546      976.044      635.017      307.875        0.321        0.096       66.736       18.996        0.081      336.191        7.326      861.021
09/29/2014  03:48:00      -65.833      -29.185        1.874       27.365       19.060       15.776      748.820      363.270      248.882        0.327        0.068       72.013       13.027        0.033      336.137        7.235      860.998
09/29/2014  03:49:00      -65.260      -27.105        2.545       25.792       19.484       15.288      665.232      379.625      233.729        0.314        0.064       70.665       10.986        0.024      336.145        7.249      860.982
09/29/2014  03:50:00      -36.239      -25.809        0.896       24.621       16.472       13.485      606.205      271.323      181.835        0.152        0.053       44.490       14.188        0.102      336.153        7.264      860.966
09/29/2014  03:51:00      -52.686      -22.757        4.031       27.352       12.088       12.221      748.109      146.108      149.348        0.218        0.052       57.390       12.182        0.045      336.107        7.186      860.962
09/29/2014  03:52:00      -76.501      -30.184       -3.935       25.708       26.538       10.597      660.913      704.274      112.304        0.413        0.074       82.240        4.966        0.004      336.054        7.096      860.952
09/29/2014  03:53:00      -62.735      -27.032        0.147       22.982       20.474       13.013      528.193      419.188      169.336        0.289        0.056       68.311        6.393        0.009      336.091        7.159      860.933
09/29/2014  03:54:00      -62.635      -28.868        0.634       22.707       16.956       16.766      515.588      287.520      281.113        0.292        0.054       68.968       12.611        0.033      336.132        7.228      860.909
09/29/2014  03:55:00      -52.048      -28.345       -1.462       22.788       16.340        9.078      519.311      267.011       82.418        0.219        0.043       59.265        7.477        0.016      336.134        7.233      860.890
09/29/2014  03:56:00      -48.170      -29.408        2.324       23.486       17.065       12.740      551.571      291.206      162.297        0.210        0.050       56.438       11.892        0.044      336.183        7.313      860.873
09/29/2014  03:57:00      -44.643      -16.091       -2.757       17.422       18.912        9.862      303.511      357.658       97.261        0.151        0.038       47.454        5.365        0.013      336.145        7.249      860.864
09/29/2014  03:58:00      -19.590      -12.717        5.890       19.215       12.010       11.205      369.232      144.249      125.554        0.061        0.032       23.355       12.370        0.281      336.148        7.254      860.863
09/29/2014  03:59:00      -44.861      -20.320        2.484       24.695       14.414       10.576      609.857      207.751      111.853        0.168        0.046       49.249       11.626        0.056      336.148        7.255      860.855
09/29/2014  04:00:00      -29.388      -20.530        4.899       18.649       16.947       10.581      347.803      287.204      111.963        0.103        0.037       35.849        8.872        0.061      336.189        7.324      860.839
09/29/2014  04:01:00      -24.694      -19.986        4.970       30.431       14.273       13.367      926.048      203.721      178.671        0.117        0.065       31.768       13.505        0.181      336.180        7.308      860.828
09/29/2014  04:02:00      -42.985      -45.870       12.825       43.107       36.781       24.296     1858.256     1352.811      590.273        0.396        0.190       62.863       24.543        0.152      336.154        7.264      860.824
09/29/2014  04:03:00      -48.850      -49.717       12.376       42.243       42.225       27.096     1784.449     1782.959      734.189        0.466        0.215       69.700       26.465        0.144      336.133        7.229      860.832
09/29/2014  04:04:00      -82.542      -80.388        1.405       37.757       35.434       20.364     1425.582     1255.556      414.703        0.819        0.155      115.219       16.424        0.020      336.164        7.281      860.844
09/29/2014  04:05:00     -103.873      -68.954       -7.140       39.241       25.039       21.558     1539.861      626.958      464.740        0.911        0.132      124.676       20.940        0.028      336.162        7.279      860.844
09/29/2014  04:06:00      -50.470      -75.811       -4.422       40.935       23.801       21.974     1675.698      566.501      482.844        0.552        0.136       91.075       23.848        0.069      336.186        7.319      860.851
09/29/2014  04:07:00      -35.132      -52.864       -1.202       27.036       38.954       14.117      730.929     1517.381      199.297        0.324        0.122       63.473       17.501        0.076      336.165        7.285      860.847
09/29/2014  04:08:00      -49.408      -33.965        6.099       20.229       31.754       14.479      409.215     1008.306      209.653        0.263        0.081       59.956       12.849        0.046      336.203        7.348      860.846
09/29/2014  04:09:00       -3.128       -3.361        4.534       11.485       11.220        9.119      131.902      125.890       83.156        0.019        0.017        4.591        5.416        1.392      336.159        7.274      860.840
09/29/2014  04:10:00      -10.984      -16.021       -3.379       12.916        9.718        9.390      166.813       94.447       88.164        0.037        0.017       19.424        6.160        0.101      336.220        7.376      860.844
09/29/2014  04:11:00      -11.733       -0.772        2.493        9.892        5.782        7.869       97.849       33.434       61.919        0.017        0.010       11.758        6.985        0.353      336.213        7.364      860.851
09/29/2014  04:12:00      -39.285       -5.828       -6.214       18.818       22.640        9.497      354.101      512.573       90.188        0.129        0.048       39.715       10.911        0.075      336.210        7.358      860.861
09/29/2014  04:13:00      -87.347      -39.264        0.862       23.445       24.370       16.933      549.684      593.880      286.739        0.530        0.072       95.766        9.373        0.010      336.220        7.376      860.870
09/29/2014  04:14:00      -81.925      -41.831       -0.014       34.460       21.668       17.393     1187.465      469.487      302.511        0.521        0.098       91.986       16.176        0.031      336.189        7.322      860.880
09/29/2014  04:15:00     -115.937      -52.887      -10.067       20.042       15.596       12.822      401.679      243.246      164.394        0.857        0.040      127.430        2.659        0.000      336.076        7.135      860.886
09/29/2014  04:16:00      -93.887      -34.778       -4.437       20.801       19.874       12.987      432.679      394.964      168.651        0.552        0.050      100.122       11.421        0.013      336.098        7.171      860.874
09/29/2014  04:17:00      -66.996       -7.027       -4.958       31.701       18.852       14.349     1004.935      355.393      205.888        0.306        0.078       67.364       17.683        0.069      336.060        7.109      860.849
09/29/2014  04:18:00      -54.433      -15.971        0.378       23.313       16.338       11.593      543.473      266.937      134.391        0.208        0.047       56.727       12.788        0.051      336.040        7.076      860.827
09/29/2014  04:19:00      -72.168       -9.867       -7.892       16.112       12.777       10.952      259.605      163.247      119.946        0.296        0.027       72.839        4.897        0.005      336.029        7.058      860.800
09/29/2014  04:20:00      -58.840        1.729       -7.304       24.976       17.884       13.262      623.789      319.820      175.872        0.232        0.056       58.865       11.571        0.039      336.037        7.071      860.786
09/29/2014  04:21:00      -66.864       13.357       -4.708       22.533       12.366        7.898      507.725      152.907       62.377        0.270        0.036       68.185        8.333        0.015      336.033        7.062      860.787
09/29/2014  04:22:00      -80.229       27.410      -11.750       17.168       16.949       12.464      294.727      287.269      155.346        0.403        0.037       84.782        7.639        0.008      336.025        7.049      860.803
09/29/2014  04:23:00      -96.677        6.447      -11.337       21.913       24.434       12.485      480.169      597.019      155.882        0.537        0.062       96.891        7.618        0.006      336.048        7.088      860.816
09/29/2014  04:24:00      -93.760       -5.397      -12.605       30.962       25.379       15.748      958.644      644.073      248.014        0.541        0.093       93.915       10.757        0.013      336.014        7.032      860.823
09/29/2014  04:25:00     -121.955       19.195      -11.860       26.496       22.990       20.784      702.012      528.522      431.960        0.852        0.083      123.456       12.932        0.011      335.957        6.935      860.810
09/29/2014  04:26:00     -116.505        5.806      -15.093       16.719       14.629       11.747      279.528      214.005      137.990        0.723        0.032      116.650        9.274        0.006      335.930        6.891      860.780
09/29/2014  04:27:00      -68.493        1.672       -5.387       24.356       10.628        8.565      593.206      112.955       73.359        0.275        0.039       68.513       12.033        0.031      335.928        6.887      860.731
09/29/2014  04:28:00      -44.230      -10.205       -8.002       11.479        9.670        7.329      131.768       93.514       53.719        0.120        0.014       45.392        4.786        0.011      336.003        7.013      860.695
09/29/2014  04:29:00      -19.841       -9.101       -6.913       11.926        4.745        4.664      142.238       22.515       21.749        0.036        0.009       21.828        4.626        0.045      336.129        7.217      860.665
09/29/2014  04:30:00      -12.871       11.261       -3.458        5.495        6.309        3.314       30.197       39.805       10.983        0.019        0.004       17.102        2.193        0.016      336.111        7.191      860.651
09/29/2014  04:31:00       15.352       23.665       13.382       10.226        6.900        9.628      104.577       47.615       92.706        0.061        0.012       28.208        4.127        0.021      336.067        7.119      860.654
09/29/2014  04:32:00       49.098       36.469        2.798       11.369        8.319        6.111      129.259       69.206       37.347        0.199        0.012       61.160        3.938        0.004      336.131        7.228      860.651
09/29/2014  04:33:00       80.349       47.463        2.732       15.488        9.135       10.589      239.871       83.456      112.135        0.458        0.022       93.321        3.984        0.002      336.113        7.197      860.653
09/29/2014  04:34:00       85.238       52.411       21.880       14.543       13.922       19.853      211.503      193.823      394.140        0.565        0.040      100.062       10.314        0.011      336.113        7.197      860.665
09/29/2014  04:35:00       74.123       41.302        8.045       13.103       14.961       15.083      171.676      223.829      227.505        0.394        0.031       84.853        6.062        0.005      336.100        7.173      860.696
09/29/2014  04:36:00       16.871       37.255       -2.810       29.176       23.959       17.080      851.236      574.038      291.732        0.170        0.086       40.897       16.343        0.160      336.043        7.079      860.757
09/29/2014  04:37:00      -46.279       65.878      -13.351       38.126       34.838       13.417     1453.586     1213.716      180.016        0.475        0.142       80.509       12.686        0.025      336.115        7.199      860.856
09/29/2014  04:38:00     -116.741       38.276      -17.953       36.503       22.162       19.374     1332.457      491.138      375.343        0.881        0.110      122.856       13.180        0.012      336.070        7.124      860.969
09/29/2014  04:39:00     -121.341       39.468      -23.726       27.061       33.654       23.649      732.282     1132.561      559.269        0.963        0.121      127.598       10.517        0.007      336.168        7.287      861.072
09/29/2014  04:40:00      -97.686       18.812      -25.341       36.159       40.644       24.300     1307.463     1651.915      590.484        0.704        0.177       99.481       23.113        0.054      336.190        7.326      861.137
09/29/2014  04:41:00     -111.261      -14.655      -18.286       37.716       37.258       21.211     1422.502     1388.138      449.917        0.809        0.163      112.222       16.876        0.023      336.108        7.187      861.159
09/29/2014  04:42:00      -80.132      -12.175       -7.663       20.030       23.828       16.020      401.214      567.775      256.643        0.393        0.061       81.052        9.206        0.013      336.185        7.315      861.150
09/29/2014  04:43:00      -24.395      -11.903       -1.925       28.864       20.378       14.274      833.106      415.265      203.758        0.110        0.073       27.144        5.127        0.036      336.223        7.380      861.126
09/29/2014  04:44:00      -29.818      -17.907       -5.735       27.152       13.227       14.888      737.236      174.948      221.654        0.119        0.057       34.782        5.938        0.029      336.233        7.396      861.118
09/29/2014  04:45:00       -8.222       -6.837       12.322       26.669       10.879       13.951      711.214      118.352      194.620        0.065        0.051       10.693       11.599        1.177      336.253        7.430      861.114
09/29/2014  04:46:00      -42.946      -20.606       -4.853        9.041       15.592        8.525       81.733      243.100       72.681        0.134        0.020       47.634        6.559        0.019      336.264        7.448      861.116
09/29/2014  04:47:00      -45.435       -9.378      -15.013       11.324        8.824       11.439      128.234       77.865      130.857        0.136        0.017       46.393        5.250        0.013      336.272        7.463      861.109
09/29/2014  04:48:00      -12.674      -19.274       18.363       14.276       16.939       15.787      203.804      286.932      249.232        0.080        0.037       23.068        8.873        0.148      336.431        7.727      861.093
09/29/2014  04:49:00      -31.716       -2.462       -0.589       13.515        7.344        6.108      182.663       53.938       37.304        0.064        0.014       31.811        4.564        0.021      336.255        7.434      861.064
09/29/2014  04:50:00        6.161        1.690        6.386        9.047        4.331        6.231       81.840       18.754       38.826        0.011        0.007        6.388        3.844        0.362      336.274        7.464      861.040
09/29/2014  04:51:00        8.435       26.368        7.524        8.118       14.686       12.254       65.909      215.675      150.170        0.063        0.022       27.684       11.745        0.180      336.307        7.520      861.015
09/29/2014  04:52:00       17.916       38.809       -4.435        9.620       15.664        7.008       92.536      245.355       49.105        0.112        0.019       42.745        4.479        0.011      336.340        7.575      860.995
09/29/2014  04:53:00       18.766       32.756       -2.898       12.629       25.333       10.886      159.501      641.759      118.514        0.118        0.046       37.751       14.750        0.153      336.368        7.623      860.978
09/29/2014  04:54:00       48.182       26.057       -0.381       24.007       10.501        9.976      576.351      110.266       99.526        0.189        0.039       54.776        4.067        0.006      336.365        7.617      860.974
09/29/2014  04:55:00       42.874       47.684       32.226       26.945       17.243       30.103      726.008      297.307      906.184        0.354        0.096       64.125       23.683        0.136      336.380        7.642      860.949
09/29/2014  04:56:00        6.080       88.882       78.554       14.552       19.105       15.637      211.774      364.992      244.508        0.746        0.041       89.089       12.172        0.019      336.387        7.653      860.939
09/29/2014  04:57:00       32.065       41.949       54.006       34.889       27.908       21.715     1217.214      778.882      471.558        0.409        0.123       52.800       17.556        0.111      336.457        7.772      860.929
09/29/2014  04:58:00        9.300       24.744       53.697       27.381       40.311       26.909      749.696     1625.009      724.076        0.334        0.155       26.434       23.892        0.817      336.439        7.741      860.925
09/29/2014  04:59:00       10.254      -26.431       32.901       21.917       39.793       25.268      480.345     1583.486      638.485        0.229        0.135       28.351       20.751        0.536      336.475        7.802      860.941
09/29/2014  05:00:00       10.476      -87.119       -6.284       28.619       26.434       21.825      819.051      698.771      476.317        0.487        0.100       87.746       14.742        0.028      336.549        7.925      860.958
09/29/2014  05:01:00       37.619      -91.071      -10.304       29.947       30.462       20.843      896.817      927.909      434.417        0.604        0.113       98.535       15.463        0.025      336.623        8.051      860.961
09/29/2014  05:02:00       -6.115      -29.299       -6.761       38.117       31.204       20.751     1452.932      973.675      430.589        0.190        0.143       29.931        9.161        0.094      336.708        8.193      860.948
09/29/2014  05:03:00      -63.056      -22.926       10.092       38.893       33.044       23.263     1512.674     1091.893      541.156        0.387        0.157       67.094       12.950        0.037      336.628        8.060      860.927
09/29/2014  05:04:00      -23.806       -1.828       15.932       44.275       32.838       19.200     1960.232     1078.306      368.631        0.211        0.170       23.876       25.923        1.179      336.592        7.997      860.890
09/29/2014  05:05:00      -11.714       38.175       46.797       16.305       24.064       23.688      265.865      579.097      561.121        0.260        0.070       39.931       13.216        0.110      336.604        8.018      860.834
09/29/2014  05:06:00        1.993       44.058       52.156       21.622       23.782       15.035      467.509      565.572      226.062        0.296        0.063       44.103        9.742        0.049      336.601        8.012      860.789
09/29/2014  05:07:00       46.077       33.371       27.481       46.249       30.470       30.921     2139.010      928.404      956.125        0.401        0.201       56.892       30.320        0.284      336.541        7.913      860.765
09/29/2014  05:08:00        7.341      -24.227        6.923       21.562       17.467       19.833      464.930      305.100      393.332        0.093        0.058       25.314       11.846        0.219      336.602        8.017      860.748
09/29/2014  05:09:00       39.292      -39.296        0.724       29.836       32.082       21.554      890.163     1029.244      464.594        0.274        0.119       55.570       24.462        0.194      336.547        7.922      860.728
09/29/2014  05:10:00       -3.103       38.691       50.652       13.124       26.485       19.429      172.238      701.479      377.489        0.266        0.063       38.815       17.208        0.197      336.498        7.840      860.701
09/29/2014  05:11:00       54.777       11.913       36.724       19.732       16.067       24.411      389.338      258.161      595.875        0.287        0.062       56.058        8.638        0.024      336.513        7.866      860.688
09/29/2014  05:12:00       80.079       60.906        9.896       37.399       22.091       24.975     1398.648      488.021      623.757        0.636        0.126      100.609       12.629        0.016      336.708        8.193      860.668
09/29/2014  05:13:00       78.527       63.960       39.038       44.278       28.921       34.038     1960.544      836.450     1158.613        0.787        0.198      101.279       30.374        0.090      336.647        8.089      860.656
09/29/2014  05:14:00       31.060       35.933       42.196       42.532       27.354       15.021     1808.936      748.215      225.640        0.341        0.139       47.497       12.056        0.064      336.670        8.128      860.686
09/29/2014  05:15:00        6.243       -9.318       12.680       13.253       16.259       16.495      175.640      264.357      272.088        0.050        0.036       11.216       12.404        1.223      336.629        8.059      860.739
09/29/2014  05:16:00      -27.185       23.349        3.776       27.676       28.844       22.393      765.978      831.991      501.455        0.170        0.105       35.836       10.826        0.091      336.568        7.958      860.794
09/29/2014  05:17:00      -20.172       22.227        8.025       29.378       31.350       20.518      863.041      982.848      420.993        0.162        0.113       30.016       18.829        0.393      336.515        7.870      860.849
09/29/2014  05:18:00      -50.289       57.502      -14.188       24.687       18.471       10.331      609.437      341.160      106.740        0.355        0.053       76.390       11.966        0.025      336.601        8.013      860.893
09/29/2014  05:19:00       -0.940       77.348      -10.293       13.314       22.325        6.984      177.268      498.422       48.775        0.341        0.036       77.353        5.607        0.005      336.600        8.012      860.927
09/29/2014  05:20:00       10.596       46.027       -5.952        6.156       11.609        5.004       37.897      134.761       25.043        0.123        0.010       47.231        4.785        0.010      336.591        7.994      860.956
09/29/2014  05:21:00       -0.552       28.701       -3.993        5.637       11.672        4.901       31.773      136.239       24.020        0.052        0.010       28.706        3.379        0.014      336.598        8.007      860.989
09/29/2014  05:22:00      -23.355        2.083       -3.888       18.087       16.313        5.546      327.145      266.107       30.762        0.059        0.031       23.447        4.984        0.045      336.534        7.899      861.022
09/29/2014  05:23:00      -11.821       34.643       -3.669        9.794       15.753        6.420       95.922      248.169       41.218        0.087        0.019       36.604        3.779        0.011      336.565        7.952      861.057
09/29/2014  05:24:00      -16.709       52.534       -5.293       11.592       11.333        5.602      134.377      128.446       31.377        0.168        0.015       55.127        6.290        0.013      336.530        7.894      861.089
09/29/2014  05:25:00        5.171       54.899       -4.826        7.460        6.873        5.214       55.650       47.241       27.181        0.160        0.007       55.142        2.764        0.003      336.506        7.855      861.105
09/29/2014  05:26:00       20.421       52.097      -11.934       10.203       11.939        6.684      104.109      142.532       44.671        0.178        0.015       55.956        3.977        0.005      336.387        7.654      861.112
09/29/2014  05:27:00       28.804       21.828       -1.808       18.564       16.324       10.724      344.624      266.463      115.001        0.102        0.036       36.140        8.491        0.055      336.354        7.600      861.098
09/29/2014  05:28:00      100.280       50.525        2.068       31.317       18.592       21.178      980.732      345.660      448.517        0.719        0.089      112.289        6.497        0.003      336.337        7.569      861.067
09/29/2014  05:29:00      123.349       78.196       13.390       25.099       26.666       25.781      629.952      711.056      664.641        1.176        0.100      146.046       12.491        0.007      336.308        7.522      861.044
09/29/2014  05:30:00      105.926       71.312       36.171       30.756       22.287       26.473      945.957      496.700      700.809        0.988        0.107      127.694       14.870        0.014      336.262        7.446      861.035
09/29/2014  05:31:00      102.510       61.585       15.399       38.538       24.724       26.606     1485.212      611.298      707.892        0.867        0.140      119.587       27.708        0.054      336.204        7.348      861.048
09/29/2014  05:32:00      101.628       45.510        7.916       35.655       24.237       27.129     1271.249      587.427      735.970        0.753        0.130      111.353       17.796        0.026      336.235        7.401      861.067
09/29/2014  05:33:00       62.632       20.580        5.655       30.669       30.012       21.210      940.568      900.739      449.863        0.333        0.115       65.926       15.011        0.052      336.269        7.457      861.076
09/29/2014  05:34:00       71.391       34.541       15.343       26.924       20.430       21.406      724.916      417.386      458.217        0.406        0.080       79.308        9.871        0.015      336.262        7.445      861.066
09/29/2014  05:35:00       84.075       32.966        8.051       31.409       28.297       18.685      986.505      800.747      349.147        0.518        0.107       90.307       16.422        0.033      336.271        7.461      861.047
09/29/2014  05:36:00       58.738       26.650       14.256       26.924       17.481       15.909      724.894      305.581      253.106        0.282        0.064       64.501       10.057        0.024      336.256        7.436      861.037
09/29/2014  05:37:00       52.999       31.532        4.168       13.383       12.448        9.741      179.102      154.946       94.886        0.212        0.021       61.670        4.709        0.006      336.280        7.475      861.039
09/29/2014  05:38:00       73.125       38.277       14.856       31.188       17.333       18.156      972.685      300.449      329.623        0.432        0.080       82.537        9.059        0.012      336.280        7.475      861.071
09/29/2014  05:39:00       91.092       53.925       24.258       18.030       16.605       19.204      325.065      275.720      368.790        0.638        0.048      105.856       11.398        0.012      336.272        7.462      861.101
09/29/2014  05:40:00       65.817       58.956       15.527       24.462       18.883       22.320      598.381      356.561      498.176        0.475        0.073       88.361       16.401        0.034      336.256        7.436      861.161
09/29/2014  05:41:00       23.188       47.802       -2.826       39.534       35.913       15.493     1562.907     1289.755      240.031        0.296        0.155       53.130       15.767        0.088      336.260        7.442      861.226
09/29/2014  05:42:00       26.090       72.461       -0.201       22.927       18.472       21.233      525.669      341.227      450.847        0.362        0.066       77.015       15.476        0.040      336.277        7.472      861.276
09/29/2014  05:43:00        8.282      101.321      -17.729       23.841       19.317       13.069      568.371      373.145      170.809        0.588        0.056      101.659       11.281        0.012      336.300        7.509      861.305
09/29/2014  05:44:00       12.481       93.751      -18.496       13.825       16.668       10.126      191.122      277.819      102.530        0.493        0.029       94.578        9.372        0.010      336.324        7.550      861.316
09/29/2014  05:45:00       21.049       74.155       -3.281       18.740       19.672       13.399      351.176      386.995      179.523        0.344        0.046       77.085       12.673        0.027      336.304        7.516      861.317
09/29/2014  05:46:00       73.378       48.983        8.351       24.568       18.402       17.989      603.592      338.641      323.605        0.456        0.063       88.225       10.725        0.015      336.336        7.570      861.299
09/29/2014  05:47:00       89.628       48.997        9.891       18.500       14.353       14.354      342.246      205.997      206.038        0.564        0.038      102.146        6.800        0.004      336.347        7.589      861.280
09/29/2014  05:48:00       46.552       41.044       29.251       23.776       15.890       15.005      565.295      252.492      225.165        0.287        0.052       62.062        9.950        0.026      336.355        7.602      861.285
09/29/2014  05:49:00       79.826       36.516       18.776       20.983       12.923       14.972      440.289      167.011      224.154        0.444        0.042       87.782       10.823        0.015      336.323        7.547      861.283
09/29/2014  05:50:00       94.164       47.934       21.529       31.660       28.427       30.541     1002.329      808.091      932.770        0.719        0.137      105.662       24.997        0.056      336.382        7.646      861.265
09/29/2014  05:51:00       36.753       40.532       59.090       37.049       31.134       26.859     1372.648      969.327      721.423        0.477        0.153       54.714       21.937        0.161      336.363        7.615      861.244
09/29/2014  05:52:00       46.473       38.970       59.655       38.600       34.546       19.877     1489.940     1193.423      395.113        0.516        0.154       60.649       21.708        0.128      336.354        7.600      861.236
09/29/2014  05:53:00       99.506     -134.553      -18.726       27.915       42.804       21.098      779.222     1832.149      445.119        1.571        0.153      167.350       16.064        0.009      336.403        7.681      861.225
09/29/2014  05:54:00      106.060      -78.229      -13.231       36.829       44.247       29.747     1356.352     1957.767      884.887        1.087        0.210      131.790       25.785        0.038      336.375        7.635      861.243
09/29/2014  05:55:00       68.501      -37.316        8.465       56.306       47.551       41.530     3170.346     2261.134     1724.714        0.666        0.358       78.006       42.152        0.292      336.368        7.622      861.275
09/29/2014  05:56:00       50.867      -44.670       19.431       29.572       45.423       31.599      874.531     2063.212      998.494        0.445        0.197       67.697       30.880        0.208      336.387        7.655      861.306
09/29/2014  05:57:00       13.288      -14.211       20.602       33.494       31.152       23.868     1121.871      970.439      569.700        0.173        0.133       19.455       25.817        1.761      336.385        7.650      861.323
09/29/2014  05:58:00       47.780      -41.275       11.470       33.801       34.555       23.785     1142.476     1194.073      565.734        0.351        0.145       63.139       24.201        0.147      336.375        7.634      861.327
09/29/2014  05:59:00       59.112      -32.648       23.038       38.883       72.261       40.953     1511.867     5221.703     1677.139        0.675        0.421       67.528       47.390        0.492      336.360        7.610      861.321
09/29/2014  06:00:00       75.757      -51.488       19.208       36.610       59.950       36.308     1340.309     3594.039     1318.250        0.750        0.313       91.598       44.645        0.238      336.330        7.560      861.318
09/29/2014  06:01:00       79.000      -65.028        6.545       43.927       48.726       32.448     1929.556     2374.254     1052.875        0.793        0.268      102.321       32.933        0.104      336.398        7.673      861.326
09/29/2014  06:02:00       -2.000       36.173       55.524       23.699       30.010       15.942      561.648      900.594      254.134        0.306        0.086       36.228        8.282        0.052      336.418        7.706      861.341
09/29/2014  06:03:00       -5.580       17.311       47.586       13.118       23.988       14.752      172.071      575.431      217.634        0.178        0.048       18.188       14.762        0.659      336.456        7.770      861.333
09/29/2014  06:04:00        4.052       16.813       39.912       14.010       27.870       16.226      196.275      776.740      263.289        0.156        0.062       17.295       15.653        0.819      336.379        7.640      861.321
09/29/2014  06:05:00        7.474        2.311       41.079       28.250       37.330       32.576      798.067     1393.505     1061.218        0.250        0.163        7.823       27.168       12.062      336.402        7.679      861.305
09/29/2014  06:06:00       54.333      -23.131       20.966       36.402       33.339       33.372     1325.131     1111.474     1113.658        0.374        0.178       59.052       24.184        0.168      336.424        7.716      861.303
09/29/2014  06:07:00       13.509        4.524       37.517       30.840       48.938       33.539      951.082     2394.932     1124.860        0.304        0.224       14.247       34.471        5.854      336.413        7.697      861.304
09/29/2014  06:08:00       38.334      -20.545       24.653       41.428       45.617       28.929     1716.293     2080.931      836.877        0.357        0.232       43.493       25.829        0.353      336.402        7.679      861.305
09/29/2014  06:09:00       11.909       53.763       66.711       29.429       38.321       21.606      866.091     1468.467      466.831        0.514        0.140       55.066       23.936        0.189      336.418        7.706      861.302
09/29/2014  06:10:00       96.472       86.839       54.229       45.218       39.761       34.309     2044.706     1580.928     1177.089        1.229        0.240      129.799       28.971        0.050      336.367        7.621      861.305
09/29/2014  06:11:00       78.533       98.157       63.819       41.593       31.226       36.945     1729.988      975.035     1364.908        1.197        0.203      125.707       25.423        0.041      336.321        7.542      861.303
09/29/2014  06:12:00       90.776       30.483       19.636       43.394       39.883       28.694     1883.023     1590.625      823.317        0.693        0.215       95.757       15.961        0.028      336.258        7.440      861.304
09/29/2014  06:13:00       74.146       50.061       33.703       43.020       41.682       34.671     1850.752     1737.417     1202.105        0.696        0.240       89.463       29.057        0.105      336.321        7.544      861.279
09/29/2014  06:14:00       46.079       39.178       39.090       30.116       29.270       21.925      906.975      856.718      480.695        0.371        0.112       60.483       14.115        0.054      336.329        7.557      861.261
09/29/2014  06:15:00       14.226       10.183       39.142       21.470       32.957       16.984      460.945     1086.146      288.450        0.184        0.092       17.495       17.439        0.994      336.350        7.592      861.258
09/29/2014  06:16:00       17.771      -46.265       15.680       16.227       27.590       20.066      263.328      761.214      402.632        0.206        0.071       49.561       14.932        0.091      336.452        7.763      861.287
09/29/2014  06:17:00       39.233      -52.192       -4.409       23.846       23.548       17.980      568.614      554.487      323.295        0.286        0.072       65.294       10.534        0.026      336.473        7.798      861.331
09/29/2014  06:18:00       41.701      -45.353       -9.992       20.743       25.525       16.228      430.277      651.533      263.361        0.262        0.067       61.611       12.116        0.039      336.516        7.870      861.376
09/29/2014  06:19:00        8.666      -23.362       -4.100       11.355       14.071       10.887      128.926      197.986      118.525        0.054        0.022       24.918        8.469        0.116      336.545        7.920      861.391
09/29/2014  06:20:00       20.605      -37.419        0.518       31.385       18.985       20.259      985.018      360.438      410.430        0.179        0.088       42.717       16.376        0.147      336.564        7.950      861.402
09/29/2014  06:21:00       11.912      -22.484       22.495       27.403       37.945       27.635      750.943     1439.816      763.704        0.205        0.148       25.445       24.866        0.955      336.547        7.922      861.402
09/29/2014  06:22:00       21.789      -45.472       12.651       20.776       31.881       14.879      431.639     1016.376      221.398        0.219        0.083       50.423       11.737        0.054      336.532        7.899      861.397
09/29/2014  06:23:00        8.174      -18.288       12.070       18.085       22.148       22.744      327.051      490.549      517.284        0.094        0.067       20.032       13.616        0.462      336.587        7.991      861.381
09/29/2014  06:24:00        1.001       22.869       33.675       14.576       13.645       13.292      212.463      186.196      176.676        0.112        0.029       22.891       12.605        0.303      336.459        7.774      861.361
09/29/2014  06:25:00       10.686        7.634       33.690       21.149       21.302       17.984      447.274      453.794      323.438        0.127        0.061       13.132       14.665        1.247      336.490        7.826      861.352
09/29/2014  06:26:00        8.417       -3.545       27.668       21.953       18.871       12.162      481.923      356.099      147.906        0.092        0.049        9.133        9.417        1.063      336.518        7.873      861.364
09/29/2014  06:27:00       -7.348      -26.376       12.481       12.074       19.360       13.905      145.793      374.814      193.360        0.081        0.036       27.381        8.823        0.104      336.504        7.850      861.386
09/29/2014  06:28:00       -9.922      -36.470       14.418       22.816       16.469       15.095      520.557      271.215      227.863        0.133        0.051       37.795       13.518        0.128      336.543        7.917      861.401
09/29/2014  06:29:00      -13.765       -7.072        9.264       13.170       18.820       17.663      173.441      354.209      311.967        0.058        0.042       15.476       12.483        0.651      336.513        7.866      861.389
09/29/2014  06:30:00       -7.475       13.323       36.074       10.706       18.653       10.039      114.615      347.930      100.779        0.105        0.028       15.277        9.576        0.393      336.522        7.882      861.385
09/29/2014  06:31:00       10.320       36.444       46.471       19.595       29.376       19.806      383.959      862.923      392.285        0.262        0.082       37.877       15.236        0.162      336.497        7.839      861.398
09/29/2014  06:32:00        2.442       17.310       32.067       12.088       18.318       10.750      146.121      335.533      115.562        0.097        0.030       17.481        5.666        0.105      336.494        7.834      861.415
09/29/2014  06:33:00       44.314       35.433       18.196       18.001       18.178       16.348      324.020      330.428      267.265        0.224        0.046       56.738       11.319        0.040      336.440        7.742      861.433
09/29/2014  06:34:00       28.890       14.903       25.545       15.245       13.872       14.128      232.396      192.446      199.600        0.117        0.031       32.508        7.487        0.053      336.398        7.673      861.432
09/29/2014  06:35:00       23.297       25.924       15.652       19.381       11.530       14.168      375.635      132.943      200.743        0.108        0.035       34.854        2.721        0.006      336.389        7.658      861.428
09/29/2014  06:36:00       -9.203        8.445        4.179       11.956        6.644        9.247      142.954       44.146       85.498        0.022        0.014       12.490        9.533        0.582      336.433        7.730      861.419
09/29/2014  06:37:00      -58.118       -3.872       -8.589       27.082       22.110       12.682      733.454      488.873      160.831        0.242        0.069       58.247        5.454        0.009      336.376        7.635      861.397
09/29/2014  06:38:00      -91.336       -2.818       -9.160       49.363       20.467       18.078     2436.723      418.917      326.797        0.581        0.159       91.380       20.619        0.051      336.334        7.567      861.372
09/29/2014  06:39:00     -101.350      -17.437       -8.807       19.836       26.706       13.579      393.471      713.190      184.401        0.597        0.065      102.839        7.636        0.006      336.364        7.616      861.355
09/29/2014  06:40:00      -71.916      -38.010        0.083       21.592       28.785       14.285      466.209      828.548      204.057        0.406        0.075       81.343       10.387        0.016      336.335        7.569      861.343
09/29/2014  06:41:00      -57.307        2.874       -3.036       17.071       15.585       13.485      291.417      242.885      181.858        0.201        0.036       57.380       11.131        0.038      336.272        7.461      861.335
09/29/2014  06:42:00      -65.105       -6.622       -5.951       19.135       18.615       11.111      366.143      346.528      123.457        0.258        0.042       65.441        4.921        0.006      336.338        7.574      861.336
09/29/2014  06:43:00      -65.946      -15.167       -4.833       22.231       17.390       12.496      494.233      302.423      156.138        0.278        0.048       67.668       10.162        0.023      336.333        7.566      861.345
09/29/2014  06:44:00      -43.312       -5.797       -0.331       14.739       23.327       10.819      217.230      544.169      117.043        0.139        0.044       43.699        7.254        0.028      336.324        7.550      861.351
09/29/2014  06:45:00      -54.012      -40.251       -3.641       30.664       14.073       12.798      940.294      198.043      163.781        0.293        0.065       67.361       12.335        0.034      336.378        7.639      861.347
09/29/2014  06:46:00      -37.134        6.453       -8.657       18.647       43.979       11.395      347.727     1934.159      129.836        0.195        0.121       37.690       17.378        0.213      336.321        7.544      861.322
09/29/2014  06:47:00      -61.861       34.064      -12.470       11.142       15.333        9.558      124.147      235.089       91.347        0.280        0.023       70.620        7.086        0.010      336.298        7.505      861.308
09/29/2014  06:48:00      -74.893       28.308       -9.918       12.626       14.795        8.078      159.404      218.900       65.248        0.348        0.022       80.064        7.104        0.008      336.337        7.573      861.320
09/29/2014  06:49:00      -62.368       42.793      -17.213       10.178       20.216        7.958      103.586      408.693       63.335        0.330        0.029       75.637        9.190        0.015      336.311        7.527      861.346
09/29/2014  06:50:00      -64.898       49.231      -20.817        9.800       14.426        5.678       96.043      208.104       32.241        0.370        0.017       81.459        4.020        0.002      336.345        7.584      861.363
09/29/2014  06:51:00      -59.814       47.996      -13.155       21.076       20.413       10.779      444.186      416.697      116.189        0.352        0.049       76.690       12.312        0.026      336.354        7.601      861.380
09/29/2014  06:52:00      -62.310       43.139      -10.957       20.052       22.549       14.013      402.079      508.450      196.355        0.349        0.055       75.786       13.430        0.031      336.358        7.608      861.381
09/29/2014  06:53:00      -62.954       36.790       -8.272       20.209       20.174       17.102      408.407      406.985      292.476        0.325        0.055       72.916       13.930        0.036      336.360        7.610      861.388
09/29/2014  06:54:00      -71.888       25.255       -9.003       15.361       15.053       11.337      235.961      226.606      128.525        0.324        0.030       76.196        7.125        0.009      336.376        7.636      861.394
09/29/2014  06:55:00      -72.043       29.231      -15.375       16.888       14.758       10.666      285.214      217.786      113.764        0.345        0.031       77.747        8.520        0.012      336.424        7.714      861.396
09/29/2014  06:56:00      -67.054        6.397      -13.445       15.558       14.210        7.729      242.062      201.916       59.742        0.261        0.025       67.358        4.901        0.005      336.366        7.620      861.400
09/29/2014  06:57:00      -93.030      -20.826       -8.186       12.584       19.064        9.328      158.347      363.437       87.018        0.488        0.030       95.332        8.620        0.008      336.372        7.630      861.381
09/29/2014  06:58:00      -81.349      -38.070       -2.452       31.739       19.444       14.002     1007.380      378.055      196.069        0.483        0.079       89.817       14.016        0.024      336.337        7.571      861.366
09/29/2014  06:59:00      -67.201      -32.758       -2.882       16.286       13.642       13.655      265.226      186.115      186.465        0.312        0.032       74.760        9.720        0.017      336.294        7.500      861.352
09/29/2014  07:00:00      -55.230      -20.565      -11.665        9.428        9.773        7.517       88.892       95.520       56.505        0.193        0.012       58.934        1.003        0.000      336.331        7.560      861.346
09/29/2014  07:01:00      -24.960       -8.700       -8.393       18.093        7.234        8.546      327.348       52.326       73.032        0.061        0.023       26.433        8.463        0.103      336.299        7.507      861.342
09/29/2014  07:02:00      -26.002        0.147       -0.075       25.509       19.081       10.867      650.721      364.071      118.098        0.090        0.057       26.002       15.272        0.345      336.309        7.526      861.355
09/29/2014  07:03:00      -60.310        1.352       -8.617       11.322       12.408        8.688      128.191      153.952       75.482        0.204        0.018       60.325        2.087        0.001      336.378        7.640      861.362
09/29/2014  07:04:00      -32.507      -19.727       -3.365       11.075        7.075        9.086      122.663       50.058       82.555        0.086        0.013       38.024        6.902        0.033      336.378        7.642      861.378
09/29/2014  07:05:00      -29.543      -36.033       -1.914       17.503       12.937       11.701      306.343      167.357      136.917        0.139        0.031       46.595        8.114        0.030      336.442        7.746      861.396
09/29/2014  07:06:00      -62.929      -36.732       -1.052       14.691       11.317       11.010      215.824      128.077      121.217        0.289        0.023       72.865        7.066        0.009      336.434        7.732      861.411
09/29/2014  07:07:00      -79.516      -22.250       -5.595       19.419       19.737       13.491      377.081      389.533      182.003        0.390        0.047       82.570       10.412        0.016      336.405        7.685      861.420
09/29/2014  07:08:00      -88.007      -14.554       -7.718       20.653       13.405       10.709      426.548      179.681      114.686        0.437        0.036       89.202       10.962        0.015      336.372        7.629      861.418
09/29/2014  07:09:00      -82.598      -11.572       -7.886       17.878       12.055        9.190      319.634      145.319       84.464        0.378        0.027       83.405        7.334        0.008      336.359        7.607      861.408
09/29/2014  07:10:00     -106.313      -11.065      -12.684       18.186       18.719       12.936      330.739      350.411      167.339        0.622        0.042      106.887        9.988        0.009      336.346        7.587      861.410
09/29/2014  07:11:00     -101.470      -20.799       -7.914       19.957       18.145       14.359      398.265      329.241      206.172        0.586        0.047      103.579        9.836        0.009      336.303        7.514      861.410
09/29/2014  07:12:00     -100.585      -12.324       -8.891       23.237       27.207       20.772      539.957      740.207      431.482        0.603        0.086      101.338       15.950        0.025      336.264        7.448      861.406
09/29/2014  07:13:00     -110.983       19.901      -12.080       30.998       25.468       15.881      960.850      648.630      252.201        0.736        0.093      112.753        9.437        0.007      336.247        7.421      861.417
09/29/2014  07:14:00     -115.003       45.943      -12.542       34.970       20.108       18.988     1222.901      404.319      360.545        0.874        0.099      123.840       12.798        0.011      336.301        7.510      861.429
09/29/2014  07:15:00     -135.289       34.754      -15.221       29.083       21.176       17.753      845.811      448.406      315.167        1.068        0.080      139.682       15.334        0.012      336.358        7.606      861.439
09/29/2014  07:16:00      -80.294       -8.854      -10.571       33.843       25.136       16.810     1145.358      631.798      282.572        0.435        0.103       80.780       17.068        0.045      336.344        7.585      861.439
09/29/2014  07:17:00      -47.287        3.166       -4.575       29.770       27.596       15.297      886.267      761.537      233.986        0.207        0.094       47.393       15.653        0.109      336.340        7.576      861.428
09/29/2014  07:18:00      -75.283      -19.631      -11.041       21.401       21.238       23.119      457.999      451.052      534.485        0.381        0.072       77.800       15.206        0.038      336.353        7.597      861.412
09/29/2014  07:19:00     -111.237      -14.714      -10.603       22.410       20.861       14.751      502.208      435.195      217.606        0.693        0.058      112.206       13.083        0.014      336.307        7.520      861.392
09/29/2014  07:20:00      -99.646      -23.428      -10.587       32.634       17.748       15.016     1065.009      314.988      225.490        0.610        0.080      102.363       14.655        0.020      336.305        7.517      861.384
09/29/2014  07:21:00     -101.710       -6.533      -11.140       26.026       18.552       15.444      677.376      344.168      238.508        0.589        0.063      101.920       11.991        0.014      336.330        7.560      861.371
09/29/2014  07:22:00      -97.605      -21.134      -14.324       16.892       17.942       11.078      285.343      321.919      122.715        0.545        0.036       99.866        9.286        0.009      336.250        7.426      861.357
09/29/2014  07:23:00      -36.687        9.710       -7.384       28.266       34.666       14.239      798.946     1201.709      202.744        0.185        0.110       37.951       15.357        0.164      336.271        7.461      861.334
09/29/2014  07:24:00      -32.587       33.825       -6.258       22.168       19.504       10.292      491.437      380.416      105.931        0.161        0.049       46.968        4.153        0.008      336.401        7.677      861.313
09/29/2014  07:25:00        3.279      -18.656        1.873       11.851       21.556       11.301      140.456      464.654      127.702        0.055        0.037       18.942        7.875        0.173      336.455        7.768      861.290
09/29/2014  07:26:00      -20.426      -21.031        1.429       23.353       23.612       13.570      545.369      557.505      184.157        0.107        0.064       29.318       13.055        0.198      336.371        7.629      861.269
09/29/2014  07:27:00       -2.149       -9.134       -6.663       13.557       11.098        5.375      183.800      123.159       28.887        0.023        0.017        9.383        4.185        0.199      336.354        7.599      861.248
09/29/2014  07:28:00      -32.778       -1.608       -2.867        5.793        5.682        6.266       33.556       32.288       39.260        0.060        0.005       32.817        2.891        0.008      336.383        7.647      861.243
09/29/2014  07:29:00      -31.474      -14.355        2.060       11.724       18.393        9.543      137.449      338.317       91.073        0.088        0.028       34.593        7.168        0.043      336.419        7.709      861.251
09/29/2014  07:30:00      -38.754       -9.969       -1.795       16.143       16.284       15.216      260.601      265.166      231.541        0.118        0.038       40.015       10.816        0.073      336.419        7.707      861.284
09/29/2014  07:31:00      -60.414       -7.757       -2.991       23.220       22.759       13.252      539.182      517.966      175.618        0.248        0.062       60.910       13.414        0.048      336.375        7.634      861.317
09/29/2014  07:32:00      -75.904       11.870       -6.676       19.182       15.977       11.277      367.955      255.268      127.162        0.335        0.038       76.826        9.165        0.014      336.327        7.554      861.351
09/29/2014  07:33:00      -80.716       27.050      -10.328       26.448       24.986       14.671      699.518      624.291      215.251        0.445        0.077       85.128       13.046        0.023      336.329        7.557      861.393
09/29/2014  07:34:00      -44.541       12.710       -9.902       22.488       21.488       13.627      505.729      461.718      185.685        0.170        0.058       46.319        9.827        0.045      336.269        7.458      861.409
09/29/2014  07:35:00        0.732       -5.560        6.388       19.806        9.328       11.957      392.263       87.010      142.979        0.035        0.031        5.608       10.252        3.342      336.315        7.534      861.366
09/29/2014  07:36:00       12.354       10.689        6.275       12.121       12.016        7.313      146.923      144.392       53.481        0.033        0.017       16.336        5.859        0.129      336.339        7.573      861.318
09/29/2014  07:37:00       14.163       16.251        1.476        8.249        6.366        4.775       68.047       40.532       22.798        0.030        0.007       21.556        2.924        0.018      336.423        7.712      861.296
09/29/2014  07:38:00        0.724       21.910       -2.733        4.380        5.954        3.506       19.189       35.456       12.296        0.028        0.003       21.922        1.197        0.003      336.518        7.875      861.299
09/29/2014  07:39:00      -10.535        4.127       -0.471        7.611        6.924        2.850       57.925       47.945        8.125        0.012        0.006       11.315        2.816        0.062      336.538        7.911      861.318
09/29/2014  07:40:00      -19.554        4.907       -0.770        9.701        6.320        4.782       94.114       39.939       22.871        0.028        0.008       20.160        4.413        0.048      336.453        7.769      861.326
09/29/2014  07:41:00      -11.599       -4.819       -4.424        6.336        5.847        4.697       40.145       34.189       22.065        0.014        0.005       12.560        3.870        0.095      336.480        7.811      861.330
09/29/2014  07:42:00       -6.393        0.169       -4.308        6.018        4.771        4.803       36.218       22.758       23.072        0.007        0.004        6.395        3.844        0.361      336.525        7.887      861.360
09/29/2014  07:43:00       -6.954        1.233       -0.778        6.034        4.242        6.270       36.404       17.995       39.318        0.007        0.005        7.063        3.817        0.292      336.525        7.889      861.379
09/29/2014  07:44:00      -10.749        6.520        5.132        6.334        4.227        5.545       40.120       17.865       30.751        0.014        0.004       12.572        1.435        0.013      336.515        7.871      861.384
09/29/2014  07:45:00      -18.814        3.158        3.950        8.762       10.919       14.989       76.769      119.230      224.662        0.040        0.021       19.077       10.084        0.279      336.548        7.926      861.389
09/29/2014  07:46:00       -9.104       11.891       21.561        7.370        8.378        5.992       54.316       70.193       35.903        0.042        0.008       14.976        4.815        0.103      336.574        7.969      861.384
09/29/2014  07:47:00       -1.379       12.429       12.330       13.499       14.178       11.637      182.232      201.029      135.419        0.041        0.026       12.505        8.396        0.451      336.522        7.881      861.388
09/29/2014  07:48:00       -4.530       15.094       35.630       10.936       13.719       16.157      119.606      188.217      261.037        0.104        0.028       15.760        7.004        0.197      336.608        8.026      861.396
09/29/2014  07:49:00       -4.763        5.508       17.446       11.121       18.339       14.234      123.687      336.332      202.601        0.051        0.033        7.282        6.787        0.869      336.604        8.018      861.401
09/29/2014  07:50:00      -13.661        4.980       -4.233       16.479        8.193        8.259      271.551       67.124       68.206        0.032        0.020       14.540        7.315        0.253      336.627        8.056      861.421
09/29/2014  07:51:00      -13.068       21.069        2.731       13.459        9.091       11.442      181.155       82.641      130.918        0.051        0.020       24.793        4.952        0.040      336.665        8.122      861.447
09/29/2014  07:52:00       -6.401       18.761       15.561       11.741       13.456        9.069      137.839      181.058       82.256        0.052        0.020       19.823        5.137        0.067      336.654        8.102      861.471
09/29/2014  07:53:00      -13.512       -2.958        6.085        7.239        6.953        8.366       52.407       48.347       69.982        0.020        0.009       13.832        5.511        0.159      336.609        8.027      861.502
09/29/2014  07:54:00      -15.684        0.828       -2.286       11.668        7.435        8.489      136.133       55.273       72.068        0.026        0.013       15.706        7.115        0.205      336.684        8.152      861.514
09/29/2014  07:55:00      -23.003        6.275       -2.224       11.318       12.559        8.311      128.096      157.725       69.068        0.046        0.018       23.843        6.931        0.085      336.689        8.161      861.531
09/29/2014  07:56:00      -21.582        5.321        2.823       22.520       12.961       12.660      507.155      167.996      160.280        0.067        0.042       22.228       11.620        0.273      336.696        8.174      861.545
09/29/2014  07:57:00       -9.989        0.322       -8.594       30.061       25.731       21.179      903.688      662.086      448.545        0.109        0.101        9.994       10.389        1.080      336.729        8.227      861.549
09/29/2014  07:58:00       -3.971       18.937       22.970       12.988       12.721        8.682      168.690      161.831       75.380        0.065        0.020       19.349        8.019        0.172      336.768        8.290      861.548
09/29/2014  07:59:00      -10.553       40.305       13.463       21.126       21.055       20.819      446.324      443.305      433.424        0.162        0.066       41.663        7.290        0.031      336.764        8.286      861.538
09/29/2014  08:00:00      -20.948       17.294       10.517       21.647       30.915       15.637      468.603      955.763      244.516        0.126        0.083       27.165       14.683        0.292      336.811        8.364      861.543
09/29/2014  08:01:00      -53.238      -31.405       -0.371       34.241       15.946       16.217     1172.440      254.282      262.998        0.275        0.084       61.811       13.574        0.048      336.821        8.381      861.533
09/29/2014  08:02:00      -31.085      -44.319        0.386       25.224       20.054       16.650      636.254      402.154      277.219        0.212        0.066       54.133       17.306        0.102      336.887        8.490      861.544
09/29/2014  08:03:00      -68.553        3.128       -3.697       54.288       31.800       18.439     2947.138     1011.245      339.990        0.451        0.215       68.624       20.884        0.093      336.746        8.255      861.562
09/29/2014  08:04:00     -134.013      -31.239      -12.880       45.315       44.509       24.925     2053.442     1981.067      621.276        1.188        0.233      137.606       16.487        0.014      336.617        8.041      861.567
09/29/2014  08:05:00     -168.363      -13.044      -20.071       36.749       40.538       23.931     1350.474     1643.299      572.707        1.624        0.178      168.868       20.663        0.015      336.593        8.001      861.589
09/29/2014  08:06:00      -85.552      -14.261       -6.185       73.675       28.048       22.185     5428.014      786.690      492.159        0.713        0.335       86.732       29.239        0.114      336.648        8.093      861.583
09/29/2014  08:07:00      -12.110       31.974        1.713       34.780       34.269       21.803     1209.659     1174.371      475.385        0.202        0.143       34.191       17.256        0.255      336.928        8.559      861.584
09/29/2014  08:08:00      -57.790        9.677       -7.681       32.409       33.887       16.017     1050.359     1148.302      256.556        0.297        0.123       58.594       14.283        0.059      336.751        8.264      861.600
09/29/2014  08:09:00      -94.481      -37.579       -3.961       37.821       34.364       25.110     1430.455     1180.878      630.533        0.680        0.162      101.680       17.924        0.031      336.746        8.256      861.612
09/29/2014  08:10:00      -69.127       -4.522      -13.938       46.220       26.639       16.731     2136.326      709.647      279.914        0.406        0.156       69.275       19.867        0.082      336.778        8.309      861.608
09/29/2014  08:11:00      -23.717       43.125      -10.097       26.228       22.361       20.293      687.883      500.006      411.805        0.206        0.080       49.217       11.954        0.059      336.948        8.593      861.614
09/29/2014  08:12:00      -42.121       40.484      -16.928       17.503       24.529       12.189      306.350      601.690      148.580        0.238        0.053       58.422        9.992        0.029      336.822        8.381      861.619
09/29/2014  08:13:00      -43.585       13.572       -5.354       13.793       22.052        9.869      190.258      486.302       97.405        0.144        0.039       45.650        7.312        0.026      336.858        8.441      861.646
09/29/2014  08:14:00      -30.006       35.679       -1.469       13.152       19.517       16.869      172.967      380.907      284.551        0.151        0.042       46.620        7.181        0.024      337.084        8.821      861.672
09/29/2014  08:15:00      -40.232       20.251       -6.089       12.725       16.806        7.809      161.916      282.433       60.973        0.129        0.025       45.041        6.043        0.018      336.942        8.581      861.698
09/29/2014  08:16:00      -28.798       50.199       -6.404       19.235       20.425       17.702      369.975      417.194      313.373        0.225        0.055       57.873       11.011        0.036      337.132        8.898      861.702
09/29/2014  08:17:00      -39.860       47.772      -12.041       20.769       24.766       14.890      431.358      613.378      221.716        0.264        0.063       62.217        2.175        0.001      337.080        8.812      861.694
09/29/2014  08:18:00      -43.784       22.798       -8.708       22.183       19.444       13.923      492.071      378.087      193.837        0.179        0.053       49.364        6.361        0.017      337.109        8.860      861.682
09/29/2014  08:19:00      -23.172       44.555       -5.798       15.146       25.050       18.488      229.399      627.478      341.790        0.188        0.060       50.220       10.643        0.045      337.180        8.979      861.673
09/29/2014  08:20:00      -39.406      -13.158       -6.150       21.189       19.220       15.317      448.989      369.401      234.597        0.141        0.053       41.545       11.056        0.071      337.069        8.793      861.663
09/29/2014  08:21:00      -20.098       -9.445        2.659       11.224        9.927        9.008      125.988       98.550       81.153        0.040        0.015       22.206        5.632        0.064      337.165        8.954      861.651
09/29/2014  08:22:00      -47.398      -34.467        2.389       37.292       20.632       17.978     1390.699      425.665      323.226        0.279        0.107       58.605       15.883        0.073      337.175        8.971      861.654
09/29/2014  08:23:00      -85.865      -30.315      -13.959       23.425       15.599       11.380      548.743      243.337      129.497        0.470        0.046       91.060        5.448        0.004      337.102        8.849      861.657
09/29/2014  08:24:00      -27.626      -20.063       -7.677       12.819        8.794        6.927      164.316       77.330       47.985        0.076        0.014       34.143        7.236        0.045      337.128        8.893      861.661
09/29/2014  08:25:00      -59.916       -0.750      -14.163       10.389       10.558        9.680      107.927      111.477       93.696        0.205        0.016       59.921        6.521        0.012      337.151        8.933      861.673
09/29/2014  08:26:00      -46.911       -0.652       -2.598       18.878       17.473       12.756      356.384      305.305      162.713        0.152        0.041       46.916        6.329        0.018      337.238        9.077      861.684
09/29/2014  08:27:00      -15.657      -12.046       -8.333       10.282       18.006        6.414      105.717      324.205       41.138        0.047        0.024       19.754        7.009        0.126      337.289        9.164      861.691
09/29/2014  08:28:00      -67.358      -20.478      -14.954       17.822       16.996       10.866      317.610      288.877      118.066        0.295        0.036       70.402        5.291        0.006      337.304        9.189      861.705
09/29/2014  08:29:00      -72.311      -27.997       -6.301       39.997       15.231       15.899     1599.728      231.983      252.787        0.407        0.104       77.542        7.887        0.010      337.270        9.130      861.722
09/29/2014  08:30:00      -30.995      -44.889        8.157       34.966       39.033       16.178     1222.641     1523.566      261.719        0.302        0.150       54.550       11.893        0.048      337.300        9.181      861.728
09/29/2014  08:31:00      -13.557      -30.425        4.119       20.151       29.363       19.638      406.079      862.158      385.634        0.139        0.083       33.308       16.926        0.258      337.421        9.382      861.725
09/29/2014  08:32:00      -61.767       -6.797       -2.272       18.096       20.749       12.020      327.467      430.511      144.470        0.238        0.045       62.140        9.728        0.025      337.374        9.304      861.733
09/29/2014  08:33:00      -23.450      -46.902        1.264       24.498       17.855       12.156      600.164      318.806      147.758        0.191        0.053       52.438        8.739        0.028      337.473        9.470      861.737
09/29/2014  08:34:00      -15.913      -57.187        3.523       13.895       19.239       14.746      193.071      370.131      217.456        0.216        0.039       59.360        9.262        0.024      337.436        9.407      861.735
09/29/2014  08:35:00      -24.543      -31.528        6.737       14.606       34.637       14.535      213.321     1199.728      211.260        0.163        0.081       39.955       11.152        0.078      337.581        9.651      861.725
09/29/2014  08:36:00      -35.946      -61.411        0.347       28.052       29.520       16.623      786.926      871.448      276.334        0.350        0.097       71.158        7.806        0.012      337.569        9.633      861.734
09/29/2014  08:37:00      -46.092      -29.551        1.394       37.885       22.673       18.581     1435.246      514.058      345.270        0.265        0.115       54.752       17.255        0.099      337.620        9.717      861.747
09/29/2014  08:38:00      -71.785      -37.467       -5.048       44.696       27.771       19.654     1997.727      771.219      386.291        0.487        0.158       80.975       23.244        0.082      337.602        9.687      861.762
09/29/2014  08:39:00      -48.339      -19.783        1.951       27.144       24.172       18.698      736.785      584.296      349.614        0.220        0.084       52.231       14.084        0.073      337.599        9.681      861.771
09/29/2014  08:40:00      -68.360      -48.590        1.975       46.015       33.651       23.901     2117.355     1132.408      571.245        0.543        0.191       83.870       21.092        0.063      337.630        9.734      861.787
09/29/2014  08:41:00      -52.180      -58.398       -5.074       29.062       25.383       20.345      844.594      644.282      413.904        0.403        0.095       78.314       11.506        0.022      337.591        9.669      861.800
09/29/2014  08:42:00      -29.369      -56.564       -1.507       25.273       49.208       16.665      638.705     2421.453      277.710        0.370        0.167       63.734       16.618        0.068      337.674        9.809      861.810
09/29/2014  08:43:00      -49.266      -92.275        0.894       23.642       33.090       14.719      558.929     1094.964      216.640        0.641        0.094      104.603       13.438        0.017      337.519        9.548      861.824
09/29/2014  08:44:00      -48.056      -79.013       -0.236       25.654       28.185       16.994      658.124      794.419      288.787        0.515        0.087       92.480       10.235        0.012      337.593        9.672      861.825
09/29/2014  08:45:00      -32.068     -101.181       -3.284       24.885       26.754       17.786      619.283      715.769      316.334        0.646        0.083      106.142       10.493        0.010      337.564        9.623      861.824
09/29/2014  08:46:00      -55.144      -70.243      -11.176       16.776       17.760       12.590      281.438      315.401      158.504        0.443        0.038       89.303        5.758        0.004      337.565        9.625      861.830
09/29/2014  08:47:00      -48.934      -46.996       -6.360       16.357       18.160       10.015      267.566      329.774      100.291        0.267        0.035       67.847        7.610        0.013      337.602        9.687      861.842
09/29/2014  08:48:00      -39.193      -36.721       -5.484       25.201       14.022        9.223      635.082      196.603       85.069        0.192        0.046       53.708        8.964        0.028      337.671        9.804      861.848
09/29/2014  08:49:00      -41.365      -36.062       -3.973       18.524       20.282       13.339      343.145      411.354      177.930        0.198        0.047       54.877        7.761        0.020      337.736        9.913      861.853
09/29/2014  08:50:00      -40.652      -74.463        2.064       24.010       28.066       13.128      576.478      787.704      172.348        0.437        0.077       84.837       12.135        0.020      337.731        9.904      861.861
09/29/2014  08:51:00      -26.614      -66.217        5.481       28.915       25.624       18.171      836.079      656.567      330.202        0.347        0.091       71.366       14.457        0.041      337.803       10.025      861.849
09/29/2014  08:52:00      -27.588      -55.773        2.365       16.519       27.182       15.243      272.878      738.881      232.346        0.256        0.062       62.224       10.085        0.026      337.855       10.111      861.841
09/29/2014  08:53:00      -30.010      -34.756       -1.778       17.405       25.295       17.117      302.945      639.856      293.006        0.167        0.062       45.919       11.750        0.065      337.912       10.208      861.812
09/29/2014  08:54:00      -39.643      -47.769       -1.599       20.406       23.593       13.533      416.399      556.615      183.132        0.251        0.058       62.077        9.269        0.022      337.925       10.228      861.788
09/29/2014  08:55:00      -64.588      -31.797       -2.322       30.868       17.936       12.298      952.822      321.688      151.248        0.331        0.071       71.990        8.139        0.013      337.938       10.251      861.778
09/29/2014  08:56:00      -39.577       -9.000        4.743       28.710       24.167       14.883      824.245      584.036      221.492        0.165        0.081       40.587       15.785        0.151      338.081       10.491      861.776
09/29/2014  08:57:00      -26.406       -0.392       -1.527        9.821       16.165        8.541       96.454      261.303       72.948        0.057        0.022       26.409        4.113        0.024      338.049       10.437      861.768
09/29/2014  08:58:00        0.307       13.133        0.934       16.188       15.798       15.249      262.061      249.565      232.534        0.046        0.037       13.137       10.473        0.636      338.630       11.412      861.767
09/29/2014  08:59:00      -45.880      -35.247       -2.534       22.691       32.348       15.825      514.860     1046.379      250.439        0.258        0.091       57.856       19.303        0.111      338.140       10.588      861.780
09/29/2014  09:00:00      -72.242      -57.077       -4.273       14.571       20.416       13.462      212.306      416.808      181.227        0.465        0.041       92.069        9.712        0.011      337.916       10.213      861.809
09/29/2014  09:01:00      -30.479      -57.351       -1.105       19.484       22.589        9.489      379.627      510.271       90.043        0.260        0.049       64.947        7.667        0.014      337.929       10.235      861.819
09/29/2014  09:02:00      -36.652      -39.209       -9.338       17.572       31.840       17.416      308.788     1013.762      303.311        0.230        0.081       53.672        7.074        0.017      338.118       10.553      861.823
09/29/2014  09:03:00      -40.244       24.170        5.736       15.364       19.671       14.741      236.057      386.945      217.304        0.154        0.042       46.945       10.551        0.051      338.137       10.585      861.821
09/29/2014  09:04:00       -2.860       25.995       15.908       32.958       19.137       18.423     1086.201      366.209      339.397        0.136        0.090       26.152       14.736        0.317      338.719       11.562      861.821
09/29/2014  09:05:00        0.069       55.978       -1.819       40.721       23.406       19.738     1658.189      547.839      389.587        0.287        0.130       55.978       20.296        0.131      338.513       11.215      861.830
09/29/2014  09:06:00      -32.267      -18.087        5.047       46.689       40.993       18.429     2179.904     1680.390      339.638        0.280        0.210       36.991       11.741        0.101      338.541       11.263      861.847
09/29/2014  09:07:00      -26.992       -6.098       10.030       46.447       27.654       22.633     2157.336      764.750      512.233        0.215        0.172       27.672       19.676        0.506      338.407       11.037      861.865
09/29/2014  09:08:00      -11.522       -9.244        1.421       25.154       25.062       20.539      632.700      628.100      421.844        0.095        0.084       14.772       18.292        1.533      338.573       11.316      861.879
09/29/2014  09:09:00      -28.982      -41.852       -1.544       27.372       28.448       18.318      749.214      809.281      335.563        0.224        0.095       50.907       12.676        0.062      338.404       11.034      861.899
09/29/2014  09:10:00      -15.494        4.175       12.827       27.510       28.577       44.240      756.800      816.644     1957.177        0.198        0.177       16.047       29.202        3.312      339.079       12.168      861.902
09/29/2014  09:11:00       46.891      -33.622       17.908       73.407       67.753       36.929     5388.574     4590.476     1363.757        0.749        0.567       57.699       42.284        0.537      338.666       11.472      861.909
09/29/2014  09:12:00       35.922       38.492       64.338       48.537       80.410       57.961     2355.861     6465.768     3359.531        0.954        0.609       52.650       62.589        1.413      338.714       11.552      861.898
09/29/2014  09:13:00       26.363       61.790       78.891       49.242       38.355       26.299     2424.757     1471.134      691.653        0.766        0.229       67.179       24.734        0.136      338.779       11.662      861.894
09/29/2014  09:14:00       67.773       -9.669       43.430       57.619       57.442       44.907     3319.896     3299.533     2016.605        0.760        0.432       68.459       37.509        0.300      338.847       11.776      861.886
09/29/2014  09:15:00       55.633        6.717       24.579       44.922       28.451       36.956     2018.014      809.482     1365.731        0.397        0.210       56.037       24.731        0.195      338.687       11.509      861.883
09/29/2014  09:16:00       16.197        1.384       26.494       35.698       68.493       30.317     1274.355     4691.333      919.134        0.392        0.344       16.256       19.488        1.437      338.860       11.799      861.879
09/29/2014  09:17:00        3.138      -82.338       -1.579       36.968       49.081       33.729     1366.659     2408.944     1137.671        0.585        0.246       82.398       30.007        0.133      338.811       11.716      861.878
09/29/2014  09:18:00       -4.991        4.136       35.655       28.993       43.819       29.528      840.589     1920.141      871.908        0.247        0.182        6.482       29.130       20.196      339.048       12.116      861.884
09/29/2014  09:19:00       -9.448       -0.977       28.403       23.152       21.803       23.535      536.023      475.353      553.898        0.123        0.078        9.498       18.646        3.854      339.255       12.463      861.895
09/29/2014  09:20:00      -13.174       -7.273       34.594       14.470       24.467       20.763      209.383      598.630      431.108        0.133        0.062       15.048       17.074        1.287      339.219       12.405      861.903
09/29/2014  09:21:00      -18.661       10.302       50.861       16.666       36.692       26.714      277.765     1346.289      713.640        0.269        0.117       21.315       25.778        1.463      339.333       12.595      861.898
09/29/2014  09:22:00        0.971       36.719       57.974       27.481       33.428       41.031      755.203     1117.427     1683.507        0.413        0.178       36.732       33.509        0.832      339.193       12.360      861.892
09/29/2014  09:23:00       15.952        8.376       53.692       39.857       54.929       36.602     1588.607     3017.208     1339.704        0.458        0.297       18.017       38.837        4.647      339.217       12.398      861.882
09/29/2014  09:24:00       98.848       90.887       83.199       66.784       45.028       40.317     4460.138     2027.486     1625.435        1.653        0.406      134.281       21.373        0.025      338.688       11.509      861.879
09/29/2014  09:25:00       48.655       73.900       97.890       55.977       77.400       50.519     3133.373     5990.728     2552.193        1.454        0.584       88.478       50.945        0.332      338.907       11.876      861.874
09/29/2014  09:26:00       64.310      108.388      110.426       64.907       71.888       48.381     4212.901     5167.918     2340.737        1.990        0.586      126.030       50.314        0.159      338.761       11.631      861.861
09/29/2014  09:27:00       40.012       61.018       91.658       59.272       54.060       42.910     3513.123     2922.513     1841.229        1.100        0.414       72.967       39.149        0.288      339.071       12.154      861.865
09/29/2014  09:28:00       73.860       83.543       62.562       68.036       73.368       48.367     4628.935     5382.885     2339.327        1.435        0.618      111.511       30.461        0.075      338.959       11.964      861.872
09/29/2014  09:29:00       14.095       -6.732       43.446       42.322       65.326       44.701     1791.112     4267.513     1998.184        0.509        0.403       15.620       39.689        6.457      339.334       12.598      861.886
09/29/2014  09:30:00      101.413     -133.298       -7.378       61.273       60.663       33.969     3754.394     3679.941     1153.883        1.835        0.429      167.490       33.837        0.041      338.705       11.538      861.893
09/29/2014  09:31:00       32.197        3.064       57.773       44.940       43.362       41.704     2019.611     1880.306     1739.219        0.501        0.282       32.343       31.520        0.950      339.274       12.496      861.887
09/29/2014  09:32:00       42.526       -3.716       37.064       46.091       40.766       32.622     2124.359     1661.890     1064.162        0.402        0.243       42.688       25.941        0.369      339.050       12.119      861.890
09/29/2014  09:33:00       53.050       43.437       13.425       53.056       37.687       36.049     2814.978     1420.341     1299.550        0.521        0.277       68.564       32.426        0.224      339.067       12.146      861.901
09/29/2014  09:34:00       95.257       53.334       20.852       37.297       35.648       31.780     1391.067     1270.805     1009.964        0.801        0.184      109.171       22.084        0.041      339.066       12.145      861.900
09/29/2014  09:35:00       75.878       54.926       13.945       42.386       21.244       30.347     1796.608      451.327      920.925        0.607        0.158       93.671       25.815        0.076      338.858       11.797      861.913
09/29/2014  09:36:00       -8.233      -57.293       22.650       21.981       69.550       31.660      483.183     4837.187     1002.374        0.509        0.316       57.882       40.014        0.478      339.481       12.844      861.915
09/29/2014  09:37:00       38.543     -145.111      -18.077       42.456       39.150       36.496     1802.517     1532.724     1331.930        1.377        0.233      150.142       23.646        0.025      339.033       12.089      861.894
09/29/2014  09:38:00       10.578       -5.612       51.116       34.907       69.846       39.778     1218.522     4878.523     1582.314        0.522        0.384       11.974       39.070       10.647      339.224       12.411      861.894
09/29/2014  09:39:00       10.614       31.977       65.536       35.199       31.507       19.025     1238.945      992.672      361.938        0.401        0.130       33.692       12.663        0.141      339.480       12.842      861.896
09/29/2014  09:40:00       35.472       22.805       59.682       49.098       64.750       51.814     2410.598     4192.613     2684.709        0.731        0.464       42.170       52.980        1.578      339.339       12.606      861.895
09/29/2014  09:41:00       73.067       40.534       72.820       55.683       48.586       37.747     3100.549     2360.602     1424.844        0.958        0.344       83.557       38.377        0.211      339.007       12.045      861.882
09/29/2014  09:42:00       66.997      110.384      109.867       49.167       52.499       30.663     2417.369     2756.186      940.229        1.743        0.306      129.125       29.697        0.053      339.028       12.081      861.861
09/29/2014  09:43:00       15.926       49.488       87.340       37.454       36.839       25.408     1402.836     1357.122      645.583        0.687        0.170       51.988       23.999        0.213      339.234       12.428      861.869
09/29/2014  09:44:00       64.237       96.204       89.556       48.478       42.750       31.512     2350.130     1827.582      993.004        1.329        0.259      115.679       23.918        0.043      339.002       12.038      861.892
09/29/2014  09:45:00       63.195       87.355       96.453       52.867       45.213       32.415     2794.967     2044.208     1050.763        1.341        0.294      107.817       26.413        0.060      339.024       12.075      861.891
09/29/2014  09:46:00      115.017       82.746       23.209       46.521       30.870       41.036     2164.220      952.936     1683.918        1.271        0.240      141.689       15.960        0.013      339.150       12.286      861.899
09/29/2014  09:47:00      140.816       56.234        6.136       68.053       35.632       38.808     4631.227     1269.657     1506.037        1.522        0.370      151.629       28.975        0.037      339.200       12.370      861.904
09/29/2014  09:48:00      130.851       91.028       10.191       54.078       38.905       37.045     2924.451     1513.599     1372.297        1.566        0.291      159.399       29.523        0.034      339.184       12.344      861.907
09/29/2014  09:49:00      106.563       49.444       -9.430       41.929       30.301       26.809     1758.001      918.167      718.697        0.864        0.170      117.475       18.628        0.025      339.024       12.075      861.919
09/29/2014  09:50:00       73.271       68.149        1.061       44.105       39.301       28.310     1945.239     1544.587      801.479        0.715        0.215      100.064       14.379        0.021      339.543       12.947      861.905
09/29/2014  09:51:00       34.869      106.246       -4.254       27.264       45.771       33.249      743.309     2094.949     1105.514        0.823        0.197      111.821       29.681        0.070      339.478       12.840      861.915
09/29/2014  09:52:00       17.735       61.416       -3.077       29.814       35.701       22.138      888.866     1274.549      490.073        0.337        0.133       63.925       17.449        0.075      339.590       13.028      861.923
09/29/2014  09:53:00      -24.112      103.622       -1.300       24.006       43.823       30.401      576.301     1920.435      924.224        0.737        0.171      106.390       22.239        0.044      339.522       12.914      861.947
09/29/2014  09:54:00       -2.333       22.926       18.909       35.847       38.855       34.818     1285.026     1509.740     1212.297        0.245        0.200       23.044       21.656        0.883      340.043       13.792      861.943
09/29/2014  09:55:00       82.142       56.361       18.254       52.162       35.967       33.284     2720.895     1293.633     1107.843        0.769        0.256       99.619       26.398        0.070      339.505       12.884      861.937
09/29/2014  09:56:00       83.649       70.701       33.774       58.421       45.957       43.455     3413.055     2112.066     1888.331        1.027        0.371      109.525       28.745        0.069      339.657       13.141      861.940
09/29/2014  09:57:00      102.027       97.053       45.077       39.915       32.685       42.729     1593.226     1068.279     1825.750        1.317        0.224      140.815       13.894        0.010      339.331       12.593      861.943
09/29/2014  09:58:00      105.432      108.381       43.870       42.992       46.534       44.705     1848.342     2165.368     1998.555        1.540        0.301      151.203       31.164        0.042      339.369       12.655      861.946
09/29/2014  09:59:00       53.275       51.596       32.436       47.626       32.880       24.826     2268.257     1081.090      616.308        0.526        0.198       74.165       16.304        0.048      339.448       12.787      861.953
09/29/2014  10:00:00       41.542       36.794       52.979       59.591       54.478       41.324     3551.132     2967.865     1707.691        0.706        0.411       55.494       31.386        0.320      339.613       13.067      861.947
09/29/2014  10:01:00       12.302       48.119       71.562       37.920       65.224       46.541     1437.960     4254.218     2166.100        0.772        0.393       49.667       44.328        0.797      339.768       13.328      861.934
09/29/2014  10:02:00        4.227        1.133       34.574       34.644       43.975       27.059     1200.191     1933.803      732.162        0.254        0.193        4.376       26.577       36.880      339.771       13.332      861.918
09/29/2014  10:03:00       72.735       96.461      104.617       49.342       66.379       46.794     2434.673     4406.153     2189.683        1.728        0.452      120.810       45.998        0.145      339.591       13.028      861.914
09/29/2014  10:04:00      123.842       70.327       89.954       62.823       55.563       50.069     3946.727     3087.287     2506.929        1.896        0.477      142.417       43.104        0.092      339.361       12.642      861.906
09/29/2014  10:05:00      101.674       65.633       71.639       53.843       58.469       42.301     2899.035     3418.677     1789.365        1.394        0.405      121.018       30.521        0.064      339.385       12.682      861.912
09/29/2014  10:06:00      116.772      118.253       90.792       43.855       46.084       42.612     1923.224     2123.704     1815.798        2.086        0.293      166.191       28.138        0.029      339.277       12.499      861.907
09/29/2014  10:07:00       89.733       70.450       56.784       74.850       52.823       42.158     5602.577     2790.269     1777.283        1.320        0.509      114.084       41.059        0.130      339.567       12.988      861.910
09/29/2014  10:08:00      179.661       78.919       17.777       53.762       54.533       44.471     2890.311     2973.841     1977.650        2.333        0.392      196.230       29.640        0.023      339.342       12.608      861.915
09/29/2014  10:09:00       52.192       21.353       16.290       53.294       60.294       35.924     2840.229     3635.422     1290.545        0.560        0.388       56.391       31.567        0.313      339.550       12.960      861.934
09/29/2014  10:10:00       51.518       26.496       63.749       55.247       62.019       40.531     3052.209     3846.380     1642.785        0.798        0.427       57.932       33.933        0.343      340.027       13.764      861.937
09/29/2014  10:11:00       63.603      101.947      120.170       68.356       65.080       42.592     4672.502     4235.403     1814.096        1.980        0.536      120.160       46.669        0.151      339.660       13.144      861.920
09/29/2014  10:12:00      122.334       97.508       77.277       71.446       83.098       74.237     5104.548     6905.263     5511.119        2.398        0.876      156.440       65.847        0.177      339.281       12.504      861.908
09/29/2014  10:13:00      158.193      103.659       46.894       66.280       57.055       63.398     4392.984     3255.284     4019.329        2.482        0.583      189.130       46.323        0.060      339.478       12.836      861.900
09/29/2014  10:14:00      130.046       77.956       60.738       54.264       79.813       57.875     2944.581     6370.147     3349.490        1.967        0.633      151.621       49.532        0.107      339.376       12.665      861.895
09/29/2014  10:15:00       36.549       72.676       92.050       48.184       57.420       43.279     2321.704     3297.101     1873.111        1.129        0.375       81.349       36.731        0.204      339.665       13.154      861.890
09/29/2014  10:16:00      114.173      113.575       84.418       88.339       62.251       60.816     7803.830     3875.127     3698.597        2.422        0.769      161.043       60.666        0.142      339.564       12.982      861.860
09/29/2014  10:17:00      105.270       88.311       41.789       44.103       35.563       40.051     1945.097     1264.727     1604.089        1.272        0.241      137.406       19.504        0.020      339.530       12.926      861.882
09/29/2014  10:18:00       75.980       80.193        8.296       55.048       32.958       45.669     3030.273     1086.224     2085.634        0.924        0.310      110.471       29.307        0.070      339.491       12.860      861.882
09/29/2014  10:19:00       -8.075       58.713        1.051       47.145       71.605       37.616     2222.617     5127.307     1414.966        0.614        0.438       59.266       38.449        0.421      339.672       13.165      861.871
09/29/2014  10:20:00       51.008       34.806       19.377       22.754       23.542       28.739      517.728      554.241      825.932        0.304        0.095       61.752       20.182        0.107      340.161       13.992      861.849
09/29/2014  10:21:00       74.676       32.347       28.673       43.443       32.626       26.491     1887.332     1064.460      701.762        0.555        0.183       81.381       21.425        0.069      340.280       14.192      861.845
09/29/2014  10:22:00      -16.919      -18.409       11.290       42.160       52.522       19.236     1777.465     2758.567      370.015        0.283        0.245       25.003       10.876        0.189      340.224       14.097      861.845
09/29/2014  10:23:00      -25.133      -11.059       14.370       27.295       32.219       19.493      745.026     1038.083      379.971        0.156        0.108       27.458       22.250        0.657      340.349       14.309      861.849
09/29/2014  10:24:00      -10.547      -34.053       18.456       32.028       50.427       31.803     1025.819     2542.922     1011.439        0.310        0.229       35.649       31.763        0.794      340.443       14.468      861.837
09/29/2014  10:25:00       13.157        2.691       61.940       37.334       85.122       57.844     1393.803     7245.717     3345.933        0.800        0.599       13.430       61.893       21.240      340.465       14.505      861.824
09/29/2014  10:26:00      -10.584        4.753       55.343       37.865       62.866       35.808     1433.756     3952.129     1282.189        0.493        0.333       11.602       37.384       10.382      340.300       14.226      861.818
09/29/2014  10:27:00       22.541      -42.643       34.445       47.355       70.374       44.225     2242.451     4952.447     1955.887        0.633        0.458       48.234       50.931        1.115      340.307       14.236      861.820
09/29/2014  10:28:00       93.385       60.793       41.051       48.325       61.013       49.216     2335.297     3722.637     2422.186        1.129        0.424      111.429       38.590        0.120      339.997       13.714      861.833
09/29/2014  10:29:00       65.510       69.228       77.212       50.615       58.123       41.637     2561.892     3378.327     1733.674        1.136        0.384       95.311       38.491        0.163      340.151       13.973      861.833
09/29/2014  10:30:00       69.715       51.529       48.447       67.510       53.597       41.853     4557.551     2872.599     1751.636        0.952        0.459       86.691       28.002        0.104      340.112       13.910      861.833
09/29/2014  10:31:00       54.916      -40.732       32.052       53.022       82.674       58.308     2811.344     6834.986     3399.872        0.937        0.652       68.373       58.362        0.729      340.272       14.178      861.829
09/29/2014  10:32:00       24.534     -112.947      -26.403       61.217       78.465       50.746     3747.531     6156.778     2575.168        1.327        0.624      115.580       36.320        0.099      340.210       14.074      861.855
09/29/2014  10:33:00      -24.267      -35.906       18.804       52.061       49.109       32.770     2710.330     2411.710     1073.878        0.421        0.310       43.338       15.049        0.121      340.401       14.396      861.881
09/29/2014  10:34:00       39.133       79.614       78.154       50.554       49.178       41.593     2555.746     2418.512     1729.944        1.034        0.335       88.712       31.709        0.128      340.334       14.284      861.885
09/29/2014  10:35:00       35.025       52.772       36.312       41.460       29.145       30.495     1718.909      849.447      929.971        0.441        0.175       63.338        5.365        0.007      340.377       14.356      861.872
09/29/2014  10:36:00        5.382       -1.812       49.100       23.413       48.021       31.029      548.186     2305.999      962.784        0.313        0.191        5.679       31.359       30.496      340.954       15.332      861.866
09/29/2014  10:37:00       -8.253       13.769       68.957       28.817       44.586       31.177      830.439     1987.887      972.023        0.440        0.190       16.053       32.500        4.099      341.022       15.445      861.853
09/29/2014  10:38:00        4.758       45.285       84.965       41.671       62.824       41.305     1736.509     3946.850     1706.115        0.834        0.369       45.534       39.545        0.754      340.865       15.181      861.830
09/29/2014  10:39:00       84.883       68.420       48.467       56.141       49.491       39.804     3151.855     2449.320     1584.352        1.071        0.359      109.024       24.907        0.052      340.580       14.699      861.826
09/29/2014  10:40:00      127.205      109.504       66.952       58.706       43.935       40.614     3446.338     1930.288     1649.494        1.984        0.351      167.846       28.918        0.030      340.072       13.839      861.817
09/29/2014  10:41:00      142.947       86.700       37.291       94.813       54.045       46.398     8989.432     2920.904     2152.747        2.170        0.703      167.185       29.985        0.032      340.164       13.995      861.803
09/29/2014  10:42:00       52.890       58.353       80.744       78.143       72.442       51.409     6106.264     5247.803     2642.843        1.336        0.700       78.755       56.198        0.509      340.744       14.976      861.783
09/29/2014  10:43:00       30.610       69.473       78.840       56.694       53.590       41.713     3214.251     2871.907     1739.990        0.990        0.391       75.917       33.872        0.199      340.959       15.339      861.779
09/29/2014  10:44:00       56.572       95.224       89.706       59.055       51.347       49.899     3487.455     2636.533     2489.957        1.446        0.431      110.761       34.498        0.097      340.824       15.111      861.765
09/29/2014  10:45:00       94.650      100.858       84.263       64.688       51.721       45.977     4184.496     2675.099     2113.853        1.760        0.449      138.314       27.311        0.039      340.944       15.314      861.741
09/29/2014  10:46:00      119.613       59.827       30.844       82.783       50.748       49.035     6853.097     2575.407     2404.397        1.533        0.592      133.740       40.032        0.090      340.630       14.783      861.719
09/29/2014  10:47:00      110.782       75.790       13.772       87.793       60.742       53.014     7707.585     3689.584     2810.521        1.620        0.710      134.226       37.294        0.077      340.469       14.511      861.690
09/29/2014  10:48:00      116.190      100.957       58.966       76.911       61.288       60.690     5915.357     3756.246     3683.294        2.026        0.668      153.923       50.899        0.109      340.455       14.485      861.696
09/29/2014  10:49:00       88.223       38.081       69.847       75.653       72.082       57.585     5723.423     5195.773     3316.066        1.417        0.712       96.091       65.375        0.463      340.401       14.397      861.708
09/29/2014  10:50:00       45.305       17.734       42.626       50.653       56.524       35.132     2565.719     3195.004     1234.261        0.559        0.350       48.652       33.070        0.462      340.957       15.336      861.703
09/29/2014  10:51:00       89.442       93.303       64.883       73.508       58.867       66.725     5403.463     3465.346     4452.172        1.712        0.666      129.249       55.620        0.185      340.637       14.794      861.706
09/29/2014  10:52:00       68.518      -19.076       39.183       78.284       98.434       67.204     6128.344     9689.184     4516.410        1.346        1.017       71.124       76.587        1.160      340.519       14.595      861.713
09/29/2014  10:53:00       38.529      -49.182       30.883       47.672       58.352       43.168     2272.659     3404.921     1863.459        0.620        0.377       62.477       41.018        0.431      340.867       15.184      861.715
09/29/2014  10:54:00       47.494        9.019       36.619       47.864       93.798       54.832     2290.959     8798.060     3006.542        0.888        0.705       48.343       66.553        1.895      340.777       15.032      861.706
09/29/2014  10:55:00       93.171     -102.156      -19.175       46.510       42.848       36.279     2163.204     1835.967     1316.182        1.240        0.266      138.263       30.902        0.050      340.451       14.481      861.693
09/29/2014  10:56:00       97.010     -108.349        4.593       67.846      115.139       66.228     4603.096    13256.875     4386.210        2.171        1.112      145.432       78.740        0.293      340.726       14.945      861.666
09/29/2014  10:57:00       85.929       31.424       35.296       51.042       85.179       49.779     2605.290     7255.403     2477.916        1.098        0.617       91.495       45.930        0.252      340.585       14.706      861.659
09/29/2014  10:58:00       38.695      -78.477       -2.454       46.598       31.156       25.096     2171.400      970.704      629.826        0.572        0.189       87.498       21.442        0.060      340.364       14.334      861.657
09/29/2014  10:59:00       48.733        1.290       20.660       54.017       56.039       32.896     2917.817     3140.409     1082.131        0.497        0.357       48.750       32.953        0.457      340.753       14.990      861.650
09/29/2014  11:00:00      126.884       78.780       22.614       36.168       34.546       29.311     1308.094     1193.398      859.135        1.309        0.168      149.352       15.418        0.011      340.475       14.519      861.646
09/29/2014  11:01:00       34.551       12.095       51.336       55.093       50.762       32.090     3035.291     2576.807     1029.767        0.531        0.332       36.607       30.806        0.708      341.084       15.551      861.647
09/29/2014  11:02:00       59.817       70.709       56.530       51.907       46.721       44.343     2694.373     2182.829     1966.271        0.931        0.342       92.616       21.179        0.052      341.096       15.572      861.654
09/29/2014  11:03:00       71.230       87.267       51.389       69.316       51.841       55.334     4804.684     2687.496     3061.847        1.294        0.528      112.646       25.471        0.051      341.127       15.624      861.638
09/29/2014  11:04:00      140.245      100.225        7.835       42.349       42.212       31.442     1793.409     1781.837      988.583        1.717        0.228      172.376       23.771        0.019      340.260       14.156      861.648
09/29/2014  11:05:00      107.182       91.832       16.644       47.963       43.398       41.571     2300.410     1883.429     1728.142        1.305        0.296      141.142       33.817        0.057      340.615       14.758      861.627
09/29/2014  11:06:00      140.609      101.133       26.643       65.131       54.827       47.605     4242.023     3006.002     2266.231        2.011        0.476      173.202       24.298        0.020      340.691       14.885      861.620
09/29/2014  11:07:00      110.153       87.779       51.427       73.166       50.520       54.869     5353.328     2552.302     3010.629        1.670        0.546      140.851       28.931        0.042      340.934       15.297      861.613
09/29/2014  11:08:00      144.267       55.308       31.534       92.892       63.841       60.267     8628.937     4075.620     3632.137        2.060        0.817      154.506       52.946        0.117      340.806       15.078      861.587
09/29/2014  11:09:00      124.412      105.104       65.832       93.176       72.026       53.585     8681.713     5187.719     2871.313        2.380        0.837      162.865       43.775        0.072      340.872       15.190      861.592
09/29/2014  11:10:00       82.007       65.817       73.781       68.860       49.143       46.751     4741.712     2415.072     2185.643        1.292        0.467      105.152       42.114        0.160      340.965       15.350      861.591
09/29/2014  11:11:00       66.207       75.356       51.731       53.377       43.384       55.698     2849.073     1882.200     3102.233        1.028        0.392      100.309       48.543        0.234      340.695       14.893      861.589
09/29/2014  11:12:00       42.507       21.473       -4.890       45.795       28.037       20.570     2097.184      786.069      423.125        0.280        0.165       47.622        8.847        0.035      340.835       15.130      861.611
09/29/2014  11:13:00        3.915      -54.872       -7.016       41.878       86.083       23.941     1753.808     7410.217      573.188        0.640        0.487       55.011       30.156        0.301      341.296       15.910      861.612
09/29/2014  11:14:00       62.994      -82.109       -9.849       48.442       90.679       44.781     2346.621     8222.677     2005.303        1.169        0.629      103.490       50.531        0.238      341.164       15.687      861.618
09/29/2014  11:15:00       39.578      -58.083        6.895       44.781       75.201       36.879     2005.309     5655.219     1360.083        0.700        0.451       70.285       47.173        0.450      341.075       15.536      861.610
09/29/2014  11:16:00       60.230        3.135       17.298       50.614       72.413       43.152     2561.761     5243.614     1862.094        0.680        0.483       60.311       44.044        0.533      341.309       15.933      861.583
09/29/2014  11:17:00      -12.812        8.716       39.374       23.973       36.269       30.265      574.703     1315.410      915.990        0.230        0.140       15.496       23.668        2.333      341.662       16.530      861.565
09/29/2014  11:18:00        4.065      -36.984       28.922       38.103       55.000       44.199     1451.846     3025.001     1953.589        0.432        0.322       37.207       34.013        0.836      341.618       16.455      861.539
09/29/2014  11:19:00       38.709      -86.236        1.884       54.119       63.509       40.305     2928.829     4033.356     1624.519        0.876        0.429       94.525       44.698        0.224      341.045       15.484      861.533
09/29/2014  11:20:00       40.571      -21.622       29.897       52.747       80.233       46.006     2782.205     6437.350     2116.592        0.717        0.567       45.973       47.181        1.053      341.132       15.632      861.527
09/29/2014  11:21:00       95.567       85.410       45.835       30.947       29.285       27.965      957.731      857.592      782.038        1.056        0.130      128.172       16.712        0.017      340.776       15.031      861.522
09/29/2014  11:22:00       49.908      -14.089       41.318       41.684       75.955       42.343     1737.571     5769.182     1792.921        0.685        0.465       51.858       43.532        0.705      341.367       16.030      861.533
09/29/2014  11:23:00       28.369      -34.073       33.527       42.159       57.227       36.074     1777.378     3274.979     1301.340        0.472        0.318       44.337       24.606        0.308      341.438       16.151      861.532
09/29/2014  11:24:00       66.037       33.437       33.409       45.720       56.851       39.041     2090.356     3232.033     1524.184        0.672        0.342       74.020       28.940        0.153      341.242       15.819      861.530
09/29/2014  11:25:00        5.257       10.358       43.475       28.591       42.687       28.676      817.447     1822.201      822.295        0.274        0.173       11.616       21.385        3.389      342.005       17.112      861.532
09/29/2014  11:26:00       73.262       67.765       94.496       62.372       48.321       48.172     3890.244     2334.930     2320.509        1.372        0.427       99.797       37.982        0.145      341.575       16.384      861.526
09/29/2014  11:27:00       35.093       12.059       27.012       47.640       68.025       38.243     2269.558     4627.437     1462.538        0.523        0.418       37.108       28.438        0.587      341.451       16.173      861.532
09/29/2014  11:28:00       46.819      -38.049      -16.500       54.527       30.751       32.439     2973.227      945.647     1052.292        0.444        0.249       60.330       10.812        0.032      341.072       15.531      861.539
09/29/2014  11:29:00      108.602       93.568       79.132       73.476       62.781       51.260     5398.795     3941.505     2627.613        1.939        0.598      143.351       37.059        0.067      341.376       16.046      861.527
09/29/2014  11:30:00      128.549      106.008        8.796       51.435       55.609       49.218     2645.553     3092.362     2422.380        1.800        0.408      166.621       28.138        0.029      341.245       15.823      861.535
09/29/2014  11:31:00       57.413       67.521        7.501       27.737       34.028       30.807      769.340     1157.892      949.052        0.539        0.144       88.630       19.304        0.047      341.254       15.838      861.530
09/29/2014  11:32:00      126.368       85.767        0.426       55.742       42.441       31.613     3107.216     1801.254      999.382        1.462        0.295      152.724       15.776        0.011      341.345       15.993      861.512
09/29/2014  11:33:00       77.195       45.779       20.868       53.442       39.380       34.171     2856.027     1550.746     1167.666        0.703        0.279       89.748       21.194        0.056      341.555       16.348      861.504
09/29/2014  11:34:00      122.451       86.182       15.335       31.422       25.003       26.124      987.318      625.146      682.466        1.248        0.115      149.739       19.199        0.016      341.044       15.483      861.495
09/29/2014  11:35:00       82.489       64.844        8.678       46.466       39.354       33.621     2159.126     1548.743     1130.364        0.796        0.242      104.925       14.652        0.019      341.260       15.851      861.482
09/29/2014  11:36:00       85.020       66.117       11.955       35.896       23.258       28.769     1288.542      540.912      827.656        0.720        0.133      107.703       12.096        0.013      341.153       15.669      861.474
09/29/2014  11:37:00       39.692       35.268       27.465       22.323       24.965       23.573      498.318      623.246      555.668        0.263        0.084       53.097       11.747        0.049      341.290       15.900      861.455
09/29/2014  11:38:00       43.073       34.806       65.845       37.669       37.237       31.897     1418.939     1386.573     1017.427        0.561        0.191       55.378       24.332        0.193      341.662       16.530      861.439
09/29/2014  11:39:00       37.352      -69.331       -4.414       25.603       33.679       28.241      655.505     1134.302      797.551        0.440        0.129       78.752       20.000        0.064      341.307       15.929      861.447
09/29/2014  11:40:00       15.056      -24.262       30.532       19.593       22.940       20.795      383.878      526.231      432.419        0.154        0.067       28.553       15.108        0.280      341.528       16.303      861.446
09/29/2014  11:41:00       -3.404      -33.575        3.026       18.677       48.068       21.322      348.824     2310.546      454.623        0.213        0.156       33.747       19.823        0.345      341.432       16.140      861.439
09/29/2014  11:42:00       31.549       48.209      -11.142       37.571       44.864       25.378     1411.616     2012.734      644.049        0.376        0.203       57.615       23.557        0.167      341.838       16.829      861.433
09/29/2014  11:43:00       74.474       74.996        2.927       48.383       42.221       35.978     2340.961     1782.592     1294.388        0.830        0.271      105.692       24.669        0.054      341.730       16.646      861.428
09/29/2014  11:44:00       44.995       42.483        0.547       30.284       27.618       21.534      917.125      762.727      463.725        0.299        0.107       61.882        7.254        0.014      341.344       15.992      861.437
09/29/2014  11:45:00       85.716       66.516       20.398       54.151       32.821       31.653     2932.373     1077.190     1001.892        0.860        0.251      108.497       24.978        0.053      341.484       16.227      861.427
09/29/2014  11:46:00       89.653       81.826       59.523       59.009       47.872       44.667     3482.011     2291.706     1995.116        1.302        0.388      121.380       34.727        0.082      341.541       16.325      861.425
09/29/2014  11:47:00       53.543       71.319       51.308       40.737       35.754       24.831     1659.510     1278.317      616.603        0.707        0.178       89.181       25.366        0.081      341.525       16.298      861.429
09/29/2014  11:48:00       33.379      -58.294        8.262       40.391       39.951       24.120     1631.458     1596.051      581.778        0.419        0.190       67.174       25.399        0.143      341.694       16.586      861.437
09/29/2014  11:49:00      -36.407        3.866       14.775       40.684       26.674       19.788     1655.161      711.504      391.561        0.216        0.138       36.612       14.308        0.153      341.628       16.473      861.436
09/29/2014  11:50:00       -2.570        8.784       30.429       18.592       38.335       30.860      345.670     1469.551      952.332        0.189        0.138        9.152       27.467        9.007      342.130       17.323      861.424
09/29/2014  11:51:00       58.592       59.443       36.532       42.992       30.368       29.485     1848.315      922.231      869.336        0.597        0.182       83.466       15.032        0.032      341.795       16.756      861.428
09/29/2014  11:52:00       30.799      124.550      -12.208       26.576       51.499       30.285      706.306     2652.177      917.164        1.044        0.214      128.302       28.615        0.050      341.614       16.448      861.436
09/29/2014  11:53:00        7.734      132.668      -24.396       29.268       21.183       14.164      856.612      448.720      200.628        0.988        0.075      132.893        9.778        0.005      341.432       16.140      861.418
09/29/2014  11:54:00       30.271       74.483        1.042       47.971       39.366       28.220     2301.254     1549.700      796.383        0.556        0.232       80.400       29.179        0.132      341.776       16.724      861.404
09/29/2014  11:55:00       78.585       81.253       32.770       33.193       24.810       27.721     1101.766      615.527      768.446        0.817        0.124      113.038       17.153        0.023      341.737       16.659      861.396
09/29/2014  11:56:00       64.676       46.599       41.724       57.150       44.776       45.218     3266.168     2004.924     2044.635        0.770        0.366       79.715       22.357        0.079      342.050       17.189      861.391
09/29/2014  11:57:00       87.154       81.923       13.167       59.635       48.686       45.853     3556.337     2370.350     2102.528        1.125        0.401      119.613       30.371        0.064      341.793       16.752      861.390
09/29/2014  11:58:00       46.299       38.752       26.644       39.697       31.367       32.963     1575.820      983.885     1086.576        0.400        0.182       60.376       23.387        0.150      342.066       17.215      861.379
09/29/2014  11:59:00        9.258      -50.776        3.639       44.022       41.890       24.905     1937.951     1754.759      620.250        0.349        0.216       51.613       22.252        0.186      342.133       17.330      861.360
09/29/2014  12:00:00       -7.997      -30.178       -2.007       20.538       32.658       20.649      421.793     1066.528      426.369        0.145        0.096       31.220       17.480        0.314      342.414       17.808      861.350
09/29/2014  12:01:00       15.736      -51.483       24.875       32.499       84.190       38.543     1056.208     7087.987     1485.566        0.657        0.481       53.834       30.450        0.320      342.320       17.647      861.348
09/29/2014  12:02:00      100.258       75.073       34.678       86.365       56.468       41.620     7458.851     3188.625     1732.191        1.463        0.619      125.250       43.541        0.121      342.135       17.332      861.362
09/29/2014  12:03:00      120.847       93.477       20.057       59.997       56.310       42.115     3599.630     3170.793     1773.713        1.614        0.427      152.780       21.713        0.020      341.978       17.065      861.353
09/29/2014  12:04:00      139.601       90.199       33.771       81.869       35.807       49.339     6702.526     1282.163     2434.358        1.959        0.521      166.206       41.241        0.062      342.014       17.126      861.364
09/29/2014  12:05:00       50.326       61.602       18.994       61.711       53.313       45.991     3808.232     2842.243     2115.205        0.773        0.438       79.546       29.635        0.139      342.254       17.535      861.371
09/29/2014  12:06:00       95.879       96.794       -0.080       54.686       45.845       43.570     2990.534     2101.785     1898.388        1.278        0.350      136.242       24.205        0.032      342.065       17.214      861.360
09/29/2014  12:07:00       76.340       68.265       11.916       52.551       39.344       29.406     2761.615     1547.927      864.701        0.790        0.259      102.411       15.291        0.022      342.052       17.191      861.354
09/29/2014  12:08:00       82.998       39.638        4.237       52.484       34.570       35.035     2754.622     1195.088     1227.481        0.683        0.259       91.977       16.309        0.031      342.082       17.241      861.340
09/29/2014  12:09:00       26.589        5.542        7.497       40.767       37.697       23.169     1661.954     1421.098      536.803        0.221        0.181       27.161       17.315        0.406      342.426       17.825      861.327
09/29/2014  12:10:00        1.544       -9.574       36.289       39.991       60.358       46.428     1599.271     3643.110     2155.558        0.440        0.370        9.697       45.601       22.112      342.640       18.192      861.317
09/29/2014  12:11:00       44.994      -46.976        1.336       51.440       41.207       33.856     2646.088     1698.022     1146.197        0.486        0.275       65.048       20.076        0.095      342.186       17.419      861.322
09/29/2014  12:12:00        3.908      -43.448       21.068       22.026       35.783       22.793      485.154     1280.442      519.539        0.232        0.114       43.623       19.069        0.191      342.485       17.927      861.309
09/29/2014  12:13:00        0.932        3.573        4.878       17.949       10.999       14.839      322.176      120.969      220.189        0.035        0.033        3.693        9.837        7.097      342.786       18.439      861.290
09/29/2014  12:14:00       38.508       40.654       22.439       46.144       30.007       22.403     2129.251      900.446      501.877        0.358        0.177       55.997       20.848        0.139      342.519       17.986      861.267
09/29/2014  12:15:00      105.651       66.945       15.494       57.033       37.087       38.864     3252.753     1375.413     1510.377        1.101        0.307      125.075       31.277        0.063      342.401       17.785      861.257
09/29/2014  12:16:00       79.252       50.710       34.289       36.082       40.208       40.411     1301.912     1616.704     1633.020        0.729        0.228       94.088       28.049        0.089      342.418       17.813      861.250
09/29/2014  12:17:00      110.048       36.726       18.660       52.957       39.042       37.727     2804.478     1524.290     1423.300        0.978        0.288      116.015       26.214        0.051      342.604       18.131      861.243
09/29/2014  12:18:00      141.648       65.704        2.355       67.396       47.599       36.187     4542.246     2265.701     1309.515        1.625        0.406      156.145       30.393        0.038      342.349       17.696      861.247
09/29/2014  12:19:00      132.091      121.840       13.872       48.024       36.449       38.111     2306.258     1328.541     1452.424        1.879        0.254      179.703       28.718        0.026      342.454       17.875      861.231
09/29/2014  12:20:00      126.043       83.886       39.184       50.730       42.727       55.845     2573.492     1825.628     3118.659        1.599        0.376      151.406       25.990        0.029      342.685       18.266      861.224
09/29/2014  12:21:00       76.517       73.050       36.396       51.030       46.293       49.888     2604.110     2143.057     2488.856        0.987        0.362      105.788       42.243        0.159      342.494       17.942      861.221
09/29/2014  12:22:00       61.320       36.174       49.996       50.498       65.843       46.787     2550.021     4335.282     2189.070        0.832        0.454       71.195       39.192        0.303      342.613       18.145      861.204
09/29/2014  12:23:00       65.979     -106.638       -5.226       47.652       49.280       38.644     2270.698     2428.508     1493.370        1.097        0.310      125.399       33.744        0.072      342.266       17.557      861.209
09/29/2014  12:24:00       13.298      -26.932       37.942       31.580       45.703       33.713      997.308     2088.789     1136.598        0.328        0.211       30.037       15.608        0.270      342.835       18.523      861.189
09/29/2014  12:25:00       37.299      -12.843       33.948       31.864       45.963       30.654     1015.285     2112.553      939.639        0.339        0.203       39.448       12.755        0.105      342.844       18.538      861.193
09/29/2014  12:26:00       66.083       -7.653       15.270       43.631       50.328       35.418     1903.641     2532.893     1254.457        0.517        0.285       66.524       26.778        0.162      342.539       18.019      861.182
09/29/2014  12:27:00       91.364     -117.823      -24.677       68.260       99.658       36.492     4659.470     9931.740     1331.638        1.938        0.796      149.096       47.506        0.102      342.718       18.323      861.152
09/29/2014  12:28:00       71.987     -144.744      -11.454       40.176       71.188       27.100     1614.134     5067.758      734.398        1.684        0.371      161.657       31.089        0.037      342.516       17.978      861.128
09/29/2014  12:29:00       -7.253      -49.155        8.122       30.561       43.333       45.070      933.984     1877.730     2031.333        0.369        0.242       49.687       35.897        0.522      343.272       19.268      861.105
09/29/2014  12:30:00       32.883      -94.997       -7.808       74.861       97.338       46.334     5604.232     9474.624     2146.864        1.369        0.861      100.527       58.371        0.337      343.253       19.233      861.121
09/29/2014  12:31:00       48.788     -128.478       -3.779       36.617       49.992       38.165     1340.811     2499.179     1456.546        1.210        0.265      137.430       21.116        0.024      342.674       18.249      861.131
09/29/2014  12:32:00       35.571      -36.622       34.461       37.011       77.810       39.045     1369.781     6054.322     1524.549        0.637        0.447       51.053       48.056        0.886      342.829       18.513      861.142
09/29/2014  12:33:00       37.700       -7.458       20.702       61.175       43.585       20.969     3742.434     1899.636      439.681        0.399        0.304       38.431       22.584        0.345      342.859       18.564      861.154
09/29/2014  12:34:00       25.380        4.253       37.224       31.031       37.734       28.637      962.912     1423.838      820.096        0.263        0.160       25.734       25.212        0.960      343.356       19.410      861.162
09/29/2014  12:35:00      -31.839       14.550       21.081       34.034       26.706       30.115     1158.307      713.212      906.896        0.222        0.139       35.006       26.429        0.570      343.444       19.560      861.165
09/29/2014  12:36:00      -49.482       15.478       -2.102       52.885       26.937       20.323     2796.836      725.591      413.015        0.331        0.197       51.847       12.594        0.059      343.184       19.119      861.189
09/29/2014  12:37:00       19.387       15.442       39.109       31.971       32.648       30.849     1022.119     1065.912      951.631        0.259        0.152       24.786       27.562        1.237      343.500       19.656      861.140
09/29/2014  12:38:00      -18.256      -92.145       22.154       78.148      102.444       57.763     6107.068    10494.870     3336.518        1.462        0.997       93.936       61.846        0.433      343.375       19.442      861.078
09/29/2014  12:39:00      -26.301       -0.394       17.421       54.378       43.894       27.517     2956.915     1926.669      757.164        0.332        0.282       26.304       18.336        0.486      343.670       19.946      861.112
09/29/2014  12:40:00      -61.792       57.438       -2.819       59.055       51.813       32.219     3487.502     2684.617     1038.059        0.717        0.361       84.364       31.162        0.136      343.679       19.961      861.133
09/29/2014  12:41:00      -76.230       -6.088        1.303       68.803       38.386       32.674     4733.837     1473.472     1067.607        0.656        0.364       76.473       35.996        0.222      343.602       19.831      861.127
09/29/2014  12:42:00     -111.598       63.514      -10.979      108.319       85.252       58.746    11733.113     7267.958     3451.134        1.953        1.123      128.406       53.522        0.174      343.572       19.777      861.098
09/29/2014  12:43:00     -229.019       33.953      -19.914      160.531      143.788       76.285    25770.121    20675.026     5819.440        5.312        2.613      231.522       69.280        0.090      343.462       19.588      861.049
09/29/2014  12:44:00     -226.696       60.499      -17.554      115.454       79.979       60.362    13329.611     6396.661     3643.592        3.936        1.168      234.630       54.142        0.053      343.585       19.798      861.031
09/29/2014  12:45:00      -54.288       15.675       -2.997       77.915       59.783       49.152     6070.754     3573.955     2415.908        0.763        0.603       56.506       49.533        0.768      344.176       20.809      861.024
09/29/2014  12:46:00     -199.937       95.300      -33.316       94.506       71.835       56.912     8931.397     5160.208     3239.029        3.375        0.867      221.488       50.387        0.052      343.736       20.054      861.027
09/29/2014  12:47:00     -186.077      243.669      -52.049       95.868      139.644       49.221     9190.611    19500.333     2422.667        6.391        1.556      306.593       37.178        0.015      343.589       19.804      861.015
09/29/2014  12:48:00     -164.522      195.043      -40.611      102.177      110.764       62.109    10440.127    12268.568     3857.516        4.666        1.328      255.165       58.176        0.052      343.770       20.113      861.005
09/29/2014  12:49:00     -110.321      291.968      -39.070       64.540      137.177       55.533     4165.471    18817.642     3083.878        6.250        1.303      312.116       57.231        0.034      343.628       19.870      860.980
09/29/2014  12:50:00     -143.186      341.473      -45.509      109.090      146.415       71.117    11900.727    21437.479     5057.635        8.878        1.920      370.278       65.337        0.031      343.604       19.830      860.961
09/29/2014  12:51:00     -112.628      234.247      -30.603      127.871      140.879       58.358    16351.065    19846.813     3405.676        5.404        1.980      259.917       69.567        0.072      343.744       20.070      860.952
09/29/2014  12:52:00     -189.872      262.534      -34.616      147.949      120.644       68.617    21888.999    14554.873     4708.329        7.366        2.058      323.999       80.572        0.062      343.738       20.059      860.957
09/29/2014  12:53:00     -155.427      293.016      -32.400      124.084      135.709       71.934    15396.813    18416.815     5174.538        7.502        1.949      331.687       71.097        0.046      343.763       20.099      860.927
09/29/2014  12:54:00     -113.354      252.046      -38.100       99.671      118.723       57.664     9934.364    14095.036     3325.142        5.259        1.368      276.363       46.243        0.028      343.782       20.133      860.910
09/29/2014  12:55:00     -161.244      280.536      -19.849      126.970      188.032       73.383    16121.258    35356.098     5385.075        8.097        2.843      323.574       87.772        0.074      343.948       20.417      860.880
09/29/2014  12:56:00     -160.986      286.500      -30.357      107.298      126.850       65.417    11512.942    16090.935     4279.435        7.040        1.594      328.632       62.257        0.036      343.992       20.490      860.871
09/29/2014  12:57:00     -224.349      279.340      -41.926      134.368      163.814       78.888    18054.829    26835.116     6223.345        9.061        2.556      358.278       87.299        0.059      343.935       20.395      860.872
09/29/2014  12:58:00     -161.241      245.066      -37.275      121.954      127.209       71.879    14872.808    16182.039     5166.558        6.183        1.811      293.353       80.001        0.074      343.992       20.492      860.882
09/29/2014  12:59:00     -181.652      231.192      -32.267       97.420      181.470       68.045     9490.679    32931.238     4630.166        6.726        2.353      294.019       61.667        0.044      344.176       20.805      860.901
09/29/2014  13:00:00     -499.991      -78.813      -35.779      163.590      163.383       81.953    26761.559    26694.135     6716.263       15.882        3.009      506.165       75.915        0.022      343.739       20.060      860.935
09/29/2014  13:01:00     -342.466      -54.553      -39.574      163.416      153.275       82.283    26704.950    23493.206     6770.456        8.939        2.848      346.784       81.931        0.056      343.751       20.080      860.948
09/29/2014  13:02:00       20.959       70.449       14.600      122.439       68.132       43.437    14991.197     4642.035     1886.791        1.356        1.076       73.500       38.836        0.279      344.164       20.787      860.974
09/29/2014  13:03:00     -147.344      271.410      -41.431      125.783      234.778       68.921    15821.331    55120.585     4750.097        8.638        3.785      308.826       76.932        0.062      343.818       20.195      860.986
09/29/2014  13:04:00     -100.700      266.806      -25.254       83.181      114.836       57.500     6919.083    13187.377     3306.299        5.268        1.171      285.177       65.161        0.052      343.864       20.273      860.920
09/29/2014  13:05:00      -29.267      164.890      -14.497       49.179       97.110       52.209     2418.583     9430.380     2725.828        2.141        0.729      167.467       50.152        0.090      344.198       20.846      860.866
09/29/2014  13:06:00     -118.220      152.363      -29.888       78.156      133.713       68.384     6108.391    17879.226     4676.390        3.337        1.433      192.848       49.567        0.066      344.217       20.878      860.842
09/29/2014  13:07:00     -202.765      204.633      -23.115      109.867      114.227       72.747    12070.709    13047.732     5292.158        5.696        1.521      288.077       62.131        0.047      344.257       20.944      860.832
09/29/2014  13:08:00     -211.942       56.087      -22.511      123.689      149.636       69.694    15299.026    22390.982     4857.300        4.555        2.127      219.238       57.165        0.068      344.298       21.015      860.818
09/29/2014  13:09:00     -255.487      -11.239      -25.419      100.594      110.033       60.686    10119.228    12107.284     3682.771        4.597        1.295      255.734       48.731        0.036      344.258       20.946      860.843
09/29/2014  13:10:00     -258.259       31.294      -46.187      158.334       94.687       52.441    25069.705     8965.675     2750.029        5.329        1.839      260.148       52.835        0.041      344.084       20.649      860.849
09/29/2014  13:11:00     -269.003      -26.649      -19.514      172.821      128.471       68.000    29867.002    16504.919     4623.973        6.222        2.550      270.320       76.940        0.081      343.988       20.487      860.822
09/29/2014  13:12:00      -80.025       87.252        2.545       73.484      151.122       58.986     5399.832    22837.889     3479.354        2.286        1.586      118.393       63.551        0.288      344.207       20.862      860.800
09/29/2014  13:13:00     -144.535      228.427      -17.634       83.551      154.287       77.577     6980.831    23804.513     6018.215        5.509        1.840      270.313       66.004        0.060      344.255       20.940      860.801
09/29/2014  13:14:00     -171.934       46.762      -29.544      100.313      134.351       60.237    10062.724    18050.082     3628.440        3.218        1.587      178.180       58.104        0.106      344.233       20.903      860.799
09/29/2014  13:15:00     -251.006      110.734      -51.776      144.627      145.808       79.081    20916.988    21259.861     6253.853        6.318        2.422      274.346       79.138        0.083      344.036       20.567      860.788
09/29/2014  13:16:00     -308.720      176.464      -80.829      203.404      172.205      128.831    41373.044    29654.664    16597.483       11.029        4.381      355.594      131.629        0.137      343.931       20.388      860.792
09/29/2014  13:17:00     -170.380      115.244      -44.863      138.938      141.919       75.451    19303.893    20141.119     5692.903        4.472        2.257      205.695       54.874        0.071      344.102       20.680      860.781
09/29/2014  13:18:00     -173.127      217.129      -30.617      113.544      120.996       75.186    12892.266    14639.919     5652.912        5.561        1.659      277.701       62.028        0.050      344.027       20.552      860.778
09/29/2014  13:19:00     -147.833      138.550       -8.232      101.872      111.935       67.275    10377.874    12529.456     4525.975        3.427        1.372      202.610       62.657        0.096      344.144       20.753      860.799
09/29/2014  13:20:00     -168.916       34.625      -39.639      106.723       99.073       67.129    11389.749     9815.505     4506.298        2.850        1.286      172.429       47.765        0.077      344.145       20.754      860.786
09/29/2014  13:21:00     -252.802       68.080      -48.420      149.135      172.555       71.445    22241.099    29775.395     5104.351        6.400        2.856      261.809       55.715        0.045      343.993       20.494      860.793
09/29/2014  13:22:00     -239.663      245.850      -50.997      131.674      105.959       75.608    17338.088    11227.386     5716.643        7.738        1.714      343.337       67.535        0.039      343.944       20.410      860.831
09/29/2014  13:23:00     -145.650      248.992      -25.126      126.667      144.087       79.465    16044.407    20761.121     6314.659        6.347        2.156      288.463       92.775        0.103      344.151       20.763      860.781
09/29/2014  13:24:00     -316.270       17.631      -24.312      156.561      168.274       67.244    24511.331    28316.075     4521.782        7.913        2.867      316.761       62.443        0.039      344.051       20.594      860.755
09/29/2014  13:25:00     -225.384      137.944      -36.315      142.584      159.958       85.904    20330.333    25586.510     7379.567        6.221        2.665      264.248       82.066        0.096      344.104       20.683      860.752
09/29/2014  13:26:00     -128.426      157.792      -24.346      138.852      183.982       77.236    19279.842    33849.443     5965.441        5.053        2.955      203.449       72.505        0.127      344.205       20.856      860.725
09/29/2014  13:27:00     -175.327      236.232      -19.183      121.939      147.136       82.374    14869.110    21648.971     6785.467        6.510        2.165      294.186       68.678        0.054      344.255       20.942      860.711
09/29/2014  13:28:00     -190.969      269.458      -31.000      112.296      127.133       76.323    12610.437    16162.848     5825.177        7.231        1.730      330.267       65.453        0.039      344.191       20.831      860.716
09/29/2014  13:29:00     -179.183      259.304      -35.798      106.057      131.166       77.314    11248.078    17204.549     5977.480        6.752        1.722      315.191       77.452        0.060      344.073       20.631      860.731
09/29/2014  13:30:00     -162.748      171.617      -22.135       93.679      111.223       60.149     8775.833    12370.518     3617.873        4.059        1.238      236.515       50.035        0.045      344.253       20.937      860.721
09/29/2014  13:31:00     -138.066      149.209      -19.166      125.071      179.726       65.752    15642.669    32301.424     4323.351        4.697        2.613      203.287       44.792        0.049      344.362       21.124      860.717
09/29/2014  13:32:00     -160.268      256.488      -36.267      102.528      177.883       69.782    10512.081    31642.187     4869.568        6.990        2.351      302.443       57.199        0.036      344.113       20.699      860.714
09/29/2014  13:33:00     -192.555      219.528      -37.176      151.129      189.321       75.419    22839.881    35842.323     5687.963        7.550        3.219      292.010       88.063        0.091      344.162       20.784      860.715
09/29/2014  13:34:00      -85.058      290.561      -25.112       92.335      122.941       52.740     8525.751    15114.411     2781.503        5.935        1.321      302.755       60.944        0.041      344.188       20.827      860.703
09/29/2014  13:35:00     -193.266      -35.298       -8.355      103.795      135.549       61.829    10773.443    18373.424     3822.815        3.581        1.648      196.463       51.973        0.070      344.337       21.081      860.692
09/29/2014  13:36:00     -257.842       93.501      -55.812      160.893      186.541       96.286    25886.644    34797.458     9270.934        7.414        3.498      274.272       82.493        0.090      344.144       20.752      860.701
09/29/2014  13:37:00     -161.267       15.240      -15.395      126.075       70.237       54.040    15894.922     4933.250     2920.338        2.511        1.187      161.985       61.818        0.146      344.197       20.842      860.691
09/29/2014  13:38:00      -93.267      -38.373       -2.400      136.108      109.325       43.820    18525.446    11951.972     1920.234        2.128        1.620      100.853       37.607        0.139      344.530       21.414      860.675
09/29/2014  13:39:00     -147.357      115.769      -14.041      123.747       85.345       60.855    15313.267     7283.832     3703.315        3.080        1.315      187.395       63.806        0.116      344.416       21.217      860.686
09/29/2014  13:40:00     -223.951       68.440      -34.352      124.153      176.392       92.825    15414.074    31114.229     8616.435        5.557        2.757      234.175       90.416        0.149      344.342       21.090      860.662
09/29/2014  13:41:00     -144.611       78.033      -22.840      118.168      155.797       71.351    13963.665    24272.662     5090.896        3.542        2.166      164.321       66.457        0.164      344.291       21.002      860.666
09/29/2014  13:42:00      -40.679      200.953        8.191       59.049       96.730       55.862     3486.732     9356.776     3120.586        2.903        0.798      205.029       50.570        0.061      344.566       21.475      860.664
09/29/2014  13:43:00     -125.700      127.817       -3.407       95.016      114.075       64.418     9027.959    13013.039     4149.709        2.917        1.310      179.270       60.772        0.115      344.510       21.379      860.656
09/29/2014  13:44:00      -90.339      258.498      -28.109       79.733      145.213       58.250     6357.377    21086.892     3393.055        5.330        1.542      273.829       64.520        0.056      344.459       21.289      860.664
09/29/2014  13:45:00      -82.472      258.483      -25.001      101.715      207.901       72.554    10345.949    43222.822     5264.114        6.653        2.942      271.321       95.235        0.123      344.405       21.197      860.650
09/29/2014  13:46:00     -235.789      291.796      -46.317      170.765      104.203       73.922    29160.822    10858.325     5464.469        9.418        2.274      375.155       78.946        0.044      344.083       20.646      860.672
09/29/2014  13:47:00     -183.095      309.507      -36.047       98.857      115.031       62.667     9772.762    13232.165     3927.178        7.877        1.347      359.609       65.547        0.033      344.183       20.819      860.659
09/29/2014  13:48:00     -128.466      178.054      -25.639       95.540      111.691       48.146     9127.933    12474.973     2317.995        3.639        1.196      219.560       50.672        0.053      344.338       21.082      860.658
09/29/2014  13:49:00      -96.539      293.639      -29.990       88.017      113.942       55.961     7747.031    12982.865     3131.630        6.015        1.193      309.101       43.504        0.020      344.329       21.067      860.640
09/29/2014  13:50:00      -34.414      221.031      -37.927       67.192      162.665       41.608     4514.808    26459.785     1731.211        4.209        1.635      223.694       44.993        0.040      344.460       21.291      860.611
09/29/2014  13:51:00      -93.860      242.308      -24.197       94.583       97.448       58.458     8945.884     9496.135     3417.306        4.498        1.093      259.851       57.578        0.049      344.243       20.920      860.585
09/29/2014  13:52:00      -73.343      201.951      -20.697       69.940       80.963       47.902     4891.597     6555.069     2294.621        3.016        0.687      214.856       45.573        0.045      344.443       21.263      860.607
09/29/2014  13:53:00      -84.606      231.490      -23.648       85.506      173.585       60.412     7311.361    30131.840     3649.584        5.119        2.055      246.467       75.291        0.093      344.560       21.463      860.585
09/29/2014  13:54:00     -120.600      486.391      -49.825       77.090      125.948       56.294     5942.862    15862.823     3168.980       13.928        1.249      501.119       51.202        0.010      344.059       20.607      860.579
09/29/2014  13:55:00     -188.667      273.751      -46.356      121.403      157.857       50.595    14738.674    24918.864     2559.829        7.744        2.111      332.468       42.253        0.016      344.227       20.892      860.542
09/29/2014  13:56:00      -71.792      360.502      -49.248       89.868      121.492       62.835     8076.276    14760.291     3948.297        8.216        1.339      367.581       65.517        0.032      344.192       20.832      860.523
09/29/2014  13:57:00     -106.900      427.437      -39.111       89.110      120.316       66.254     7940.536    14476.020     4389.582       11.123        1.340      440.602       58.274        0.017      344.129       20.724      860.504
09/29/2014  13:58:00      -67.421      409.027      -51.000       81.766      133.729       50.357     6685.641    17883.543     2535.811       10.077        1.355      414.546       57.107        0.019      344.185       20.821      860.492
09/29/2014  13:59:00     -120.842      294.129      -35.252       82.784      129.473       60.510     6853.249    16763.356     3661.493        6.481        1.364      317.985       59.459        0.035      344.373       21.143      860.498
09/29/2014  14:00:00     -153.642      221.412      -30.850       84.110       93.301       57.293     7074.546     8705.060     3282.507        4.632        0.953      269.498       56.534        0.044      344.543       21.433      860.495
09/29/2014  14:01:00     -203.498      232.618      -43.185      111.842      104.933       64.463    12508.668    11010.923     4155.534        6.253        1.384      309.067       65.139        0.044      344.479       21.323      860.508
09/29/2014  14:02:00     -124.972      310.249      -46.692      112.673      125.331       63.308    12695.263    15707.903     4007.841        7.323        1.621      334.473       74.397        0.049      344.170       20.796      860.495
09/29/2014  14:03:00     -216.304      254.816      -52.866      130.144      159.311       81.984    16937.345    25379.937     6721.297        8.177        2.452      334.244       78.999        0.056      344.223       20.886      860.493
09/29/2014  14:04:00     -156.088       30.524      -12.650      149.075      129.286       63.172    22223.330    16714.901     3990.750        3.418        2.146      159.045       56.256        0.125      344.428       21.238      860.467
09/29/2014  14:05:00     -161.245       71.061      -15.250      117.242      163.091       62.004    13745.602    26598.593     3844.518        3.773        2.209      176.209       52.940        0.090      344.407       21.202      860.438
09/29/2014  14:06:00     -262.413       -3.587      -36.360      121.509      149.239       73.605    14764.540    22272.323     5417.759        5.632        2.123      262.438       60.464        0.053      344.347       21.099      860.401
09/29/2014  14:07:00     -217.303       19.107      -11.382       86.458       84.059       60.753     7474.946     7065.846     3690.896        3.297        0.912      218.142       40.876        0.035      344.652       21.619      860.422
09/29/2014  14:08:00     -212.869       15.898      -27.631       91.870      102.582       58.152     8440.060    10523.145     3381.606        3.433        1.117      213.462       36.854        0.030      344.456       21.283      860.464
09/29/2014  14:09:00     -175.050       51.103      -33.963       98.148      114.488       61.652     9633.034    13107.474     3800.955        3.047        1.327      182.357       52.634        0.083      344.357       21.116      860.468
09/29/2014  14:10:00     -173.044       79.830      -14.461      124.216      113.654       59.242    15429.522    12917.323     3509.589        3.419        1.593      190.570       59.397        0.097      344.506       21.371      860.475
09/29/2014  14:11:00     -150.295       29.644      -11.835      127.689      177.670       67.170    16304.461    31566.763     4511.808        3.799        2.619      153.190       60.907        0.158      344.309       21.034      860.446
09/29/2014  14:12:00     -117.764      401.599      -43.675       91.706      150.767       51.253     8409.908    22730.820     2626.879       10.541        1.688      418.509       51.755        0.015      344.198       20.843      860.444
09/29/2014  14:13:00     -102.993      421.060      -45.863       71.883      132.227       58.773     5167.183    17483.981     3454.235       10.805        1.305      433.473       61.460        0.020      344.088       20.655      860.444
09/29/2014  14:14:00     -103.561      406.185      -46.671      116.438      117.112       72.810    13557.714    13715.325     5301.302       10.523        1.629      419.180       68.977        0.027      344.206       20.858      860.456
09/29/2014  14:15:00      -80.697      371.750      -42.395      105.348      115.627       70.682    11098.213    13369.570     4995.936        8.798        1.473      380.408       51.605        0.018      344.163       20.783      860.434
09/29/2014  14:16:00     -131.047      164.256      -13.181      132.480      104.071       63.397    17550.934    10830.859     4019.128        3.836        1.620      210.126       66.425        0.100      344.222       20.885      860.433
09/29/2014  14:17:00     -149.941      140.189      -31.046       67.977      102.500       45.341     4620.939    10506.295     2055.777        3.014        0.859      205.269       32.241        0.025      344.357       21.116      860.436
09/29/2014  14:18:00      -52.365        3.471       14.189       83.190       65.691       50.294     6920.597     4315.274     2529.475        0.836        0.688       52.480       41.115        0.614      344.596       21.527      860.409
09/29/2014  14:19:00      -79.536      -23.774        0.753       65.487       49.805       28.271     4288.514     2480.509      799.270        0.723        0.378       83.013       27.780        0.112      344.630       21.586      860.369
09/29/2014  14:20:00      -31.747       86.044        2.818       67.891       64.945       42.176     4609.195     4217.871     1778.854        0.951        0.530       91.714       45.497        0.246      344.565       21.473      860.361
09/29/2014  14:21:00     -136.233       63.148      -30.082       67.898       48.279       33.061     4610.174     2330.879     1093.039        1.574        0.402      150.157       40.304        0.072      344.489       21.343      860.355
09/29/2014  14:22:00     -166.615      -10.349      -24.611       79.576       86.525       36.727     6332.296     7486.538     1348.897        2.182        0.758      166.936       18.207        0.012      344.564       21.471      860.369
09/29/2014  14:23:00     -145.882      200.230      -29.373      101.840      185.410       54.910    10371.377    34376.810     3015.114        5.499        2.388      247.737       53.768        0.047      344.484       21.333      860.353
09/29/2014  14:24:00     -126.973      217.807      -33.874       98.637      133.030       70.078     9729.286    17697.105     4910.938        4.852        1.617      252.115       72.278        0.082      344.558       21.459      860.352
09/29/2014  14:25:00     -181.282      270.560      -39.148      130.579      128.911       81.648    17050.776    16618.002     6666.377        7.396        2.017      325.677       83.780        0.066      344.461       21.292      860.347
09/29/2014  14:26:00     -216.661      192.695      -32.373      123.762      135.509       69.450    15316.920    18362.652     4823.299        6.181        1.925      289.954       77.669        0.072      344.318       21.048      860.343
09/29/2014  14:27:00     -146.056       18.631      -10.313      108.339      134.881       60.909    11737.336    18192.838     3709.855        2.771        1.682      147.240       48.787        0.110      344.509       21.376      860.321
09/29/2014  14:28:00     -142.586       88.157      -33.527      108.685       59.080       52.254    11812.461     3490.436     2730.475        2.363        0.902      167.638       46.217        0.076      344.379       21.154      860.297
09/29/2014  14:29:00      -41.391       58.014        1.458       56.151       36.823       43.045     3152.903     1355.906     1852.838        0.572        0.318       71.266       33.739        0.224      344.666       21.646      860.249
09/29/2014  14:30:00      -28.630      321.515      -30.335       50.708      120.551       48.955     2571.344    14532.658     2396.604        6.230        0.975      322.787       59.071        0.033      344.261       20.950      860.228
09/29/2014  14:31:00      -15.821      213.214       -6.895       69.197      110.693       54.401     4788.238    12252.884     2959.455        3.288        1.000      213.800       57.182        0.072      344.567       21.475      860.188
09/29/2014  14:32:00      -20.167      206.574      -16.200       90.301      124.735       57.149     8154.342    15558.746     3265.973        3.516        1.349      207.557       61.839        0.089      344.628       21.578      860.174
09/29/2014  14:33:00     -159.695      197.834      -27.905      108.024       96.543       53.469    11669.274     9320.605     2858.942        4.463        1.192      254.245       48.351        0.036      344.715       21.726      860.179
09/29/2014  14:34:00     -148.966       83.020      -28.705      134.846       96.763       67.245    18183.452     9363.078     4521.856        3.098        1.603      170.538       72.452        0.180      344.581       21.499      860.198
09/29/2014  14:35:00     -107.543       19.420      -12.697       77.839       55.887       55.428     6058.885     3123.318     3072.317        1.218        0.613      109.283       58.392        0.285      344.573       21.486      860.189
09/29/2014  14:36:00      -85.147      177.395      -25.675       67.882      108.761       48.314     4607.945    11829.016     2334.285        2.907        0.939      196.771       41.189        0.044      344.512       21.381      860.181
09/29/2014  14:37:00     -154.883       12.650      -18.549       93.822       77.969       44.112     8802.486     6079.205     1945.887        2.066        0.841      155.399       33.067        0.045      344.790       21.856      860.177
09/29/2014  14:38:00     -191.747      -17.643      -12.681      145.116      111.395       61.123    21058.593    12408.890     3736.051        3.722        1.860      192.557       62.051        0.104      344.717       21.732      860.180
09/29/2014  14:39:00     -229.425       48.253      -44.351      122.424      122.039       61.192    14987.679    14893.608     3744.406        4.527        1.681      234.445       43.204        0.034      344.569       21.477      860.217
09/29/2014  14:40:00     -226.174      -32.131       -3.800      164.320      162.424       69.905    27000.981    26381.676     4886.719        5.523        2.913      228.445       74.506        0.106      344.628       21.578      860.219
09/29/2014  14:41:00     -218.903      154.944      -43.438       76.822       84.705       44.232     5901.642     7174.974     1956.447        4.442        0.752      268.190       39.802        0.022      344.321       21.054      860.261
09/29/2014  14:42:00     -125.296      174.801      -26.260       83.634       80.020       55.448     6994.584     6403.188     3074.487        3.171        0.824      215.068       51.209        0.057      344.476       21.318      860.249
09/29/2014  14:43:00     -192.438      219.800      -35.564       97.958      113.581       56.276     9595.811    12900.681     3166.947        5.613        1.283      292.137       62.106        0.045      344.544       21.435      860.224
09/29/2014  14:44:00     -126.119      114.508      -15.710       79.763      107.733       56.195     6362.183    11606.386     3157.866        2.519        1.056      170.346       54.550        0.103      344.660       21.632      860.205
09/29/2014  14:45:00      -90.974      109.897      -10.285      109.362       68.832       65.634    11959.995     4737.845     4307.877        2.073        1.050      142.666       73.441        0.265      344.810       21.891      860.184
09/29/2014  14:46:00        0.130      307.571      -31.909       73.531      120.313       55.807     5406.837    14475.322     3114.376        5.930        1.150      307.571       59.651        0.038      344.568       21.476      860.194
09/29/2014  14:47:00       17.649      155.722        4.292       88.262      109.407       55.814     7790.215    11969.783     3115.186        2.372        1.144      156.719       64.448        0.169      344.820       21.909      860.199
09/29/2014  14:48:00        2.589      277.139      -22.221       90.802      111.024       67.694     8245.016    12326.412     4582.483        5.123        1.258      277.151       64.361        0.054      344.629       21.581      860.194
09/29/2014  14:49:00      -47.527      280.928      -32.100       43.315       59.321       29.445     1876.153     3519.029      866.988        4.423        0.313      284.920       23.716        0.007      344.303       21.022      860.177
09/29/2014  14:50:00     -164.190       98.152      -30.046       64.387      103.758       38.580     4145.712    10765.755     1488.439        2.694        0.820      191.291       36.966        0.037      344.723       21.742      860.177
09/29/2014  14:51:00     -157.207      232.317      -50.485      164.333      207.223       73.235    27005.263    42941.452     5363.376        7.826        3.766      280.509       85.491        0.093      344.721       21.739      860.160
09/29/2014  14:52:00     -174.393      286.144      -39.194       94.975      119.547       62.960     9020.162    14291.506     3963.927        7.055        1.364      335.099       65.282        0.038      344.888       22.022      860.137
09/29/2014  14:53:00     -313.343       -3.857      -20.713      167.988      147.414       68.898    28220.086    21730.780     4746.944        7.665        2.735      313.367       76.572        0.060      344.968       22.161      860.100
09/29/2014  14:54:00     -108.888       51.062      -18.427      109.496      122.311       63.977    11989.270    14960.034     4093.120        2.292        1.552      120.266       51.357        0.182      345.047       22.298      860.073
09/29/2014  14:55:00     -150.955      267.905      -20.840      112.097      144.779       71.552    12565.796    20960.922     5119.739        6.681        1.932      307.507       81.274        0.070      344.939       22.111      860.113
09/29/2014  14:56:00     -168.668        0.424      -18.204       97.415      133.780       53.202     9489.585    17897.018     2830.435        2.949        1.511      168.668       42.372        0.063      344.735       21.763      860.096
09/29/2014  14:57:00     -335.355     -107.753      -29.891      180.154      195.680       86.858    32455.287    38290.856     7544.334       10.162        3.915      352.241       78.489        0.050      344.494       21.350      860.042
09/29/2014  14:58:00     -151.434        4.541       -7.906       99.831      106.092       51.006     9966.267    11255.432     2601.567        2.342        1.191      151.502       36.527        0.058      344.716       21.730      860.082
09/29/2014  14:59:00      -61.636      292.790      -40.994       66.597      117.528       41.189     4435.217    13812.894     1696.506        5.557        0.997      299.207       38.789        0.017      344.598       21.526      860.094
09/29/2014  15:00:00      -28.714      240.805      -20.855       62.983      133.211       58.480     3966.908    17745.059     3419.931        4.218        1.257      242.511       73.795        0.093      344.810       21.891      860.065
09/29/2014  15:01:00      -46.700      271.465      -32.121       58.373      101.439       46.703     3407.434    10289.873     2181.200        4.639        0.794      275.452       49.159        0.032      344.797       21.866      860.064
09/29/2014  15:02:00     -157.581      329.613      -42.313       93.352      111.010       66.166     8714.652    12323.256     4377.937        8.034        1.271      365.345       65.077        0.032      344.742       21.773      860.079
09/29/2014  15:03:00      -26.700      279.149      -37.278       55.372       75.171       38.893     3066.090     5650.646     1512.637        4.513        0.511      280.423       32.627        0.014      344.711       21.718      860.060
09/29/2014  15:04:00     -143.313      208.714      -45.891      113.228      123.028       47.482    12820.558    15135.951     2254.497        4.820        1.511      253.180       36.932        0.021      344.754       21.793      860.067
09/29/2014  15:05:00     -182.754       86.102      -14.683      137.630      113.831       58.755    18942.115    12957.502     3452.161        3.818        1.768      202.021       56.945        0.079      344.890       22.027      860.074
09/29/2014  15:06:00     -220.223       35.661      -23.562      184.068      146.631       86.082    33880.968    21500.723     7410.193        5.655        3.140      223.091       83.124        0.139      344.796       21.868      860.084
09/29/2014  15:07:00      -69.435      296.892      -27.605       85.584      160.562       65.964     7324.686    25780.274     4351.264        6.559        1.873      304.903       72.069        0.056      344.461       21.294      860.086
09/29/2014  15:08:00      -92.838      306.593      -41.484       95.644      119.041       48.300     9147.681    14170.780     2332.859        6.499        1.283      320.341       52.557        0.027      344.634       21.589      860.054
09/29/2014  15:09:00      -98.886      277.012      -26.302       92.312      108.796       66.157     8521.416    11836.550     4376.727        5.597        1.237      294.132       56.875        0.037      344.747       21.780      860.074
09/29/2014  15:10:00      -57.710      325.945      -35.511       98.320      123.860       57.139     9666.804    15341.285     3264.870        6.955        1.414      331.014       53.791        0.026      344.572       21.482      860.066
09/29/2014  15:11:00      -59.548      310.979      -29.462       71.431      132.004       56.156     5102.350    17424.971     3153.506        6.340        1.284      316.629       63.890        0.041      344.632       21.586      860.054
09/29/2014  15:12:00      -89.076      352.078      -32.879       89.139      204.162       58.631     7945.698    41681.968     3437.629        9.301        2.653      363.171       81.756        0.051      344.645       21.609      860.041
09/29/2014  15:13:00     -154.656      424.339      -50.880       63.431       72.205       49.130     4023.493     5213.514     2413.747       10.911        0.583      451.644       31.621        0.005      344.384       21.161      860.038
09/29/2014  15:14:00     -140.623      408.788      -51.520       87.436      127.251       51.490     7645.021    16192.882     2651.239       10.801        1.324      432.300       50.787        0.014      344.410       21.207      860.034
09/29/2014  15:15:00      -72.081      222.452       -9.350       83.366      141.734       64.435     6949.867    20088.511     4151.908        4.297        1.560      233.838       73.587        0.099      344.692       21.687      860.006
09/29/2014  15:16:00      -79.386      156.238      -20.936       53.051       62.153       46.938     2814.405     3862.989     2203.137        2.001        0.444      175.249       40.808        0.054      344.728       21.751      859.984
09/29/2014  15:17:00     -168.313       95.514      -18.172      130.356      169.744       74.445    16992.669    28812.913     5542.064        4.456        2.567      193.525       85.690        0.196      344.881       22.012      859.971
09/29/2014  15:18:00      -53.470      129.226        0.022       62.005       95.569       48.302     3844.640     9133.519     2333.047        1.743        0.766      139.851       56.946        0.166      345.073       22.342      859.969
09/29/2014  15:19:00      -94.321      145.598       -9.212       54.473       84.941       50.368     2967.336     7215.030     2536.917        2.145        0.636      173.480       19.806        0.013      345.174       22.513      859.973
09/29/2014  15:20:00      -62.327      233.375      -16.024      136.438      133.630       68.633    18615.233    17856.973     4710.514        4.989        2.059      241.554       75.793        0.098      344.882       22.014      859.992
09/29/2014  15:21:00     -187.806       34.122      -21.738      120.728      157.563       60.403    14575.156    24826.133     3648.509        3.997        2.152      190.881       44.183        0.054      345.098       22.383      859.985
09/29/2014  15:22:00      -71.576       39.694       -7.727       90.223       67.215       48.562     8140.112     4517.895     2358.304        1.088        0.751       81.846       28.080        0.118      345.107       22.400      860.017
09/29/2014  15:23:00     -106.623      220.601       -8.381      104.144      106.557       66.834    10845.975    11354.435     4466.781        4.338        1.333      245.017       50.366        0.042      344.765       21.813      860.041
09/29/2014  15:24:00     -211.599      170.230      -41.177      118.748      105.744       72.431    14101.162    11181.848     5246.302        5.298        1.526      271.574       80.866        0.089      344.729       21.751      860.030
09/29/2014  15:25:00     -199.477      218.742      -44.478      118.683      217.520       66.337    14085.756    47314.805     4400.553        7.770        3.290      296.039       50.085        0.029      344.615       21.555      860.034
09/29/2014  15:26:00     -189.573      167.554      -26.019       98.051       99.955       62.795     9614.012     9991.083     3943.230        4.411        1.177      253.007       66.747        0.070      344.559       21.461      860.054
09/29/2014  15:27:00     -178.107       17.376      -31.920       96.173       85.650       51.417     9249.298     7335.948     2643.658        2.613        0.961      178.952       45.823        0.066      344.619       21.565      860.035
09/29/2014  15:28:00      -87.380       83.914      -18.765       83.917       61.972       54.081     7042.009     3840.543     2924.749        1.442        0.690      121.148       51.531        0.181      344.786       21.852      860.038
09/29/2014  15:29:00     -115.480      103.538       -9.743       76.793       94.235       45.453     5897.202     8880.181     2066.015        2.049        0.842      155.099       32.206        0.043      344.799       21.874      860.055
09/29/2014  15:30:00     -120.064       -1.635       -2.399       90.358      100.732       42.227     8164.572    10147.015     1783.131        1.726        1.005      120.075       46.646        0.151      344.993       22.206      860.030
09/29/2014  15:31:00     -197.338      -47.702       -4.055       95.966       71.541       46.622     9209.526     5118.143     2173.641        2.887        0.825      203.022       50.423        0.062      345.095       22.378      860.038
09/29/2014  15:32:00     -255.956       67.796      -30.906       80.458       94.147       47.943     6473.524     8863.689     2298.523        4.435        0.882      264.783       41.235        0.024      344.810       21.890      860.047
09/29/2014  15:33:00     -169.506       -7.802      -15.000       42.787       48.121       27.720     1830.722     2315.624      768.408        1.697        0.246      169.685       20.113        0.014      344.518       21.393      860.018
09/29/2014  15:34:00     -102.747        7.422       -5.587       36.487       31.435       24.875     1331.311      988.177      618.789        0.679        0.147      103.015       18.450        0.032      344.826       21.921      859.996
09/29/2014  15:35:00      -44.043      -21.489        7.239       66.358       46.206       30.126     4403.420     2135.013      907.573        0.495        0.372       49.005       37.822        0.596      345.178       22.523      859.967
09/29/2014  15:36:00     -179.360      -37.752      -39.362       90.003       58.272       51.664     8100.614     3395.635     2669.142        2.465        0.708      183.290       56.113        0.094      344.777       21.835      859.924
09/29/2014  15:37:00      -19.631       -0.968        7.431       40.876       35.145       29.251     1670.859     1235.171      855.596        0.210        0.188       19.655       22.762        1.341      345.164       22.498      859.909
09/29/2014  15:38:00       65.055       93.719       -0.288       54.481       62.943       36.522     2968.164     3961.770     1333.868        1.064        0.413      114.085       36.681        0.103      345.036       22.280      859.898
09/29/2014  15:39:00      -20.304      133.948       -4.538       87.102      133.556       58.157     7586.713    17837.325     3382.198        2.359        1.440      135.479       69.591        0.264      345.093       22.376      859.912
09/29/2014  15:40:00     -130.820      141.752      -17.779       94.883       68.577       38.579     9002.722     4702.869     1488.365        2.636        0.760      192.892       32.677        0.029      344.990       22.198      859.937
09/29/2014  15:41:00     -125.080      178.229      -27.530      100.264       78.798       49.336    10052.838     6209.055     2434.047        3.343        0.935      217.740       47.616        0.048      345.038       22.280      859.954
09/29/2014  15:42:00     -152.261      -47.711      -19.680      126.018       99.115       60.223    15880.530     9823.696     3626.800        2.758        1.467      159.561       61.191        0.147      344.984       22.190      859.935
09/29/2014  15:43:00      -88.091      218.143      -10.830      100.041      155.390       70.209    10008.282    24145.947     4929.245        4.727        1.954      235.258       58.053        0.061      344.883       22.016      859.939
09/29/2014  15:44:00      -55.420       56.199      -16.235       64.559       62.445       33.642     4167.849     3899.354     1131.789        0.784        0.460       78.929       20.983        0.071      344.852       21.965      859.918
09/29/2014  15:45:00     -142.754      185.488      -47.779       59.540       53.208       36.366     3544.954     2831.052     1322.465        3.238        0.385      234.061       30.481        0.017      344.766       21.814      859.902
09/29/2014  15:46:00      -74.068      154.593      -18.632       50.294       63.774       37.204     2529.523     4067.176     1384.101        1.886        0.399      171.420       36.197        0.045      345.030       22.266      859.907
09/29/2014  15:47:00      -88.429      312.945      -40.084       64.094       90.452       45.043     4107.978     8181.554     2028.862        6.084        0.716      325.199       45.422        0.020      344.721       21.736      859.921
09/29/2014  15:48:00     -152.835      156.280      -30.716       91.178       82.854       52.904     8313.345     6864.727     2798.835        3.335        0.899      218.591       48.034        0.048      344.896       22.038      859.928
09/29/2014  15:49:00      -42.746      373.958      -43.869      100.302      118.212       54.476    10060.516    13974.120     2967.593        8.529        1.350      376.393       43.463        0.013      344.825       21.914      859.911
09/29/2014  15:50:00     -125.023      164.856      -26.317       94.366      139.392       51.578     8904.893    19430.094     2660.328        3.724        1.550      206.902       44.908        0.047      344.986       22.191      859.918
09/29/2014  15:51:00      -94.666      267.456      -34.233       94.317      137.214       41.809     8895.640    18827.614     1748.033        5.556        1.474      283.715       48.453        0.029      344.739       21.767      859.928
09/29/2014  15:52:00     -112.738      236.276      -25.613       66.529      141.282       51.886     4426.153    19960.467     2692.158        4.813        1.354      261.794       57.093        0.048      344.899       22.041      859.933
09/29/2014  15:53:00     -142.712      113.952      -27.695       90.744      104.211       46.789     8234.453    10859.857     2189.198        2.770        1.064      182.625       39.611        0.047      344.961       22.150      859.941
09/29/2014  15:54:00     -140.308       63.501        1.644      108.141      111.252       57.660    11694.465    12377.081     3324.666        2.555        1.370      154.009       54.903        0.127      345.026       22.261      859.936
09/29/2014  15:55:00      -69.123       60.809      -12.117       71.472       72.486       45.076     5108.285     5254.279     2031.843        1.051        0.620       92.063       42.731        0.215      345.005       22.228      859.953
09/29/2014  15:56:00      -82.205       16.517       -0.946       89.551       87.952       46.759     8019.313     7735.638     2186.410        1.248        0.897       83.848       37.753        0.203      345.345       22.809      859.950
09/29/2014  15:57:00     -188.043       23.276      -36.461       88.612      117.225       50.578     7852.065    13741.720     2558.131        3.069        1.208      189.478       33.054        0.030      345.110       22.403      859.947
09/29/2014  15:58:00     -219.732      -10.296      -34.273      126.070       64.235       41.442    15893.737     4126.123     1717.444        3.565        1.087      219.973       25.298        0.013      344.947       22.126      859.952
09/29/2014  15:59:00     -135.062      -54.087       -6.626       93.148       62.982       43.217     8676.505     3966.790     1867.695        1.786        0.726      145.489       32.124        0.049      345.072       22.342      859.942
09/29/2014  16:00:00      -98.807      142.535      -18.798       81.196      118.460       51.891     6592.735    14032.801     2692.666        2.687        1.166      173.434       58.338        0.113      345.049       22.301      859.932
09/29/2014  16:01:00      -82.624      181.705      -12.524       64.517       84.850       50.613     4162.488     7199.590     2561.722        2.696        0.696      199.609       45.740        0.053      344.959       22.145      859.913
09/29/2014  16:02:00     -190.649       82.118      -21.748       94.270       84.030       43.936     8886.920     7061.065     1930.377        3.072        0.894      207.583       48.567        0.055      344.969       22.160      859.893
09/29/2014  16:03:00     -195.036       -2.281      -38.118       77.702       58.722       36.637     6037.678     3448.229     1342.250        2.516        0.541      195.049       28.441        0.021      345.049       22.300      859.889
09/29/2014  16:04:00     -266.510      129.883      -42.858      114.665      156.835       67.492    13148.104    24597.168     4555.130        6.601        2.115      296.474       84.409        0.081      345.084       22.359      859.920
09/29/2014  16:05:00      -46.576       24.503       38.203       71.823       75.172       54.764     5158.515     5650.777     2999.117        0.902        0.690       52.628       46.602        0.784      345.264       22.670      859.907
09/29/2014  16:06:00     -178.286       32.609      -12.556      128.332       95.939       57.569    16469.032     9204.236     3314.232        3.099        1.449      181.243       63.564        0.123      345.151       22.474      859.900
09/29/2014  16:07:00     -272.342      -72.960       -1.837      135.270      116.311       56.608    18298.084    13528.260     3204.421        5.726        1.752      281.945       58.875        0.044      345.097       22.380      859.890
09/29/2014  16:08:00     -130.683       39.004        9.295      141.465       77.358       54.632    20012.363     5984.216     2984.634        2.383        1.449      136.379       64.839        0.226      345.232       22.614      859.888
09/29/2014  16:09:00     -130.044      145.382      -30.215       80.544       90.941       40.940     6487.374     8270.352     1676.109        2.769        0.822      195.057       46.671        0.057      345.178       22.519      859.894
09/29/2014  16:10:00     -112.573      247.205      -20.104       90.992      126.565       53.649     8279.563    16018.758     2878.223        5.068        1.359      271.630       41.474        0.023      345.120       22.421      859.926
09/29/2014  16:11:00     -106.912      163.611      -27.853       53.800       66.253       40.370     2894.492     4389.487     1629.737        2.394        0.446      195.445       35.958        0.034      345.107       22.399      859.925
09/29/2014  16:12:00     -148.034      115.569      -32.908       66.181       65.279       37.966     4379.918     4261.406     1441.402        2.322        0.504      187.803       39.060        0.043      345.047       22.297      859.941
09/29/2014  16:13:00      -44.328      140.513       -6.827       58.138       74.288       49.461     3380.040     5518.633     2446.383        1.655        0.567      147.339       46.819        0.101      344.929       22.096      859.931
09/29/2014  16:14:00      -75.158      276.961      -43.698       70.252      119.448       34.547     4935.376    14267.879     1193.504        5.233        1.020      286.977       34.106        0.014      344.796       21.866      859.914
09/29/2014  16:15:00       18.420      140.933      -11.375       43.968       82.145       42.955     1933.206     6747.776     1845.137        1.543        0.526      142.132       42.167        0.088      344.829       21.925      859.891
09/29/2014  16:16:00      -10.596       60.732        2.262       46.339       44.933       28.471     2147.263     2018.975      810.573        0.439        0.249       61.650       26.923        0.191      344.830       21.927      859.859
09/29/2014  16:17:00       62.557       67.491       -1.530       62.651       53.783       31.875     3925.168     2892.645     1016.046        0.815        0.392       92.024       29.789        0.105      344.877       22.007      859.850
09/29/2014  16:18:00        5.764      155.899      -14.934       76.735      100.370       51.308     5888.252    10074.159     2632.544        2.157        0.930      156.006       43.936        0.079      345.036       22.279      859.828
09/29/2014  16:19:00     -112.419      192.174      -26.935      126.966      193.022       54.768    16120.288    37257.535     2999.492        5.333        2.819      222.640       40.475        0.033      345.200       22.557      859.818
09/29/2014  16:20:00     -162.054        3.373       12.305      145.885      110.358       64.611    21282.298    12178.887     4174.587        3.202        1.882      162.089       73.198        0.204      345.380       22.866      859.841
09/29/2014  16:21:00      -59.718      142.765       -5.716       65.466       95.738       50.953     4285.801     9165.786     2596.252        2.001        0.802      154.752       35.735        0.053      345.062       22.323      859.834
09/29/2014  16:22:00      -89.605      136.262      -10.740       71.821       73.948       39.938     5158.189     5468.333     1595.017        1.946        0.611      163.084       37.633        0.053      345.259       22.661      859.820
09/29/2014  16:23:00     -217.213      135.822      -46.753      155.785      141.846       61.564    24268.872    20120.376     3790.114        5.799        2.409      256.182       65.623        0.066      345.202       22.562      859.829
09/29/2014  16:24:00     -192.170       68.866      -22.532      108.360      122.514       67.957    11741.848    15009.763     4618.155        3.677        1.568      204.137       58.615        0.082      345.179       22.521      859.824
09/29/2014  16:25:00     -184.833      262.618      -62.962      125.045      122.442       71.418    15636.234    14991.964     5100.482        7.141        1.786      321.141       61.749        0.037      345.074       22.341      859.835
09/29/2014  16:26:00     -194.710      155.719      -35.438       89.106      158.149       59.883     7939.948    25011.111     3585.956        4.997        1.827      249.320       61.459        0.061      345.007       22.225      859.839
09/29/2014  16:27:00     -139.443        9.535      -11.832      107.717      105.257       59.434    11602.917    11078.995     3532.375        2.294        1.311      139.769       57.459        0.169      344.983       22.187      859.834
09/29/2014  16:28:00     -180.186       36.939      -22.364       82.956       81.810       59.323     6881.691     6692.902     3519.259        2.571        0.855      183.933       34.788        0.036      345.059       22.317      859.819
09/29/2014  16:29:00      -74.756       18.299       -3.681       80.922       38.753       42.768     6548.417     1501.818     1829.061        0.791        0.494       76.963       52.280        0.461      345.177       22.522      859.801
09/29/2014  16:30:00      -47.382       88.020        6.773       57.555       80.789       43.630     3312.546     6526.941     1903.569        1.089        0.587       99.963       45.381        0.206      345.246       22.638      859.790
09/29/2014  16:31:00     -126.212      134.491      -27.832       82.295       69.965       46.379     6772.489     4895.082     2151.014        2.430        0.691      184.438       31.852        0.030      345.043       22.290      859.789
09/29/2014  16:32:00     -172.579       71.908      -27.211      104.358       54.866       40.932    10890.679     3010.264     1675.391        2.563        0.779      186.961       45.715        0.060      345.053       22.307      859.789
09/29/2014  16:33:00     -162.822       61.257      -25.777       64.365       81.760       36.705     4142.859     6684.751     1347.245        2.155        0.609      173.964       31.342        0.032      345.167       22.502      859.790
09/29/2014  16:34:00      -61.817       -7.715       -6.510       98.324       73.394       38.478     9667.596     5386.606     1480.575        1.023        0.827       62.297       39.649        0.405      345.271       22.680      859.786
09/29/2014  16:35:00     -173.210      -37.044      -28.214       98.984       43.416       33.963     9797.887     1884.951     1153.456        2.250        0.642      177.127       42.012        0.056      345.128       22.437      859.789
09/29/2014  16:36:00     -201.245       24.407      -32.311      108.565      119.629       55.285    11786.379    14311.164     3056.481        3.564        1.458      202.720       35.718        0.031      345.194       22.548      859.789
09/29/2014  16:37:00     -222.946      -18.604      -27.196      135.678       72.330       46.894    18408.431     5231.654     2199.078        3.831        1.292      223.720       53.882        0.058      345.033       22.271      859.798
09/29/2014  16:38:00     -115.354      -23.230      -13.987       95.504       70.503       49.861     9121.007     4970.724     2486.095        1.531        0.829      117.670       40.674        0.119      345.296       22.724      859.802
09/29/2014  16:39:00     -228.704       41.680      -32.310       96.066       72.496       47.055     9228.620     5255.729     2214.190        3.589        0.835      232.471       35.937        0.024      345.150       22.472      859.811
09/29/2014  16:40:00     -163.421       -6.259      -24.606       68.562       65.036       36.902     4700.683     4229.741     1361.755        1.882        0.515      163.541       26.300        0.026      345.241       22.628      859.804
09/29/2014  16:41:00     -121.610      -49.568       -4.853       95.827       70.304       41.654     9182.756     4942.600     1735.070        1.656        0.793      131.324       40.571        0.095      345.353       22.821      859.782
09/29/2014  16:42:00     -199.863      -77.958       -1.333       57.040       41.720       37.291     3253.510     1740.578     1390.621        2.620        0.319      214.529       34.313        0.026      344.950       22.130      859.774
09/29/2014  16:43:00     -161.728      -30.158      -13.353       83.405       81.269       47.319     6956.342     6604.695     2239.067        2.152        0.790      164.515       40.498        0.061      345.160       22.491      859.774
09/29/2014  16:44:00     -154.404        7.659      -15.201      139.828      107.306       60.870    19551.790    11514.525     3705.107        2.945        1.739      154.594       70.709        0.209      345.150       22.473      859.782
09/29/2014  16:45:00     -118.268       42.440      -38.665       94.607       77.226       28.372     8950.492     5963.839      804.951        1.650        0.786      125.652       16.741        0.018      345.180       22.526      859.779
09/29/2014  16:46:00     -136.326       53.691      -12.354       87.826       90.635       51.225     7713.480     8214.679     2624.024        2.008        0.928      146.518       44.153        0.091      345.225       22.601      859.769
09/29/2014  16:47:00      -64.031       64.384       -9.672       89.330       93.151       56.208     7979.936     8677.054     3159.351        1.407        0.991       90.804       47.408        0.273      345.087       22.368      859.749
09/29/2014  16:48:00     -270.656       -4.729      -34.250      117.491      106.715       58.766    13804.018    11388.035     3453.479        5.154        1.432      270.697       62.806        0.054      345.153       22.478      859.726
09/29/2014  16:49:00     -175.007      187.823      -43.153      103.539      102.522       66.956    10720.344    10510.803     4483.068        4.674        1.286      256.720       67.196        0.069      345.106       22.397      859.740
09/29/2014  16:50:00     -216.813      252.169      -50.285      117.037      111.058       64.085    13697.724    12333.827     4106.923        7.163        1.507      332.561       64.512        0.038      344.947       22.125      859.725
09/29/2014  16:51:00     -189.297      183.951      -45.597       79.184       82.216       42.480     6270.156     6759.408     1804.583        4.329        0.742      263.953       40.412        0.023      344.973       22.168      859.723
09/29/2014  16:52:00     -127.932      132.074      -28.987       76.635       77.443       47.112     5872.979     5997.377     2219.552        2.437        0.704      183.876       44.709        0.059      345.144       22.462      859.701
09/29/2014  16:53:00     -279.074       -8.666      -44.015      117.863      136.221       41.827    13891.643    18556.180     1749.531        5.704        1.710      279.209       48.399        0.030      345.083       22.358      859.702
09/29/2014  16:54:00     -122.345        0.899        5.235       83.375      118.585       46.550     6951.312    14062.323     2166.906        1.908        1.159      122.348       42.776        0.122      345.168       22.504      859.698
09/29/2014  16:55:00     -204.022       46.796      -24.591      114.115       82.062       44.713    13022.314     6734.136     1999.244        3.308        1.088      209.320       54.555        0.068      345.123       22.428      859.697
09/29/2014  16:56:00     -242.618      -59.695      -19.328       72.772       76.235       42.963     5295.744     5811.811     1845.786        3.787        0.648      249.854       25.136        0.010      345.146       22.464      859.681
09/29/2014  16:57:00     -271.260       22.972      -29.084      115.252       83.684       49.167    13283.036     7003.015     2417.393        4.883        1.135      272.231       49.134        0.033      345.078       22.349      859.680
09/29/2014  16:58:00     -170.565      -57.943      -22.628       91.029       60.504       40.836     8286.271     3660.791     1667.617        2.329        0.681      180.139       44.934        0.062      345.113       22.410      859.665
09/29/2014  16:59:00     -290.241      -80.438      -26.367      118.044       88.386       56.252    13934.464     7812.040     3164.264        5.815        1.246      301.181       59.948        0.040      345.159       22.487      859.652
09/29/2014  17:00:00     -251.707     -104.045      -13.117      118.112       87.228       49.530    13950.426     7608.761     2453.209        4.918        1.201      272.363       47.763        0.031      345.193       22.545      859.656
09/29/2014  17:01:00     -243.073        5.469      -26.213      101.045      106.961       55.791    10210.139    11440.590     3112.633        4.228        1.238      243.135       56.992        0.055      345.035       22.273      859.674
09/29/2014  17:02:00      -96.666      -33.571       -7.270       71.225       62.630       36.052     5072.992     3922.476     1299.760        1.041        0.515      102.330       40.207        0.154      345.210       22.575      859.682
09/29/2014  17:03:00     -109.059      -26.948      -18.698       80.254       62.255       40.987     6440.766     3875.666     1679.967        1.248        0.600      112.339       41.733        0.138      345.216       22.587      859.684
09/29/2014  17:04:00     -227.981      -34.517      -15.114      125.950      109.966       45.059    15863.482    12092.587     2030.305        4.169        1.499      230.579       47.417        0.042      345.269       22.676      859.682
09/29/2014  17:05:00     -361.224      -84.060      -26.660      123.532       81.812       50.692    15260.175     6693.217     2569.718        8.139        1.226      370.876       41.322        0.012      345.008       22.229      859.701
09/29/2014  17:06:00     -208.802      -70.852       -5.550      106.907       96.416       49.243    11429.026     9296.134     2424.899        3.590        1.158      220.495       49.230        0.050      345.056       22.311      859.713
09/29/2014  17:07:00     -256.371      -26.026      -30.868       99.267       66.420       43.326     9853.955     4411.646     1877.142        4.175        0.807      257.688       44.971        0.030      344.998       22.211      859.714
09/29/2014  17:08:00     -108.762       31.361        0.361       71.872       73.895       42.693     5165.574     5460.470     1822.727        1.263        0.622      113.193       44.119        0.152      345.109       22.404      859.697
09/29/2014  17:09:00     -152.995       29.456      -19.139       77.118       81.197       37.695     5947.164     6592.983     1420.905        1.930        0.698      155.804       44.984        0.083      345.063       22.324      859.684
09/29/2014  17:10:00     -146.035      -23.420      -16.652       48.125       53.575       26.698     2315.993     2870.237      712.801        1.402        0.295      147.901       15.349        0.011      345.181       22.529      859.686
09/29/2014  17:11:00      -95.525      -29.929      -14.815       60.785       56.713       36.589     3694.811     3216.376     1338.790        0.924        0.412      100.104       26.088        0.068      345.245       22.637      859.689
09/29/2014  17:12:00       13.370        6.737       23.083       48.287       41.386       37.827     2331.617     1712.768     1430.877        0.312        0.274       14.971       33.018        4.864      345.305       22.741      859.691
09/29/2014  17:13:00     -122.890      -31.244      -19.307       63.962       56.329       29.510     4091.182     3172.992      870.853        1.229        0.407      126.799       31.982        0.064      345.223       22.598      859.695
09/29/2014  17:14:00     -158.768       14.447      -25.074       80.508      117.555       43.087     6481.486    13819.224     1856.489        2.410        1.108      159.423       40.260        0.064      345.213       22.579      859.704
09/29/2014  17:15:00     -152.501       19.729      -30.247       68.859       47.256       33.960     4741.614     2233.158     1153.274        1.634        0.406      153.771       33.275        0.047      345.092       22.374      859.714
09/29/2014  17:16:00     -157.651      -55.252      -14.584       85.880       87.911       38.834     7375.320     7728.298     1508.095        2.236        0.831      167.053       28.010        0.028      345.075       22.345      859.700
09/29/2014  17:17:00     -198.755      -91.471      -21.675       77.359       88.054       46.750     5984.434     7753.432     2185.575        3.213        0.796      218.793       25.514        0.014      345.120       22.422      859.679
09/29/2014  17:18:00     -199.086        4.401        2.820      127.229      100.589       50.637    16187.163    10118.133     2564.106        3.426        1.443      199.135       59.899        0.090      345.086       22.363      859.673
09/29/2014  17:19:00     -159.244      -20.904        1.198      113.558       67.526       42.221    12895.418     4559.798     1782.624        2.251        0.962      160.610       54.256        0.114      345.088       22.367      859.677
09/29/2014  17:20:00     -144.564     -145.556        6.443       91.918       87.728       59.208     8448.894     7696.246     3505.576        3.089        0.983      205.148       59.313        0.084      344.932       22.100      859.668
09/29/2014  17:21:00     -111.104      -89.813       17.008      104.804       79.968       52.197    10983.954     6394.952     2724.560        2.040        1.005      142.866       62.347        0.190      345.028       22.265      859.664
09/29/2014  17:22:00      -80.105      -84.826       11.037       82.502       79.128       54.186     6806.561     6261.285     2936.078        1.487        0.800      116.672       51.290        0.193      345.025       22.262      859.659
09/29/2014  17:23:00     -211.466       -2.749      -25.043       75.222      105.583       40.023     5658.292    11147.734     1601.868        3.188        0.920      211.484       36.898        0.030      345.064       22.324      859.674
09/29/2014  17:24:00     -152.487       19.661       -3.350       69.028       54.765       39.565     4764.806     2999.229     1565.401        1.649        0.466      153.749       32.332        0.044      345.193       22.549      859.679
09/29/2014  17:25:00     -141.957       -9.502      -15.901       54.569       50.190       34.919     2977.791     2519.001     1219.345        1.360        0.336      142.275       23.171        0.027      345.154       22.482      859.686
09/29/2014  17:26:00     -262.209      -21.036      -17.477       84.852       56.635       47.249     7199.943     3207.553     2232.491        4.107        0.632      263.052       47.790        0.033      345.016       22.242      859.688
09/29/2014  17:27:00     -167.101      -28.557      -10.848       78.807       57.327       39.440     6210.496     3286.393     1555.476        1.995        0.553      169.523       45.462        0.072      345.026       22.262      859.694
09/29/2014  17:28:00     -165.599      -10.126      -19.684       84.317       52.393       29.733     7109.294     2745.064      884.042        1.932        0.537      165.908       31.808        0.037      345.101       22.392      859.689
09/29/2014  17:29:00      -90.879       51.455      -21.727      116.532       77.747       39.302    13579.798     6044.613     1544.681        1.627        1.058      104.435       37.924        0.132      345.178       22.522      859.687
09/29/2014  17:30:00      -34.768       66.881       -0.442       41.540       60.183       28.012     1725.601     3622.004      784.651        0.591        0.307       75.378       18.416        0.060      345.126       22.434      859.693
09/29/2014  17:31:00      -48.941       58.684       -4.808       49.231       44.544       30.492     2423.663     1984.148      929.791        0.560        0.267       76.414       29.573        0.150      345.149       22.473      859.684
09/29/2014  17:32:00     -129.878       54.275      -19.910       79.848      134.467       32.111     6375.727    18081.311     1031.100        2.284        1.274      140.762       36.468        0.067      345.073       22.341      859.684
09/29/2014  17:33:00     -192.784       -1.890      -33.642       94.190       88.516       41.963     8871.701     7835.051     1760.857        2.838        0.923      192.793       34.500        0.032      345.078       22.349      859.681
09/29/2014  17:34:00     -132.588       71.291       -4.120       98.004       97.183       43.861     9604.807     9444.604     1923.804        2.182        1.049      150.539       47.105        0.098      345.018       22.246      859.678
09/29/2014  17:35:00     -111.234       79.797      -23.564       99.319      109.997       48.634     9864.330    12099.398     2365.299        2.181        1.216      136.896       48.930        0.128      345.083       22.357      859.675
09/29/2014  17:36:00     -100.708      -18.233        1.619       88.695       55.469       47.543     7866.831     3076.816     2260.340        1.184        0.660      102.346       53.137        0.270      345.161       22.491      859.660
09/29/2014  17:37:00      -65.174       70.966       13.035       57.759       61.037       47.677     3336.086     3725.539     2273.080        0.939        0.467       96.352       32.795        0.116      345.179       22.526      859.651
09/29/2014  17:38:00      -78.083       18.724       -8.303       60.148       45.111       30.769     3617.786     2035.002      946.742        0.656        0.330       80.296       22.259        0.077      345.171       22.510      859.670
09/29/2014  17:39:00      -77.652        5.776        9.249       66.731       61.863       42.654     4453.082     3826.979     1819.357        0.812        0.505       77.867       32.651        0.176      345.139       22.454      859.690
09/29/2014  17:40:00     -115.671       22.029      -21.188       86.833       79.877       53.955     7539.929     6380.351     2911.151        1.557        0.842      117.750       48.571        0.170      345.141       22.460      859.689
09/29/2014  17:41:00     -162.066      -25.987      -22.837       50.615       93.196       44.431     2561.882     8685.572     1974.084        2.034        0.661      164.136       29.013        0.031      345.110       22.405      859.687
09/29/2014  17:42:00     -166.216      -54.032      -17.837       72.272       56.295       40.202     5223.186     3169.130     1616.172        2.044        0.500      174.777       24.308        0.019      344.975       22.174      859.688
09/29/2014  17:43:00     -137.969      -45.597       -7.858       80.834       82.997       43.191     6534.058     6888.567     1865.466        1.823        0.764      145.308       37.818        0.068      345.045       22.293      859.688
09/29/2014  17:44:00     -101.980       -0.785      -18.273       75.890       49.435       26.955     5759.323     2443.852      726.590        0.983        0.446      101.983       31.384        0.095      345.113       22.411      859.699
09/29/2014  17:45:00     -115.565      116.191      -19.319      122.684       62.894       48.416    15051.460     3955.611     2344.156        2.429        1.068      163.877       53.986        0.109      344.965       22.157      859.707
09/29/2014  17:46:00     -154.641      139.308      -28.603       80.588       60.615       46.757     6494.368     3674.147     2186.188        2.824        0.618      208.136       44.079        0.045      345.028       22.264      859.715
09/29/2014  17:47:00     -106.746       88.155       -1.552       57.772       60.238       34.961     3337.602     3628.631     1222.305        1.368        0.409      138.442       25.510        0.034      345.076       22.349      859.719
09/29/2014  17:48:00     -147.172      210.738      -36.573       67.756       80.058       45.007     4590.844     6409.293     2025.623        4.021        0.651      257.041       41.657        0.026      344.978       22.178      859.736
09/29/2014  17:49:00      -77.946      158.974      -22.152       53.986      104.513       30.725     2914.509    10922.867      944.032        2.331        0.739      177.054       29.668        0.028      344.950       22.131      859.732
09/29/2014  17:50:00     -105.560       38.472       -5.889       77.512       61.529       46.465     6008.074     3785.810     2159.040        1.230        0.598      112.352       47.434        0.178      345.144       22.463      859.747
09/29/2014  17:51:00      -70.090       35.903      -12.022       55.117       56.364       38.530     3037.895     3176.916     1484.567        0.702        0.385       78.750       14.955        0.036      345.095       22.381      859.748
09/29/2014  17:52:00     -161.916        0.032      -14.977       73.630       67.618       52.897     5421.371     4572.244     2798.129        1.961        0.640      161.916       41.030        0.064      345.063       22.323      859.766
09/29/2014  17:53:00      -83.447       31.403       -0.474       55.605       56.125       42.903     3091.892     3149.976     1840.655        0.801        0.404       89.160       32.313        0.131      345.058       22.318      859.780
09/29/2014  17:54:00     -117.162      -33.815       -6.762       64.016       50.807       34.152     4098.095     2581.351     1166.338        1.138        0.392      121.944       29.442        0.058      344.974       22.175      859.786
09/29/2014  17:55:00     -115.609       84.003      -15.942       62.493       47.188       28.637     3905.385     2226.726      820.065        1.381        0.348      142.906       30.183        0.045      345.020       22.251      859.793
09/29/2014  17:56:00     -112.106       87.688      -25.297       46.089       72.637       26.708     2124.151     5276.105      713.303        1.450        0.406      142.326       27.267        0.037      345.052       22.308      859.788
09/29/2014  17:57:00     -130.188       46.920      -19.824       51.847       56.982       29.630     2688.061     3246.956      877.932        1.318        0.341      138.385       29.318        0.045      344.956       22.144      859.793
09/29/2014  17:58:00     -130.620       23.298      -27.652       47.850       70.744       29.319     2289.644     5004.702      859.625        1.326        0.408      132.681        4.588        0.001      344.954       22.139      859.794
09/29/2014  17:59:00     -129.541       22.224      -38.566       90.898       88.173       48.271     8262.453     7774.521     2330.078        1.856        0.918      131.434       31.652        0.058      344.925       22.090      859.798
09/29/2014  18:00:00      -90.998        3.910       -6.094       74.864       54.815       40.505     5604.659     3004.642     1640.660        0.929        0.512       91.082       40.407        0.197      344.940       22.115      859.798
09/29/2014  18:01:00     -158.112       91.226      -43.599       81.100       60.817       40.704     6577.144     3698.749     1656.813        2.358        0.597      182.542       36.395        0.040      344.889       22.027      859.799
09/29/2014  18:02:00     -108.647       -2.813      -20.291       59.551       48.255       29.176     3546.364     2328.525      851.226        0.947        0.336      108.684       18.669        0.030      344.914       22.071      859.799
09/29/2014  18:03:00      -66.055       18.098      -12.214       55.749       50.289       27.110     3107.990     2529.015      734.937        0.560        0.319       68.490       27.195        0.158      344.925       22.091      859.799
09/29/2014  18:04:00      -55.811       89.960       -6.407       35.679       48.452       33.137     1272.998     2347.555     1098.030        0.798        0.236      105.867        6.955        0.004      344.894       22.038      859.800
09/29/2014  18:05:00      -72.046       43.490       -2.891       34.629       55.032       27.654     1199.201     3028.508      764.721        0.604        0.250       84.154       26.508        0.099      344.925       22.089      859.800
09/29/2014  18:06:00      -72.788       -5.877       -0.652       65.166       65.785       38.908     4246.589     4327.603     1513.868        0.771        0.504       73.025       41.381        0.321      344.928       22.095      859.796
09/29/2014  18:07:00     -116.718       40.509      -19.673       61.353       57.725       36.978     3764.184     3332.180     1367.341        1.206        0.423      123.548       33.897        0.075      344.817       21.904      859.798
09/29/2014  18:08:00      -55.617       15.966        9.246       43.587       49.121       39.379     1899.788     2412.835     1550.681        0.465        0.293       57.863       33.042        0.326      344.817       21.905      859.796
09/29/2014  18:09:00     -118.390       11.466      -17.557       34.613       67.561       33.528     1198.067     4564.438     1124.136        1.067        0.344      118.944       31.508        0.070      344.744       21.778      859.810
09/29/2014  18:10:00     -123.162       25.775      -11.645       59.931       75.457       39.245     3591.682     5693.686     1540.198        1.340        0.541      125.831       40.244        0.102      344.777       21.836      859.801
09/29/2014  18:11:00      -67.701       57.161       -9.846       32.616       39.225       21.098     1063.813     1538.573      445.127        0.550        0.152       88.605       12.471        0.020      344.741       21.775      859.822
09/29/2014  18:12:00     -106.823      -32.896      -15.870       63.747       59.370       44.055     4063.637     3524.854     1940.885        1.114        0.476      111.773       34.298        0.094      344.738       21.770      859.832
09/29/2014  18:13:00     -126.487      -13.644      -12.549       77.200       53.657       39.662     5959.765     2879.113     1573.061        1.338        0.521      127.220       43.424        0.117      344.685       21.679      859.845
09/29/2014  18:14:00     -124.085      100.122      -34.360       52.644       65.898       39.301     2771.348     4342.563     1544.580        1.763        0.433      159.441       29.081        0.033      344.685       21.678      859.862
09/29/2014  18:15:00     -100.342       25.671       -6.493       60.271       87.740       47.528     3632.555     7698.360     2258.938        1.218        0.679      103.574       42.067        0.165      344.668       21.648      859.876
09/29/2014  18:16:00     -107.265       47.202      -17.413       43.803       61.201       34.775     1918.663     3745.503     1209.284        1.045        0.344      117.191       28.973        0.061      344.665       21.644      859.887
09/29/2014  18:17:00     -102.716       -0.908       -8.443       50.924       40.688       29.042     2593.291     1655.546      843.449        0.786        0.255      102.720       26.411        0.066      344.667       21.647      859.896
09/29/2014  18:18:00      -56.789       74.164       -4.354       36.196       47.079       28.831     1310.115     2216.438      831.203        0.655        0.218       93.409       21.827        0.055      344.617       21.562      859.891
09/29/2014  18:19:00      -42.196       46.467       -2.366       30.175       28.856       23.252      910.523      832.665      540.668        0.311        0.114       62.767       15.920        0.064      344.588       21.510      859.881
09/29/2014  18:20:00     -110.479        4.227      -20.405       25.632       35.064       17.360      656.987     1229.504      301.367        0.741        0.109      110.560       12.157        0.012      344.611       21.552      859.874
09/29/2014  18:21:00     -136.258       -6.096      -15.092       66.827       33.562       28.755     4465.824     1126.396      826.839        1.262        0.321      136.394       33.027        0.059      344.609       21.549      859.856
09/29/2014  18:22:00      -59.430      -10.048       -1.496       32.672       32.549       23.440     1067.490     1059.417      549.451        0.316        0.134       60.273       16.912        0.079      344.532       21.416      859.853
09/29/2014  18:23:00      -66.710      -25.601       -8.923       21.122       34.482       12.846      446.150     1189.021      165.023        0.349        0.090       71.454        5.188        0.005      344.556       21.458      859.856
09/29/2014  18:24:00      -49.762      -12.975       -1.427       30.000       27.182       21.264      900.014      738.855      452.144        0.237        0.105       51.425       17.308        0.113      344.567       21.476      859.850
09/29/2014  18:25:00      -54.943      -11.633       -1.858       43.231       25.935       18.838     1868.888      672.612      354.889        0.303        0.145       56.161       11.596        0.043      344.444       21.266      859.851
09/29/2014  18:26:00     -106.883       11.141       -8.600       36.449       31.995       21.101     1328.518     1023.675      445.257        0.721        0.140      107.462       22.068        0.042      344.496       21.354      859.845
09/29/2014  18:27:00      -78.511       56.434      -15.469       21.379       43.777       20.885      457.051     1916.422      436.165        0.620        0.140       96.689       21.077        0.048      344.506       21.373      859.844
09/29/2014  18:28:00      -67.274       12.020      -10.758       18.985       23.340       14.124      360.428      544.750      199.496        0.295        0.055       68.339        9.679        0.020      344.423       21.231      859.842
09/29/2014  18:29:00      -51.599       -9.173       -5.172       21.297       17.795       18.829      453.575      316.664      354.517        0.195        0.056       52.408        5.332        0.010      344.441       21.264      859.842
09/29/2014  18:30:00      -44.947       12.799      -12.115       15.917       30.972       15.110      253.354      959.281      228.321        0.189        0.072       46.734        7.745        0.027      344.468       21.306      859.837
09/29/2014  18:31:00      -90.310      -36.588      -13.320       28.399       31.496       16.005      806.479      991.989      256.146        0.586        0.103       97.440       10.428        0.011      344.279       20.984      859.833
09/29/2014  18:32:00      -70.265      -10.734      -12.292       21.148       17.650       16.001      447.246      311.531      256.029        0.311        0.051       71.080       12.743        0.032      344.333       21.078      859.844
09/29/2014  18:33:00      -53.920       -6.510       -8.194       14.875       16.484       13.784      221.268      271.734      189.996        0.185        0.034       54.312        8.935        0.027      344.260       20.951      859.836
09/29/2014  18:34:00      -78.492       31.427      -22.205       38.367       50.700       24.512     1472.001     2570.537      600.831        0.614        0.232       84.549       27.864        0.109      344.282       20.989      859.830
09/29/2014  18:35:00      -64.003       61.042       -9.678       23.817       40.209       17.976      567.227     1616.768      323.119        0.521        0.125       88.445       13.460        0.023      344.173       20.804      859.819
09/29/2014  18:36:00      -51.493      -28.357       -4.014       22.079       27.248       13.549      487.485      742.476      183.583        0.244        0.071       58.785        5.546        0.009      344.145       20.756      859.819
09/29/2014  18:37:00      -57.098      -15.065       -9.852       16.277       13.291       10.930      264.936      176.653      119.456        0.207        0.028       59.052        7.158        0.015      344.105       20.689      859.816
09/29/2014  18:38:00      -76.702      -32.284      -10.875       19.589       20.030       13.168      383.743      401.216      173.396        0.400        0.048       83.219        5.753        0.005      344.099       20.679      859.801
09/29/2014  18:39:00      -83.707      -26.591      -11.755       18.083       18.128       11.431      327.010      328.642      130.669        0.432        0.039       87.829        6.914        0.006      344.095       20.671      859.795
09/29/2014  18:40:00      -88.066      -34.122       -8.880       13.123       12.210       12.791      172.214      149.096      163.611        0.474        0.024       94.446        4.743        0.003      344.038       20.575      859.795
09/29/2014  18:41:00     -105.112      -13.906      -16.447       20.052       16.286       10.907      402.078      265.234      118.959        0.615        0.039      106.028        9.120        0.007      344.051       20.595      859.796
09/29/2014  18:42:00      -82.160      -18.153      -13.826       20.987       16.617        9.630      440.436      276.129       92.746        0.404        0.040       84.142        9.124        0.012      344.106       20.690      859.785
09/29/2014  18:43:00      -86.317      -27.769      -10.060       29.640       26.103       15.205      878.505      681.388      231.194        0.506        0.090       90.674        7.214        0.006      344.135       20.738      859.794
09/29/2014  18:44:00      -88.707      -22.661      -13.008       14.811       19.328       12.093      219.372      373.573      146.230        0.465        0.037       91.556        6.632        0.005      343.963       20.445      859.796
09/29/2014  18:45:00     -114.514      -29.388      -17.195       24.654       22.964       12.372      607.831      527.326      153.068        0.778        0.064      118.225        9.720        0.007      343.904       20.344      859.791
09/29/2014  18:46:00     -118.990      -16.907      -14.376       26.452       19.842       16.667      699.722      393.707      277.805        0.801        0.069      120.185       10.437        0.008      343.882       20.308      859.794
09/29/2014  18:47:00      -77.338      -22.448       -7.375       16.758       16.266       12.137      280.814      264.585      147.310        0.362        0.035       80.530        5.668        0.005      343.843       20.240      859.789
09/29/2014  18:48:00      -81.660      -17.546      -10.890       25.171       26.955       15.065      633.581      726.589      226.961        0.434        0.079       83.523       11.855        0.020      343.955       20.431      859.777
09/29/2014  18:49:00     -115.210      -35.077       -7.273       17.786       22.668       14.404      316.359      513.839      207.484        0.780        0.052      120.431        8.450        0.005      343.836       20.229      859.769
09/29/2014  18:50:00      -73.539        8.871       -4.455       34.088       23.655       18.958     1162.026      559.550      359.406        0.379        0.104       74.072       21.366        0.083      343.848       20.248      859.768
09/29/2014  18:51:00      -76.234      -14.201       -8.120       29.542       22.009       13.529      872.700      484.406      183.022        0.381        0.077       77.545       10.257        0.017      343.846       20.243      859.757
09/29/2014  18:52:00      -67.237      -21.238      -11.156       24.697       14.293       13.848      609.940      204.295      191.772        0.305        0.050       70.511       11.088        0.025      343.714       20.020      859.741
09/29/2014  18:53:00      -82.546      -20.720       -9.276       30.099       20.121       12.425      905.965      404.861      154.390        0.440        0.073       85.107        8.980        0.011      343.862       20.271      859.734
09/29/2014  18:54:00      -66.495      -28.314       -9.093       30.707       19.421       12.208      942.942      377.170      149.027        0.339        0.073       72.272       10.659        0.022      343.752       20.083      859.721
09/29/2014  18:55:00      -57.013      -25.384       -6.337       22.825       19.600       17.494      520.959      384.170      306.043        0.257        0.061       62.409       12.233        0.038      343.724       20.037      859.707
09/29/2014  18:56:00      -52.394      -11.425       -5.791       42.164       39.092       16.077     1777.796     1528.177      258.469        0.324        0.178       53.625       13.658        0.065      343.737       20.059      859.708
09/29/2014  18:57:00      -86.561      -22.889       -6.117       23.704       29.852       15.957      561.877      891.141      254.626        0.488        0.085       89.536       13.831        0.024      343.717       20.025      859.696
09/29/2014  18:58:00      -66.555      -28.721       -7.808       30.184       25.344       15.354      911.059      642.296      235.753        0.355        0.089       72.488        8.991        0.015      343.613       19.846      859.690
09/29/2014  18:59:00      -81.574      -36.805      -15.489       30.460       21.055       16.627      927.831      443.299      276.473        0.495        0.082       89.493       14.416        0.026      343.552       19.745      859.693
09/29/2014  19:00:00      -99.300      -37.910      -18.215       34.800       19.861       15.497     1211.025      394.459      240.167        0.674        0.092      106.290       14.258        0.018      343.480       19.623      859.682
09/29/2014  19:01:00     -126.356      -45.594      -12.784       31.955       26.482       17.905     1021.092      701.314      320.603        1.013        0.102      134.331       10.635        0.006      343.409       19.502      859.674
09/29/2014  19:02:00     -108.874      -15.903       -9.325       30.930       26.809       20.674      956.674      718.745      427.403        0.715        0.105      110.029       15.934        0.021      343.338       19.379      859.670
09/29/2014  19:03:00     -112.824      -61.241      -10.140       29.394       21.946       18.350      863.983      481.605      336.733        0.913        0.084      128.374        9.207        0.005      343.393       19.473      859.661
09/29/2014  19:04:00     -140.392      -66.834       -6.180       46.692       37.370       29.552     2180.143     1396.517      873.312        1.433        0.222      155.489       26.567        0.029      343.259       19.242      859.659
09/29/2014  19:05:00      -94.263      -48.812       -3.168       58.106       25.217       26.000     3376.357      635.879      676.005        0.798        0.234      106.152       27.707        0.068      343.364       19.422      859.658
09/29/2014  19:06:00     -108.622      -90.373       -7.396       60.790       42.407       23.199     3695.469     1798.365      538.200        1.303        0.302      141.301       28.572        0.041      343.379       19.450      859.657
09/29/2014  19:07:00     -112.012      -72.643      -10.707       67.844       33.094       25.932     4602.831     1095.229      672.451        1.215        0.319      133.506       23.412        0.031      343.412       19.504      859.661
09/29/2014  19:08:00     -103.278      -49.092        6.054       73.462       55.350       33.663     5396.594     3063.609     1133.215        1.135        0.480      114.352       36.812        0.104      343.352       19.403      859.678
09/29/2014  19:09:00      -92.550      -53.252       -1.642       52.869       40.676       30.615     2795.093     1654.510      937.272        0.839        0.269      106.777       30.960        0.084      343.404       19.491      859.688
09/29/2014  19:10:00      -90.761      -38.689       -4.502       49.535       32.319       26.399     2453.733     1044.504      696.885        0.697        0.210       98.663       24.068        0.060      343.472       19.608      859.699
09/29/2014  19:11:00      -88.494       -7.346       -1.440       29.106       32.573       22.821      847.182     1061.020      520.786        0.516        0.121       88.798       20.882        0.055      343.404       19.491      859.719
09/29/2014  19:12:00      -81.882      -56.450       -2.979       26.848       35.258       19.829      720.832     1243.094      393.173        0.613        0.118       99.455       14.052        0.020      343.476       19.615      859.719
09/29/2014  19:13:00      -53.845      -39.923        5.129       49.761       25.659       19.600     2476.196      658.369      384.150        0.402        0.176       67.031       25.454        0.144      343.485       19.630      859.728
09/29/2014  19:14:00      -44.325      -59.957        3.870       38.749       35.037       21.310     1501.490     1227.574      454.110        0.438        0.159       74.563       24.591        0.109      343.553       19.744      859.734
09/29/2014  19:15:00      -74.717      -68.896      -17.902       37.610       23.621       20.992     1414.511      557.968      440.651        0.653        0.121      101.633       18.990        0.035      343.471       19.604      859.734
09/29/2014  19:16:00      -91.752      -57.614       -2.723       40.435       24.341       21.071     1634.958      592.483      443.995        0.721        0.134      108.341       19.424        0.032      343.393       19.474      859.750
09/29/2014  19:17:00      -51.331      -40.654        7.519       40.113       22.212       20.597     1609.081      493.393      424.236        0.344        0.126       65.480       19.176        0.086      343.382       19.453      859.751
09/29/2014  19:18:00     -101.557      -35.393       -5.404       21.007       23.290       17.749      441.306      542.446      315.013        0.645        0.065      107.547       13.055        0.015      343.349       19.398      859.759
09/29/2014  19:19:00     -119.942      -45.012       -3.382       23.092       19.636       12.147      533.221      385.560      147.545        0.874        0.053      128.110        7.169        0.003      343.392       19.470      859.765
09/29/2014  19:20:00     -113.117      -44.528       -7.879       18.578       18.518       13.488      345.136      342.910      181.927        0.786        0.043      121.566        9.010        0.005      343.367       19.428      859.771
09/29/2014  19:21:00     -118.251      -48.802       -7.303       15.670       19.273       10.571      245.541      371.450      111.750        0.857        0.036      127.926        7.404        0.003      343.335       19.373      859.776
09/29/2014  19:22:00     -128.733      -58.090       -4.494       20.851       22.028       13.102      434.764      485.244      171.671        1.053        0.055      141.233       10.025        0.005      343.338       19.377      859.791
09/29/2014  19:23:00     -103.635      -53.124       -9.315       20.014       15.504       12.823      400.577      240.371      164.442        0.723        0.040      116.457       10.085        0.007      343.323       19.352      859.791
09/29/2014  19:24:00     -101.526      -41.015       -9.636       17.394       14.562        9.222      302.537      212.047       85.050        0.634        0.030      109.498        9.276        0.007      343.281       19.281      859.795
09/29/2014  19:25:00     -107.710      -25.242       -7.211       18.088       14.302       11.629      327.186      204.535      135.242        0.648        0.033      110.628        7.029        0.004      343.243       19.217      859.797
09/29/2014  19:26:00     -106.636      -40.845       -5.085       11.234       15.887       11.383      126.210      252.405      129.578        0.679        0.025      114.190        6.717        0.003      343.238       19.209      859.796
09/29/2014  19:27:00      -90.202      -43.430       -5.749       23.697       11.000       10.344      561.568      120.990      107.007        0.542        0.039      100.113       10.791        0.012      343.228       19.192      859.803
09/29/2014  19:28:00      -31.949      -13.687       10.184       39.221       24.619       16.307     1538.323      606.090      265.927        0.186        0.121       34.757       15.790        0.206      343.170       19.092      859.825
09/29/2014  19:29:00      -18.745      -29.128        9.957       39.268       35.900       21.643     1542.006     1288.819      468.432        0.230        0.165       34.638       24.043        0.482      343.091       18.959      859.838
09/29/2014  19:30:00     -104.573      -42.384       -3.389       28.227       21.100       18.512      796.777      445.210      342.691        0.716        0.079      112.836       16.881        0.022      343.153       19.063      859.852
09/29/2014  19:31:00     -108.023      -22.736       -4.424       26.947       17.539       16.665      726.132      307.631      277.719        0.676        0.066      110.390       12.252        0.012      343.175       19.103      859.858
09/29/2014  19:32:00     -102.841      -39.719        6.261       61.844       35.544       21.038     3824.675     1263.346      442.616        0.886        0.277      110.245       23.708        0.046      343.133       19.029      859.857
09/29/2014  19:33:00     -137.834      -38.407       -3.253       47.103       57.622       26.270     2218.708     3320.301      690.099        1.336        0.311      143.085       29.148        0.041      343.197       19.138      859.861
09/29/2014  19:34:00     -124.415      -60.505        0.237       42.021       41.597       27.906     1765.777     1730.273      778.720        1.171        0.214      138.347       26.483        0.037      343.190       19.128      859.873
09/29/2014  19:35:00     -111.400      -47.978        3.587       41.477       55.440       30.226     1720.302     3073.588      913.587        1.022        0.285      121.293       26.694        0.048      343.138       19.037      859.871
09/29/2014  19:36:00     -143.793      -49.889       -5.103       51.420       46.122       29.756     2643.973     2127.265      885.394        1.442        0.283      152.202       24.567        0.026      343.132       19.027      859.875
09/29/2014  19:37:00     -176.742      -68.545        6.187       63.006       67.619       33.459     3969.708     4572.304     1119.514        2.282        0.483      189.568       38.351        0.041      343.166       19.084      859.872
09/29/2014  19:38:00     -196.937     -104.497       -8.117       88.820       58.062       35.579     7889.045     3371.139     1265.864        3.115        0.626      222.943       40.959        0.034      343.245       19.217      859.863
09/29/2014  19:39:00     -164.116      -42.826       -5.777       76.032       56.440       35.979     5780.828     3185.453     1294.506        1.953        0.513      169.612       39.349        0.054      343.187       19.119      859.867
09/29/2014  19:40:00     -165.858      -65.535        8.109       86.451       56.439       35.779     7473.720     3185.360     1280.160        2.190        0.597      178.336       43.761        0.060      343.130       19.024      859.880
09/29/2014  19:41:00     -190.086      -78.400       -0.491       81.311       60.498       39.896     6611.457     3659.981     1591.672        2.707        0.593      205.619       46.146        0.050      343.252       19.229      859.884
09/29/2014  19:42:00     -173.861      -66.293        3.763       72.972       55.515       40.239     5324.915     3081.864     1619.165        2.233        0.501      186.071       37.723        0.041      343.187       19.119      859.888
09/29/2014  19:43:00     -162.914      -62.472        5.956       76.370       72.494       41.425     5832.326     5255.403     1715.994        2.164        0.640      174.481       40.767        0.055      343.251       19.230      859.898
09/29/2014  19:44:00     -127.138      -88.571        0.991       94.216       64.655       41.919     8876.628     4180.246     1757.189        1.941        0.741      154.948       48.079        0.096      343.324       19.354      859.903
09/29/2014  19:45:00     -169.691      -59.963       -6.424       76.379       71.018       34.575     5833.793     5043.535     1195.457        2.225        0.604      179.974       35.888        0.040      343.261       19.246      859.915
09/29/2014  19:46:00     -205.942      -79.433      -10.816       58.856       61.869       36.647     3463.970     3827.831     1342.996        2.874        0.432      220.730       35.837        0.026      343.302       19.315      859.919
09/29/2014  19:47:00     -172.326      -84.400        1.073      103.122       63.812       41.637    10634.204     4072.025     1733.662        2.663        0.822      191.884       44.720        0.054      343.288       19.292      859.920
09/29/2014  19:48:00     -171.874     -107.157       -5.547       71.262       88.350       41.204     5078.246     7805.782     1697.748        2.782        0.729      202.542       40.145        0.039      343.285       19.286      859.916
09/29/2014  19:49:00     -185.406      -88.457       -0.671       61.237       62.826       42.524     3750.031     3947.093     1808.296        2.585        0.475      205.427       34.511        0.028      343.355       19.404      859.922
09/29/2014  19:50:00     -146.656      -69.606        0.244       74.147       56.317       33.575     5497.793     3171.594     1127.262        1.807        0.490      162.336       41.226        0.064      343.307       19.324      859.928
09/29/2014  19:51:00     -126.322      -81.275        5.357       78.179       57.951       34.706     6111.949     3358.283     1204.519        1.663        0.534      150.209       39.603        0.070      343.317       19.344      859.935
09/29/2014  19:52:00     -173.190      -76.834       -1.279       68.156       67.649       34.934     4645.283     4576.405     1220.418        2.317        0.522      189.468       29.238        0.024      343.346       19.392      859.973
09/29/2014  19:53:00     -106.364      -54.761       10.918       75.706       57.718       41.696     5731.334     3331.369     1738.533        1.261        0.540      119.633       47.036        0.155      343.298       19.311      860.004
09/29/2014  19:54:00     -126.116     -111.993       -0.865       91.955       53.804       34.574     8455.688     2894.846     1195.391        2.050        0.627      168.664       33.271        0.039      343.347       19.393      860.044
09/29/2014  19:55:00      -92.851     -132.349      -17.351       76.038       56.089       37.386     5781.771     3145.969     1397.732        1.838        0.516      161.671       36.906        0.052      343.235       19.202      860.082
09/29/2014  19:56:00     -163.292     -106.160       -9.997       53.302       70.345       32.849     2841.109     4948.447     1079.067        2.345        0.443      194.767       26.218        0.018      343.212       19.164      860.075
09/29/2014  19:57:00     -143.862      -87.616        0.774       80.812       59.757       37.871     6530.581     3570.876     1434.246        1.995        0.577      168.443       41.281        0.060      343.187       19.123      860.066
09/29/2014  19:58:00     -128.202      -68.195        3.758      119.405       87.519       39.002    14257.526     7659.585     1521.118        2.227        1.172      145.211       47.634        0.108      343.172       19.094      860.068
09/29/2014  19:59:00     -160.147     -154.125        8.060      126.060      125.535       63.778    15891.140    15758.997     4067.648        4.259        1.786      222.264       72.589        0.107      343.153       19.062      860.056
09/29/2014  20:00:00     -155.505      -81.274        2.979       97.853       98.220       60.709     9575.187     9647.226     3685.608        2.685        1.145      175.463       61.861        0.124      343.160       19.074      860.049
09/29/2014  20:01:00     -202.737      -94.151      -23.279      127.092      114.104       54.572    16152.365    13019.675     2978.108        4.132        1.608      223.532       61.218        0.075      343.182       19.110      860.060
09/29/2014  20:02:00     -212.907      -47.207      -14.649      106.316      112.970       49.436    11303.091    12762.273     2443.869        3.714        1.325      218.078       41.481        0.036      343.169       19.089      860.054
09/29/2014  20:03:00     -189.298      -56.788        4.674      102.231       96.990       49.532    10451.093     9407.108     2453.436        3.069        1.116      197.633       50.852        0.066      343.110       18.987      860.055
09/29/2014  20:04:00     -127.095      -18.604       -5.759       70.614       51.591       33.678     4986.267     2661.599     1134.231        1.266        0.439      128.449       35.561        0.077      343.083       18.946      860.053
09/29/2014  20:05:00     -167.637      -54.753        8.342      127.496       96.258       60.071    16255.256     9265.529     3608.490        3.014        1.456      176.353       63.689        0.130      343.080       18.938      860.063
09/29/2014  20:06:00     -230.632      -87.840       -5.944      128.880       73.577       44.909    16609.939     5413.591     2016.817        4.249        1.202      246.793       53.498        0.047      343.108       18.983      860.076
09/29/2014  20:07:00     -188.396        0.201      -13.351       79.641       61.493       34.038     6342.649     3781.382     1158.619        2.348        0.564      188.396       34.430        0.033      343.101       18.975      860.077
09/29/2014  20:08:00     -254.590      -31.525       -8.401       94.603       72.832       47.544     8949.742     5304.524     2260.401        4.119        0.826      256.534       45.397        0.031      343.143       19.043      860.074
09/29/2014  20:09:00     -208.242      -24.504       -4.964       85.879       88.911       50.589     7375.264     7905.224     2559.275        3.091        0.892      209.679       42.717        0.042      343.097       18.966      860.073
09/29/2014  20:10:00     -288.795      -54.057      -21.009      105.500       61.647       41.218    11130.249     3800.325     1698.883        5.170        0.831      293.811       44.363        0.023      343.202       19.142      860.071
09/29/2014  20:11:00     -203.295      -44.438      -11.134       78.824       83.344       42.465     6213.270     6946.160     1803.317        2.919        0.748      208.095       34.066        0.027      343.182       19.110      860.069
09/29/2014  20:12:00     -297.175      -54.832      -24.520      122.470      121.062       52.131    14998.881    14656.096     2717.683        6.214        1.619      302.191       56.863        0.035      343.247       19.221      860.063
09/29/2014  20:13:00     -201.028      -11.901      -25.595       75.086       65.841       45.073     5637.863     4335.045     2031.568        2.660        0.600      201.380       34.438        0.029      343.237       19.205      860.067
09/29/2014  20:14:00     -286.251      -93.147      -13.247       94.580       94.930       48.174     8945.437     9011.618     2320.726        5.553        1.014      301.025       48.810        0.026      343.209       19.154      860.094
09/29/2014  20:15:00     -271.659     -120.851       -6.712      150.013       96.645       55.830    22503.986     9340.176     3116.971        6.170        1.748      297.327       66.479        0.050      343.243       19.214      860.110
09/29/2014  20:16:00     -211.395      -87.988       -3.728      105.459       84.854       42.276    11121.603     7200.209     1787.244        3.627        1.005      228.975       49.307        0.046      343.170       19.088      860.131
09/29/2014  20:17:00     -155.569      -25.022       -3.406       91.900       72.605       43.861     8445.568     5271.516     1923.747        2.024        0.782      157.569       43.326        0.076      343.142       19.044      860.151
09/29/2014  20:18:00     -139.931       -6.656        0.039       70.936       67.625       42.287     5031.936     4573.098     1788.200        1.551        0.570      140.090       42.888        0.094      343.152       19.061      860.159
09/29/2014  20:19:00     -128.833      -26.642       -5.803       63.797       54.845       32.255     4070.028     3008.019     1040.377        1.273        0.406      131.559       25.924        0.039      343.208       19.156      860.151
09/29/2014  20:20:00     -180.277      -63.392      -11.534       69.842       65.354       31.108     4877.852     4271.192      967.704        2.338        0.506      191.098       24.853        0.017      343.194       19.132      860.151
09/29/2014  20:21:00     -189.863       -9.850      -11.424       86.612       76.207       51.052     7501.690     5807.484     2606.288        2.609        0.796      190.118       49.171        0.067      343.184       19.113      860.165
09/29/2014  20:22:00     -156.736      -34.216       -3.958       64.885       60.545       38.276     4210.027     3665.731     1465.026        1.755        0.467      160.428       30.106        0.035      343.158       19.072      860.175
09/29/2014  20:23:00     -166.672      -47.409      -10.548       91.967       59.615       31.390     8457.902     3553.970      985.360        2.157        0.650      173.283       36.077        0.043      343.164       19.079      860.174
09/29/2014  20:24:00     -132.335       50.006      -23.301       41.007       56.050       28.177     1681.556     3141.573      793.920        1.309        0.281      141.468       22.703        0.026      343.161       19.078      860.191
09/29/2014  20:25:00     -119.452      -30.082        0.545       63.532       53.529       31.922     4036.305     2865.368     1018.997        1.155        0.396      123.181       29.679        0.058      343.063       18.909      860.240
09/29/2014  20:26:00     -111.982      -23.668        3.885       70.430       40.318       25.456     4960.330     1625.543      648.001        1.017        0.362      114.456       24.329        0.045      343.082       18.942      860.266
09/29/2014  20:27:00     -136.704       -7.843      -19.777       49.362       43.647       30.827     2436.631     1905.063      950.293        1.222        0.265      136.929       25.909        0.036      343.085       18.948      860.276
09/29/2014  20:28:00     -141.920       -1.522      -14.774       44.469       35.821       24.120     1977.472     1283.146      581.794        1.210        0.192      141.929       19.404        0.019      343.104       18.980      860.286
09/29/2014  20:29:00     -203.360       38.586      -16.762       90.516       59.517       29.034     8193.231     3542.267      842.977        2.785        0.629      206.989       28.926        0.020      343.106       18.982      860.298
09/29/2014  20:30:00     -168.401       -4.311      -23.175       79.719       41.208       31.569     6355.092     1698.094      996.606        1.898        0.452      168.456       40.633        0.058      343.031       18.856      860.280
09/29/2014  20:31:00      -91.856       -2.044        3.082       80.050       36.934       40.186     6408.008     1364.135     1614.888        0.892        0.469       91.879       45.215        0.242      342.948       18.714      860.268
09/29/2014  20:32:00      -95.499        6.835      -10.706       41.359       37.637       28.884     1710.604     1416.549      834.279        0.662        0.198       95.744       25.180        0.069      343.040       18.873      860.273
09/29/2014  20:33:00     -162.282      -17.387      -16.944       43.669       78.400       30.613     1906.992     6146.571      937.153        1.796        0.450      163.211       28.068        0.030      343.045       18.879      860.278
09/29/2014  20:34:00      -94.606        6.775      -11.515       47.009       41.400       24.833     2209.809     1713.933      616.663        0.683        0.227       94.848       11.443        0.015      343.018       18.834      860.267
09/29/2014  20:35:00     -116.581      -21.053       -6.979       51.227       39.511       26.532     2624.218     1561.085      703.930        0.949        0.244      118.466       28.641        0.058      343.008       18.817      860.256
09/29/2014  20:36:00      -67.883      -35.163        2.290       54.505       41.818       19.824     2970.784     1748.767      392.987        0.548        0.256       76.450       18.530        0.059      342.914       18.657      860.250
09/29/2014  20:37:00     -116.778      -39.735       -8.110       49.620       37.938       22.140     2462.121     1439.275      490.198        0.984        0.220      123.353       23.959        0.038      342.996       18.796      860.248
09/29/2014  20:38:00      -78.373      -14.271      -10.659       36.431       29.387       19.160     1327.251      863.581      367.113        0.451        0.128       79.662       16.000        0.040      342.973       18.756      860.252
09/29/2014  20:39:00     -126.417      -42.947       -5.674       52.638       36.658       25.131     2770.722     1343.837      631.589        1.130        0.237      133.513       24.034        0.032      342.920       18.668      860.259
09/29/2014  20:40:00     -102.129      -35.456       -1.039       83.703       48.009       30.763     7006.259     2304.900      946.360        1.097        0.513      108.108       36.229        0.112      342.924       18.674      860.265
09/29/2014  20:41:00     -183.504      -58.453      -12.406       90.130       61.152       36.041     8123.474     3739.577     1298.961        2.520        0.658      192.589       29.337        0.023      342.983       18.774      860.277
09/29/2014  20:42:00     -135.138      -17.010       -6.076       88.940       58.671       30.746     7910.278     3442.251      945.326        1.544        0.615      136.204       39.288        0.083      342.939       18.699      860.293
09/29/2014  20:43:00     -187.846      -33.625      -10.822       75.783       60.534       36.760     5743.074     3664.307     1351.307        2.364        0.538      190.831       40.430        0.045      343.008       18.816      860.293
09/29/2014  20:44:00     -123.599      -63.581        2.452       79.442       62.152       33.031     6311.040     3862.922     1091.068        1.529        0.563      138.994       34.995        0.063      342.946       18.711      860.280
09/29/2014  20:45:00     -144.799      -26.205       -9.360       53.375       87.080       33.197     2848.917     7582.989     1102.051        1.664        0.577      147.151       25.862        0.031      342.959       18.732      860.279
09/29/2014  20:46:00     -246.623      -11.103      -19.111      132.286       81.865       47.248    17499.716     6701.883     2232.364        4.387        1.322      246.873       49.505        0.040      343.007       18.814      860.281
09/29/2014  20:47:00     -273.237       -6.505      -10.102       88.012       75.489       50.869     7746.066     5698.616     2587.613        4.541        0.802      273.314       52.288        0.037      343.049       18.884      860.302
09/29/2014  20:48:00     -202.610       -5.101       -8.899       86.037       77.854       41.574     7402.353     6061.245     1728.410        2.817        0.760      202.675       37.906        0.035      342.980       18.766      860.301
09/29/2014  20:49:00     -210.298      -55.811       -8.913       59.248       65.352       35.614     3510.315     4270.947     1268.337        2.823        0.452      217.578       29.437        0.018      343.016       18.827      860.309
09/29/2014  20:50:00     -201.817      -31.039      -15.475       53.909       65.106       43.753     2906.185     4238.839     1914.368        2.549        0.453      204.190       27.774        0.019      343.008       18.817      860.317
09/29/2014  20:51:00     -133.976       39.949      -14.282       48.105       57.550       29.030     2314.123     3312.047      842.748        1.311        0.323      139.805       14.098        0.010      342.986       18.780      860.331
09/29/2014  20:52:00     -144.591       -8.583      -26.684       51.826       83.094       34.722     2685.908     6904.591     1205.631        1.624        0.540      144.846       36.384        0.063      343.013       18.824      860.346
09/29/2014  20:53:00     -147.619       -4.221        5.355      167.474       69.995       40.336    28047.589     4899.246     1626.976        2.820        1.729      147.679       60.024        0.165      342.976       18.761      860.351
09/29/2014  20:54:00     -200.491      -25.862      -10.361       92.574       73.017       34.568     8570.004     5331.535     1194.932        2.803        0.755      202.152       30.406        0.023      342.997       18.796      860.372
09/29/2014  20:55:00     -206.793      -65.879       -9.632       77.311       58.789       31.623     5976.961     3456.178     1000.023        2.881        0.522      217.033       34.275        0.025      342.961       18.735      860.384
09/29/2014  20:56:00     -215.558      -55.462      -13.057      106.638       79.736       51.048    11371.572     6357.772     2605.858        3.502        1.017      222.579       58.729        0.070      342.941       18.701      860.396
09/29/2014  20:57:00     -265.917      -60.992      -20.750       70.665       65.185       46.745     4993.607     4249.055     2185.114        4.314        0.571      272.822       36.941        0.018      342.963       18.738      860.424
09/29/2014  20:58:00     -201.628       19.602      -10.996      103.710       83.558       46.736    10755.664     6981.950     2184.295        3.054        0.996      202.579       41.322        0.042      342.951       18.719      860.431
09/29/2014  20:59:00     -279.430      -16.112      -20.061      116.386       55.548       43.103    13545.791     3085.604     1857.875        4.861        0.924      279.894       47.820        0.029      342.969       18.746      860.425
09/29/2014  21:00:00     -189.046      -76.302       -8.411       67.735       63.052       40.421     4587.977     3975.493     1633.849        2.591        0.510      203.864       29.668        0.021      342.986       18.778      860.427
09/29/2014  21:01:00     -130.470      -60.966       -9.521       51.168       55.642       32.975     2618.189     3096.071     1087.339        1.381        0.340      144.011       21.347        0.022      342.911       18.652      860.435
09/29/2014  21:02:00     -138.289      -43.702      -26.189       69.980       54.159       42.325     4897.217     2933.221     1791.417        1.567        0.481      145.030       32.410        0.050      342.902       18.636      860.440
09/29/2014  21:03:00      -80.440      -53.393      -16.034       60.780       52.613       35.747     3694.226     2768.165     1277.829        0.866        0.387       96.547       29.935        0.096      342.856       18.559      860.458
09/29/2014  21:04:00     -223.433      -34.410      -37.670       65.475       59.714       30.293     4286.994     3565.736      917.653        3.065        0.439      226.067       18.423        0.007      342.863       18.567      860.476
09/29/2014  21:05:00     -190.047      -61.216      -11.604       83.815       65.982       43.051     7024.944     4353.649     1853.361        2.661        0.662      199.663       38.248        0.037      342.851       18.548      860.494
09/29/2014  21:06:00     -146.390      -48.137      -26.680       90.907       73.608       52.698     8264.109     5418.082     2777.039        2.046        0.823      154.101       45.715        0.088      342.872       18.583      860.502
09/29/2014  21:07:00     -159.496      -35.892       -5.818       73.624       77.737       40.753     5420.504     6043.087     1660.787        1.994        0.656      163.485       35.076        0.046      342.835       18.520      860.502
09/29/2014  21:08:00     -147.421       35.631      -17.652      106.492       61.360       42.160    11340.640     3765.034     1777.467        2.010        0.844      151.666       49.918        0.108      342.852       18.550      860.503
09/29/2014  21:09:00     -130.412      -25.712      -15.451       65.823       69.391       40.242     4332.686     4815.107     1619.417        1.434        0.538      132.923       29.655        0.050      342.813       18.486      860.512
09/29/2014  21:10:00     -180.658      -66.391      -22.446       90.737       72.634       39.928     8233.126     5275.693     1594.228        2.632        0.755      192.471       35.526        0.034      342.796       18.453      860.533
09/29/2014  21:11:00     -184.112      -21.885       -6.725      116.389       85.978       50.460    13546.359     7392.153     2546.220        2.895        1.174      185.408       59.004        0.101      342.816       18.488      860.554
09/29/2014  21:12:00     -173.738      -27.155      -27.425       47.540       47.103       29.021     2260.022     2218.737      842.216        1.850        0.266      175.847       22.920        0.017      342.775       18.418      860.584
09/29/2014  21:13:00     -191.514      -60.787      -19.020       72.325       47.846       32.341     5230.834     2289.202     1045.922        2.465        0.428      200.929       24.596        0.015      342.703       18.295      860.604
09/29/2014  21:14:00     -258.798      -74.998      -31.627      121.394       73.856       46.547    14736.617     5454.744     2166.649        4.798        1.118      269.446       27.935        0.011      342.802       18.464      860.623
09/29/2014  21:15:00     -165.442      -42.557      -15.659       75.993       83.180       50.588     5774.916     6918.871     2559.122        2.234        0.763      170.828       43.476        0.065      342.762       18.396      860.639
09/29/2014  21:16:00     -124.067       -6.439       -7.530       68.346       83.408       38.164     4671.118     6956.898     1456.471        1.429        0.654      124.234       21.067        0.029      342.771       18.412      860.658
09/29/2014  21:17:00     -175.064       19.888      -35.736       57.170       83.294       48.598     3268.418     6937.896     2361.810        2.244        0.628      176.190       43.139        0.060      342.816       18.488      860.653
09/29/2014  21:18:00     -164.934      -93.793      -13.930      114.647       70.848       41.144    13144.017     5019.412     1692.837        2.802        0.993      189.737       40.060        0.045      342.772       18.413      860.654
09/29/2014  21:19:00     -165.430      -43.809      -10.579       77.926       75.263       48.140     6072.487     5664.576     2317.447        2.172        0.703      171.133       42.482        0.062      342.760       18.393      860.653
09/29/2014  21:20:00     -275.211      -94.911      -17.316       75.572       58.584       35.035     5711.118     3432.084     1227.469        4.771        0.519      291.117       26.786        0.008      342.855       18.551      860.623
09/29/2014  21:21:00     -176.523      -13.617      -10.588       70.908       59.372       32.317     5027.938     3525.062     1044.366        2.053        0.480      177.048       21.200        0.014      342.801       18.464      860.572
09/29/2014  21:22:00     -125.365      -22.511       -7.093       50.896       51.263       34.202     2590.433     2627.859     1169.756        1.133        0.319      127.370       32.064        0.063      342.748       18.374      860.518
09/29/2014  21:23:00     -168.224      -34.518      -21.413       75.879       79.233       37.516     5757.624     6277.909     1407.466        2.169        0.672      171.729       41.193        0.058      342.768       18.408      860.493
09/29/2014  21:24:00     -199.478      -32.664      -17.208       51.407       64.782       32.219     2642.656     4196.718     1038.058        2.451        0.394      202.134       28.306        0.020      342.756       18.386      860.500
09/29/2014  21:25:00     -142.906      -35.590       -2.547       75.116       67.695       40.624     5642.345     4582.678     1650.306        1.678        0.594      147.271       44.790        0.092      342.723       18.331      860.501
09/29/2014  21:26:00     -174.015      -38.384       -8.428       66.671       57.616       40.760     4444.994     3319.587     1661.402        2.062        0.471      178.198       41.742        0.055      342.703       18.296      860.508
09/29/2014  21:27:00     -220.197       40.789      -17.246       73.960       63.589       35.029     5470.126     4043.559     1227.012        3.059        0.537      223.943       34.241        0.023      342.765       18.400      860.513
09/29/2014  21:28:00     -196.767      -28.335      -18.848       66.741       57.510       38.889     4454.423     3307.355     1512.390        2.457        0.464      198.797       35.296        0.032      342.794       18.450      860.509
09/29/2014  21:29:00     -226.047      -22.574      -16.920       59.047       81.634       33.447     3486.504     6664.176     1118.717        3.158        0.563      227.171       26.392        0.013      342.784       18.430      860.520
09/29/2014  21:30:00     -197.275      -52.649      -10.513      104.166       51.464       38.192    10850.657     2648.533     1458.604        2.838        0.748      204.180       50.566        0.061      342.745       18.366      860.545
09/29/2014  21:31:00     -177.177      -41.494      -30.532       65.223       39.687       34.438     4254.017     1575.079     1185.983        2.053        0.351      181.971       25.336        0.019      342.775       18.417      860.580
09/29/2014  21:32:00     -178.657      -51.518       -5.002       71.714       63.691       35.791     5142.882     4056.537     1281.009        2.254        0.524      185.936       33.054        0.032      342.740       18.358      860.615
09/29/2014  21:33:00     -203.396      -24.375      -21.599       53.111       56.475       39.890     2820.768     3189.374     1591.238        2.501        0.380      204.851       33.186        0.026      342.825       18.503      860.630
09/29/2014  21:34:00     -264.934        2.733      -22.602      101.189       47.327       38.726    10239.208     2239.836     1499.667        4.234        0.699      264.948       48.951        0.034      342.806       18.469      860.646
09/29/2014  21:35:00     -107.565      -28.412       -2.859       65.617       46.539       30.530     4305.532     2165.874      932.109        0.989        0.370      111.254       33.631        0.091      342.706       18.304      860.647
09/29/2014  21:36:00     -184.572      -10.905       -9.575       74.261       61.896       29.656     5514.712     3831.161      879.484        2.225        0.511      184.894       28.802        0.024      342.789       18.443      860.625
09/29/2014  21:37:00     -191.859        3.952      -27.143       43.051       37.187       24.178     1853.403     1382.894      584.577        2.069        0.191      191.900       10.888        0.003      342.777       18.423      860.614
09/29/2014  21:38:00      -99.366      -33.728        5.556       46.264       60.663       34.634     2140.330     3680.031     1199.516        0.903        0.351      104.935       28.170        0.072      342.679       18.256      860.601
09/29/2014  21:39:00      -36.684      -37.743       10.272       49.498       46.134       33.430     2450.064     2128.357     1117.580        0.428        0.285       52.633       29.022        0.304      342.763       18.400      860.583
09/29/2014  21:40:00      -57.868       -1.973       -2.985       31.663       20.010       18.794     1002.571      400.420      353.227        0.256        0.088       57.902       13.084        0.051      342.720       18.327      860.598
09/29/2014  21:41:00      -50.141        0.554       -2.936       16.038       17.910       12.296      257.233      320.766      151.185        0.163        0.036       50.144        9.827        0.038      342.781       18.430      860.608
09/29/2014  21:42:00      -54.173       -0.346       -1.895       24.647       32.456       21.282      607.469     1053.401      452.910        0.253        0.106       54.174       19.650        0.132      342.752       18.380      860.623
09/29/2014  21:43:00      -54.469        1.458       -8.118       20.286       16.497       11.953      411.523      272.162      142.875        0.193        0.041       54.489        7.962        0.021      342.752       18.378      860.627
09/29/2014  21:44:00      -33.226      -18.313        0.266       26.147       17.866        8.192      683.691      319.197       67.101        0.125        0.053       37.939        6.346        0.028      342.762       18.399      860.636
09/29/2014  21:45:00      -13.877      -11.018       -2.191       18.322       13.358        5.742      335.700      178.439       32.969        0.043        0.027       17.720        4.096        0.053      342.708       18.307      860.637
09/29/2014  21:46:00        5.425       -5.247       -2.147       20.942       17.988       19.349      438.558      323.558      374.368        0.060        0.057        7.547       14.438        3.660      342.650       18.208      860.630
09/29/2014  21:47:00       52.153       65.236       52.450       30.130       24.395       20.611      907.837      595.131      424.798        0.583        0.096       83.521       17.153        0.042      342.504       17.961      860.611
09/29/2014  21:48:00       -2.311       13.360       51.167       20.924       28.846       24.335      437.801      832.080      592.185        0.233        0.093       13.558       21.543        2.525      342.473       17.908      860.610
09/29/2014  21:49:00        6.772      -17.253       -0.673       12.015       16.066       16.195      144.369      258.113      262.294        0.050        0.033       18.534       10.135        0.299      342.498       17.950      860.622
09/29/2014  21:50:00       26.086       29.969       16.502       21.760       19.344       13.862      473.483      374.174      192.152        0.145        0.052       39.732        8.172        0.042      342.343       17.687      860.627
09/29/2014  21:51:00        8.395       22.246       33.833       26.788       35.785       11.904      717.612     1280.542      141.703        0.192        0.107       23.777       11.556        0.236      342.226       17.488      860.621
09/29/2014  21:52:00       -0.903        1.200       23.628       15.266       23.432       10.934      233.061      549.051      119.555        0.073        0.045        1.502        5.878       15.316      342.233       17.498      860.626
09/29/2014  21:53:00       71.741      -63.449       -8.810       14.736       19.003       13.388      217.136      361.116      179.245        0.500        0.038       95.773       10.091        0.011      342.429       17.833      860.619
09/29/2014  21:54:00       55.628      -76.051      -10.778       21.581       15.585       13.070      465.759      242.895      170.837        0.494        0.044       94.225        9.684        0.011      342.416       17.812      860.612
09/29/2014  21:55:00       59.973      -69.228      -18.187       16.028       22.811       13.464      256.889      520.342      181.274        0.484        0.048       91.593        8.920        0.009      342.380       17.751      860.612
09/29/2014  21:56:00       16.861      -10.041        8.482       23.173       30.387       15.025      537.009      923.360      225.743        0.107        0.084       19.624       13.154        0.449      342.250       17.527      860.619
09/29/2014  21:57:00        1.632       12.383        3.201       12.715       14.042        5.215      161.661      197.164       27.193        0.028        0.019       12.490        5.164        0.171      342.200       17.442      860.635
09/29/2014  21:58:00       17.226       12.051       -0.676       10.107        7.244        4.547      102.160       52.471       20.673        0.031        0.009       21.023        2.936        0.020      342.143       17.349      860.649
09/29/2014  21:59:00        0.921       -7.356        2.163       15.057       25.163       11.386      226.701      633.161      129.631        0.052        0.049        7.413        6.054        0.667      342.131       17.327      860.673
09/29/2014  22:00:00      -39.927      -33.731      -11.234       22.442       14.997        7.136      503.645      224.896       50.917        0.182        0.039       52.268        7.694        0.022      342.286       17.588      860.703
09/29/2014  22:01:00      -56.058      -24.116       -1.670        8.986       11.236        8.072       80.748      126.256       65.162        0.200        0.014       61.025        2.324        0.001      342.244       17.519      860.746
09/29/2014  22:02:00      -35.115        2.956       -2.375       13.792        8.212        9.436      190.213       67.432       89.032        0.080        0.017       35.239        9.652        0.075      342.071       17.223      860.771
09/29/2014  22:03:00      -23.150        0.661        0.656       13.578        5.908        5.990      184.355       34.910       35.875        0.040        0.013       23.160        2.508        0.012      342.076       17.233      860.784
09/29/2014  22:04:00       -6.171       32.570        0.145       12.638        9.387        8.995      159.719       88.114       80.903        0.071        0.016       33.149        9.364        0.080      342.192       17.428      860.784
09/29/2014  22:05:00      -15.441       37.376       -8.505       21.252        8.681        7.676      451.643       75.351       58.925        0.115        0.029       40.440        8.408        0.043      342.412       17.803      860.788
09/29/2014  22:06:00      -47.248       49.051      -14.289       17.564       22.075       10.142      308.507      487.324      102.854        0.287        0.045       68.106       10.930        0.026      342.403       17.786      860.818
09/29/2014  22:07:00      -69.240       85.813      -16.570       39.707       34.147       18.200     1576.631     1165.991      331.227        0.775        0.154      110.263       18.946        0.030      342.524       17.993      860.837
09/29/2014  22:08:00      -95.821       25.122       -7.840       29.617       30.226       17.208      877.161      913.582      296.102        0.598        0.104       99.059       12.801        0.017      342.276       17.573      860.878
09/29/2014  22:09:00      -38.285       40.455       -4.356       28.233       31.679       14.038      797.101     1003.552      197.072        0.256        0.100       55.698        9.252        0.028      342.377       17.744      860.902
09/29/2014  22:10:00      -53.299      -28.114       -7.828       22.742       22.748        8.533      517.177      517.453       72.815        0.240        0.055       60.259        7.065        0.014      342.316       17.639      860.915
09/29/2014  22:11:00      -69.660      -12.422       -2.296       22.015       24.348       15.011      484.654      592.844      225.318        0.316        0.065       70.759       13.051        0.034      342.194       17.433      860.900
09/29/2014  22:12:00      -83.024       10.569       -5.328       22.892       12.798        9.110      524.051      163.799       82.997        0.390        0.039       83.694        7.055        0.007      342.329       17.662      860.887
09/29/2014  22:13:00      -52.104       11.901       -9.595       18.589       19.280        9.742      345.557      371.725       94.916        0.188        0.041       53.446        5.343        0.010      342.297       17.609      860.875
09/29/2014  22:14:00      -10.870       -3.728       -0.289       15.699       13.132       10.604      246.466      172.444      112.451        0.033        0.027       11.492       11.595        1.018      342.252       17.531      860.858
09/29/2014  22:15:00      -28.173       -2.302       -5.258       22.468       16.757       15.361      504.812      280.789      235.968        0.092        0.051       28.267       14.183        0.252      342.361       17.717      860.846
09/29/2014  22:16:00      -71.895        1.282       -8.901       28.341       29.134       17.344      803.198      848.789      300.814        0.360        0.098       71.906       20.760        0.083      342.673       18.245      860.839
09/29/2014  22:17:00      -60.853        1.087      -13.884       19.654       13.777       12.578      386.292      189.796      158.197        0.232        0.037       60.862        6.915        0.013      342.515       17.978      860.846
09/29/2014  22:18:00      -24.430      -13.016        7.290       53.147       21.956       15.461     2824.639      482.083      239.043        0.218        0.177       27.681       20.032        0.524      342.124       17.315      860.848
09/29/2014  22:19:00      -75.074      -13.889       -4.615       24.276       16.783       13.790      589.320      281.669      190.175        0.346        0.053       76.348       12.053        0.025      342.507       17.963      860.852
09/29/2014  22:20:00      -63.478      -30.769        1.235       25.749       30.784       22.042      663.008      947.628      485.861        0.354        0.105       70.542       17.667        0.063      342.424       17.823      860.856
09/29/2014  22:21:00      -73.210      -54.098        6.674       45.108       31.820       21.710     2034.697     1012.537      471.314        0.592        0.176       91.029       24.998        0.075      342.223       17.481      860.870
09/29/2014  22:22:00      -94.645      -34.308        1.844       28.115       48.129       18.841      790.472     2316.446      354.968        0.680        0.173      100.671       14.867        0.022      342.387       17.760      860.879
09/29/2014  22:23:00     -119.294       -8.880       -9.815       34.933       43.458       12.388     1220.344     1888.569      153.465        0.883        0.163      119.624        8.694        0.005      342.416       17.810      860.891
09/29/2014  22:24:00     -109.812      -39.732       -9.831       56.516       39.239       28.463     3194.094     1539.734      810.158        0.964        0.277      116.779       30.171        0.067      342.546       18.031      860.871
09/29/2014  22:25:00      -26.906       15.468        3.169       50.789       44.790       27.999     2579.514     2006.145      783.929        0.317        0.268       31.035       34.055        1.204      342.501       17.954      860.841
09/29/2014  22:26:00     -137.910      -47.747      -23.636       47.263       46.751       21.566     2233.810     2185.669      465.102        1.337        0.244      145.941       17.300        0.014      342.540       18.021      860.837
09/29/2014  22:27:00      -89.574      -56.929        5.233       89.818       49.040       29.744     8067.250     2404.900      884.715        1.132        0.568      106.134       36.523        0.118      342.328       17.661      860.836
09/29/2014  22:28:00     -116.626      -50.482       -4.369       59.299       56.596       25.433     3516.321     3203.071      646.849        1.177        0.368      127.083       24.208        0.036      342.451       17.870      860.843
09/29/2014  22:29:00      -71.151       16.229       -1.056       79.360       80.073       40.358     6297.967     6411.631     1628.784        0.983        0.717       72.978       43.810        0.360      342.527       17.999      860.839
09/29/2014  22:30:00     -278.277      -61.727      -21.199       81.546       75.748       35.112     6649.721     5737.731     1232.870        4.766        0.681      285.041       36.566        0.016      342.735       18.349      860.849
09/29/2014  22:31:00     -179.729      -27.848        0.373       68.184       46.303       34.837     4649.085     2143.931     1213.627        2.054        0.400      181.873       34.104        0.035      342.574       18.077      860.867
09/29/2014  22:32:00      -84.214      -86.690       -0.057       40.950       28.935       18.644     1676.923      837.236      347.594        0.873        0.143      120.861       17.655        0.021      342.458       17.880      860.887
09/29/2014  22:33:00     -104.462      -34.963      -11.815       32.546       29.888       19.036     1059.213      893.289      362.361        0.729        0.116      110.158       16.041        0.021      342.437       17.846      860.894
09/29/2014  22:34:00      -87.767      -54.883       -7.336       37.045       54.591       22.876     1372.305     2980.140      523.308        0.782        0.244      103.514        9.825        0.009      342.403       17.789      860.899
09/29/2014  22:35:00     -133.486      -89.146       -6.919       52.447       39.904       29.186     2750.696     1592.367      851.851        1.550        0.260      160.517       19.030        0.014      342.353       17.702      860.907
09/29/2014  22:36:00      -75.078      -76.122        5.777       63.648       37.998       29.692     4051.109     1443.834      881.589        0.892        0.319      106.917       35.616        0.111      342.197       17.439      860.898
09/29/2014  22:37:00      -59.932      -61.129        2.717       37.765       31.171       17.329     1426.199      971.619      300.303        0.502        0.135       85.607       18.465        0.047      342.289       17.594      860.870
09/29/2014  22:38:00     -122.449      -76.053      -16.317       53.986       37.883       21.523     2914.453     1435.129      463.252        1.293        0.241      144.145       20.548        0.020      342.396       17.777      860.841
09/29/2014  22:39:00     -129.929      -52.190       -0.956       53.283       28.418       20.432     2839.067      807.610      417.459        1.183        0.203      140.019       26.422        0.036      342.307       17.626      860.837
09/29/2014  22:40:00      -97.707      -61.629       -3.848       55.778       34.918       23.136     3111.170     1219.261      535.276        0.911        0.243      115.519       23.505        0.041      342.310       17.631      860.832
09/29/2014  22:41:00      -54.506      -52.960        1.257       21.520       17.631       15.001      463.117      310.849      225.017        0.339        0.050       75.998       12.806        0.028      342.438       17.848      860.819
09/29/2014  22:42:00     -112.366      -49.647        0.043       36.433       27.222       16.130     1327.368      741.060      260.176        0.871        0.116      122.845       15.574        0.016      342.388       17.764      860.807
09/29/2014  22:43:00     -140.075      -50.376       -1.584       53.779       41.198       24.943     2892.182     1697.259      622.171        1.369        0.261      148.858       25.601        0.030      342.253       17.533      860.794
09/29/2014  22:44:00     -130.672      -38.970        1.945       56.051       42.684       23.766     3141.706     1821.956      564.811        1.206        0.276      136.359       23.927        0.031      342.248       17.524      860.780
09/29/2014  22:45:00      -97.620     -106.340        2.163       61.739       44.065       32.227     3811.646     1941.728     1038.565        1.382        0.340      144.353       34.966        0.059      342.267       17.555      860.765
09/29/2014  22:46:00      -74.271      -34.619        1.292       49.655       23.734       21.657     2465.660      563.301      469.025        0.511        0.175       81.943       24.022        0.086      342.213       17.465      860.765
09/29/2014  22:47:00     -102.384      -38.489        0.690       47.833       36.231       20.551     2288.040     1312.686      422.345        0.799        0.201      109.380       23.112        0.045      342.069       17.220      860.780
09/29/2014  22:48:00     -109.680      -36.026       -4.345       37.486       38.001       19.764     1405.189     1444.061      390.607        0.829        0.162      115.445       18.851        0.027      342.053       17.194      860.787
09/29/2014  22:49:00     -150.189      -62.757       -0.744       41.947       38.541       21.004     1759.525     1485.430      441.151        1.509        0.184      162.773       23.427        0.021      342.133       17.328      860.799
09/29/2014  22:50:00     -121.897      -60.979       -7.271       51.034       45.486       26.420     2604.474     2068.950      698.002        1.200        0.269      136.299       27.336        0.040      342.168       17.389      860.798
09/29/2014  22:51:00     -132.027      -17.208       -2.903      110.509       41.418       31.611    12212.176     1715.470      999.284        1.633        0.746      133.144       44.888        0.114      342.122       17.309      860.794
09/29/2014  22:52:00     -158.650      -28.158        1.737       64.882       42.808       37.751     4209.626     1832.532     1425.153        1.672        0.373      161.130       36.606        0.052      342.108       17.286      860.787
09/29/2014  22:53:00     -192.413      -19.499      -11.041       44.970       49.846       33.452     2022.289     2484.663     1119.060        2.157        0.281      193.399       29.606        0.023      342.064       17.210      860.785
09/29/2014  22:54:00     -211.556      -56.253       -2.035       83.063       66.350       39.315     6899.419     4402.373     1545.663        3.038        0.642      218.907       39.966        0.033      342.144       17.345      860.771
09/29/2014  22:55:00     -203.422     -100.524       -8.425       84.231       79.683       44.359     7094.865     6349.346     1967.686        3.348        0.771      226.905       39.689        0.031      342.303       17.617      860.758
09/29/2014  22:56:00     -244.500      -51.878      -17.279      118.343       73.856       51.698    14005.086     5454.768     2672.636        4.245        1.107      249.943       53.728        0.046      342.188       17.419      860.768
09/29/2014  22:57:00     -182.364       13.652       -6.496      114.239       75.168       40.475    13050.625     5650.293     1638.237        2.691        1.017      182.874       43.886        0.058      342.075       17.228      860.786
09/29/2014  22:58:00     -138.273      -19.993       -7.459       97.022       77.372       44.990     9413.220     5986.417     2024.063        1.850        0.871      139.711       45.972        0.108      342.040       17.169      860.808
09/29/2014  22:59:00     -132.926      -59.955        0.325       73.907       52.856       33.846     5462.173     2793.806     1145.535        1.533        0.470      145.821       36.344        0.062      342.133       17.328      860.837
09/29/2014  23:00:00     -136.759      -17.914       -2.235       47.030       46.484       24.788     2211.827     2160.722      614.469        1.201        0.249      137.927       20.743        0.023      342.097       17.266      860.851
09/29/2014  23:01:00     -160.129      -10.536       -0.504       50.615       53.086       40.445     2561.924     2818.156     1635.821        1.638        0.351      160.475       29.354        0.033      342.143       17.345      860.861
09/29/2014  23:02:00     -144.131      -75.994       -5.053       86.446       55.623       39.269     7472.836     3093.902     1542.071        1.934        0.605      162.938       40.529        0.062      342.128       17.320      860.863
09/29/2014  23:03:00     -202.726      -90.810      -10.139       54.116       55.242       33.595     2928.556     3051.644     1128.645        2.828        0.355      222.136       28.735        0.017      342.186       17.416      860.872
09/29/2014  23:04:00     -141.990      -40.962       -3.027       49.562       42.100       25.632     2456.364     1772.428      657.017        1.337        0.244      147.780       22.353        0.023      342.100       17.272      860.882
09/29/2014  23:05:00     -177.310      -59.469       -2.446       94.448       54.411       35.545     8920.337     2960.512     1263.432        2.406        0.657      187.017       31.124        0.028      342.106       17.282      860.896
09/29/2014  23:06:00     -226.470      -31.740      -12.383      119.474       77.622       46.228    14274.117     6025.225     2137.038        3.744        1.122      228.684       46.464        0.041      342.139       17.336      860.910
09/29/2014  23:07:00     -131.795      -55.749        3.296       83.070       53.045       34.137     6900.546     2813.767     1165.310        1.568        0.544      143.101       33.930        0.056      341.953       17.022      860.920
09/29/2014  23:08:00     -149.341      -69.943        3.983       56.358       60.967       32.050     3176.254     3716.975     1027.211        1.756        0.396      164.908       32.231        0.038      342.013       17.124      860.924
09/29/2014  23:09:00     -170.969      -48.725        8.243       94.907       67.882       52.312     9007.300     4608.025     2736.568        2.401        0.818      177.777       53.179        0.089      342.049       17.184      860.921
09/29/2014  23:10:00     -179.067      -63.752        6.950       88.953       59.946       41.124     7912.582     3593.566     1691.206        2.469        0.660      190.077       42.802        0.051      342.090       17.253      860.920
09/29/2014  23:11:00     -123.835      -88.766       -3.250       59.056       54.441       30.163     3487.566     2963.790      909.777        1.529        0.368      152.363       28.452        0.035      342.085       17.247      860.935
09/29/2014  23:12:00      -99.110      -60.196        8.102       53.343       57.799       34.545     2845.519     3340.729     1193.331        1.044        0.369      115.958       35.008        0.091      342.011       17.122      860.942
09/29/2014  23:13:00      -99.059     -104.313        5.641       78.422       69.141       44.231     6150.084     4780.470     1956.341        1.680        0.644      143.853       49.186        0.117      342.101       17.274      860.930
09/29/2014  23:14:00     -159.639      -62.921        6.454       49.891       47.531       29.832     2489.092     2259.243      889.949        1.756        0.282      171.592       24.516        0.020      342.003       17.107      860.923
09/29/2014  23:15:00     -128.406      -47.009       -1.479       77.372       48.553       29.214     5986.376     2357.418      853.487        1.395        0.460      136.740       42.572        0.097      341.928       16.981      860.923
09/29/2014  23:16:00     -158.941     -168.538      -18.165       71.691       54.937       38.529     5139.661     3018.082     1484.468        3.182        0.482      231.662       41.840        0.033      342.112       17.289      860.918
09/29/2014  23:17:00     -188.298      -73.407       -5.128       69.773       48.651       30.201     4868.241     2366.924      912.125        2.451        0.407      202.101       30.604        0.023      341.993       17.091      860.930
09/29/2014  23:18:00     -164.140      -91.009       -9.917       70.889       54.700       31.555     5025.181     2992.091      995.734        2.217        0.451      187.682       38.369        0.042      341.968       17.047      860.933
09/29/2014  23:19:00     -116.882      -74.932        0.907       73.049       45.754       31.093     5336.211     2093.392      966.756        1.384        0.420      138.839       24.934        0.032      341.900       16.933      860.932
09/29/2014  23:20:00      -95.803      -47.467       -1.592       59.684       48.375       28.981     3562.238     2340.173      839.903        0.909        0.337      106.918       33.507        0.098      341.890       16.917      860.918
09/29/2014  23:21:00      -99.062     -105.421       -6.574       73.625       88.249       28.126     5420.651     7787.816      791.051        1.748        0.700      144.661       36.443        0.063      341.913       16.954      860.910
09/29/2014  23:22:00      -91.559      -82.456        1.781       50.656       69.401       31.904     2566.075     4816.464     1017.896        1.179        0.420      123.216       27.919        0.051      341.915       16.960      860.906
09/29/2014  23:23:00     -202.108     -166.137      -16.222       57.402       60.152       36.394     3294.961     3618.207     1324.510        3.847        0.412      261.628       30.283        0.013      341.896       16.922      860.912
09/29/2014  23:24:00     -122.701      -74.970        7.273       60.090       49.518       31.017     3610.758     2452.007      962.070        1.388        0.351      143.791       23.505        0.027      341.874       16.889      860.916
09/29/2014  23:25:00     -119.293     -111.436       -1.948       75.064       52.312       39.144     5634.531     2736.523     1532.257        1.828        0.495      163.244       36.089        0.049      341.860       16.864      860.914
09/29/2014  23:26:00     -148.218     -170.491        0.015       62.721       67.108       46.484     3933.952     4503.479     2160.734        3.082        0.530      225.911       34.535        0.023      341.855       16.854      860.916
09/29/2014  23:27:00     -194.696      -98.723       -8.776       95.749       70.236       47.112     9167.828     4933.100     2219.547        3.202        0.816      218.296       41.701        0.036      341.812       16.782      860.928
09/29/2014  23:28:00     -158.956     -131.511        2.048       74.542       69.246       39.579     5556.482     4795.043     1566.498        2.724        0.596      206.306       38.617        0.035      341.802       16.764      860.926
09/29/2014  23:29:00     -159.164     -104.607        4.243       94.481       74.044       43.180     8926.602     5482.542     1864.525        2.628        0.814      190.462       47.958        0.063      341.747       16.670      860.916
09/29/2014  23:30:00     -147.955      -54.727       -2.558       90.224       46.391       32.741     8140.305     2152.108     1071.962        1.813        0.568      157.752       38.838        0.061      341.706       16.603      860.905
09/29/2014  23:31:00     -162.002      -84.354        0.178       87.457       62.819       42.999     7648.749     3946.181     1848.880        2.340        0.672      182.648       45.840        0.063      341.676       16.553      860.880
09/29/2014  23:32:00     -232.940     -124.920      -14.360       86.914       88.580       39.428     7554.007     7846.386     1554.549        4.351        0.848      264.322       42.785        0.026      341.783       16.730      860.841
09/29/2014  23:33:00     -135.907     -112.052       12.962       96.015       65.723       40.194     9218.871     4319.479     1615.563        2.317        0.758      176.143       50.114        0.081      341.777       16.723      860.804
09/29/2014  23:34:00     -152.656     -121.097       -0.591       87.629       52.848       46.168     7678.908     2792.914     2131.443        2.528        0.630      194.855       40.545        0.043      341.756       16.687      860.794
09/29/2014  23:35:00      -94.588     -124.768       -0.668       72.384       64.354       30.862     5239.505     4141.419      952.490        1.742        0.517      156.569       23.515        0.023      341.664       16.533      860.783
09/29/2014  23:36:00     -101.396     -118.787      -10.067       52.965       54.108       23.928     2805.343     2927.698      572.559        1.540        0.315      156.178       27.750        0.032      341.592       16.411      860.778
09/29/2014  23:37:00      -62.403      -83.755       -1.775       59.467       49.240       31.083     3536.358     2424.563      966.147        0.892        0.346      104.447       26.298        0.063      341.509       16.270      860.763
09/29/2014  23:38:00     -115.714     -108.279       -7.705       52.596       90.829       38.815     2766.300     8249.984     1506.626        1.885        0.626      158.474       41.741        0.069      341.473       16.208      860.758
09/29/2014  23:39:00     -138.573     -150.921       -4.627       67.501       70.817       45.121     4556.361     5014.984     2035.890        2.680        0.580      204.889       43.273        0.045      341.494       16.243      860.761
09/29/2014  23:40:00     -166.252     -109.025       -4.876       69.593       62.398       31.427     4843.202     3893.451      987.632        2.464        0.486      198.812       22.354        0.013      341.490       16.236      860.755
09/29/2014  23:41:00     -116.531     -125.492        2.275       46.328       62.126       28.595     2146.254     3859.671      817.676        1.808        0.341      171.254       17.770        0.011      341.484       16.227      860.756
09/29/2014  23:42:00     -112.290      -22.212       14.930       82.815       47.886       36.253     6858.398     2293.055     1314.316        1.189        0.523      114.465       37.829        0.109      341.447       16.165      860.754
09/29/2014  23:43:00     -149.806      -66.379       -7.064       52.543       50.926       23.416     2760.789     2593.504      548.297        1.640        0.295      163.853       20.136        0.015      341.514       16.280      860.750
09/29/2014  23:44:00      -63.795      -88.908        1.659       36.242       49.185       23.485     1313.507     2419.191      551.548        0.813        0.214      109.428       16.654        0.023      341.504       16.261      860.753
09/29/2014  23:45:00     -102.702      -90.657       -4.427       60.132       41.494       27.357     3615.815     1721.743      748.407        1.243        0.304      136.991       30.536        0.050      341.469       16.203      860.746
09/29/2014  23:46:00      -75.305     -115.851       -4.886       40.626       48.816       26.281     1650.473     2383.039      690.707        1.192        0.236      138.175       17.912        0.017      341.423       16.128      860.729
09/29/2014  23:47:00      -84.403      -70.180        4.155       45.673       39.035       28.117     2085.989     1523.699      790.574        0.823        0.220      109.768       25.441        0.054      341.425       16.127      860.705
09/29/2014  23:48:00     -105.202      -88.000      -13.430       41.178       43.117       25.557     1695.603     1859.052      653.172        1.160        0.210      137.155       19.579        0.020      341.431       16.140      860.689
09/29/2014  23:49:00     -117.066      -53.638       -1.347       68.749       49.003       29.870     4726.453     2401.276      892.224        1.230        0.401      128.769       30.790        0.057      341.444       16.160      860.692
09/29/2014  23:50:00     -137.031      -86.058       -0.288       61.846       40.940       30.535     3824.924     1676.091      932.357        1.631        0.322      161.813       28.840        0.032      341.504       16.263      860.713
09/29/2014  23:51:00     -106.036      -56.721        3.417       43.627       39.039       25.202     1903.339     1524.065      635.120        0.927        0.203      120.253       21.940        0.033      341.526       16.299      860.726
09/29/2014  23:52:00     -129.447      -71.142       -1.177       45.111       59.174       24.107     2035.039     3501.593      581.145        1.397        0.306      147.708       26.937        0.033      341.503       16.261      860.738
09/29/2014  23:53:00     -120.523      -98.277       -2.971       49.780       48.486       30.000     2478.098     2350.932      899.972        1.496        0.286      155.513       31.174        0.040      341.549       16.337      860.743
09/29/2014  23:54:00     -119.013      -67.234       -3.072       44.095       36.807       26.942     1944.411     1354.748      725.881        1.136        0.201      136.691       23.262        0.029      341.509       16.271      860.762
09/29/2014  23:55:00      -91.032      -38.889        1.719       36.272       30.514       16.843     1315.624      931.105      283.671        0.617        0.127       98.990       13.949        0.020      341.462       16.192      860.773
09/29/2014  23:56:00     -123.935      -68.656       -8.589       34.129       30.770       23.397     1164.808      946.819      547.409        1.140        0.133      141.682       22.733        0.026      341.553       16.346      860.792
09/29/2014  23:57:00      -73.697      -62.399       10.280       67.053       59.349       33.450     4496.042     3522.361     1118.872        0.928        0.457       96.566       27.889        0.083      341.463       16.192      860.792
09/29/2014  23:58:00      -67.210      -88.569       -0.258       45.698       52.589       22.831     2088.308     2765.627      521.273        0.887        0.269      111.183       16.194        0.021      341.689       16.577      860.787
09/29/2014  23:59:00     -121.721      -46.444       -3.012       33.684       32.437       23.247     1134.610     1052.130      540.442        0.985        0.136      130.280       17.472        0.018      341.547       16.335      860.797
